[[{"header":{"parameterUnit":"m.s-1","parameterCategory":1,"la1":31.0,"la2":29.5877,"lo1":-88.7671,"lo2":-86.6584,"dy":0.0162,"dx":0.0185,"nx":115,"ny":88,"refTime":"2026-03-29T00:00:00:Z","depth":0,"parameterNumber":2,"parameterNumberName":"U-component_of_WINDS"},"data":[0.0,0.0,0.0,0.0,0.0,0.0,0.0,0.0,0.0,0.0,0.0,0.0,0.0,0.0,0.0,0.0,0.0,0.0,0.0,0.0,0.0,0.0,0.0,0.0,0.0,0.0,0.0,0.0,0.0,0.0,0.0,0.0,0.0,0.0,0.0,0.0,0.0,0.0,0.0,0.0,0.0,0.0,0.0,0.0,0.0,0.0,0.0,0.0,0.0,0.0,0.0,0.0,0.0,0.0,0.0,0.0,0.0,0.0,0.0,0.0,0.0,0.0,0.0,0.0,0.0,0.0,0.0,0.0,0.0,0.0,0.0,0.0,0.0,0.0,0.0,0.0,0.0,0.0,0.0,0.0,0.0,0.0,0.0,0.0,0.0,0.0,0.0,0.0,0.0,0.0,0.0,0.0,0.0,0.0,0.0,0.0,0.0,0.0,0.0,0.0,0.0,0.0,0.0,0.0,0.0,0.0,0.0,0.0,0.0,0.0,0.0,0.0,0.0,0.0,0.0,0.0,0.0,0.0,0.0,0.0,0.0,0.0,0.0,0.0,0.0,0.0,0.0,0.0,0.0,0.0,0.0,0.0,0.0,0.0,0.0,0.0,0.0,0.0,0.0,0.0,0.0,0.0,0.0,0.0,0.0,0.0,0.0,0.0,0.0,0.0,0.0,0.0,0.0,0.0,0.0,0.0,0.0,0.0,0.0,0.0,0.0,0.0,0.0,0.0,0.0,0.0,0.0,0.0,0.0,0.0,0.0,0.0,0.0,0.0,0.0,0.0,0.0,0.0,0.0,0.0,0.0,0.0,0.0,0.0,0.0,0.0,0.0,0.0,0.0,0.0,0.0,0.0,0.0,0.0,0.0,0.0,0.0,0.0,0.0,0.0,0.0,0.0,0.0,0.0,0.0,0.0,0.0,0.0,0.0,0.0,0.0,0.0,0.0,0.0,0.0,0.0,0.0,0.0,0.0,0.0,0.0,0.0,0.0,0.0,0.0,0.0,0.0,0.0,0.0,0.0,0.0,0.0,0.0,0.0,0.0,0.0,0.0,0.0,0.0,0.0,0.0,0.0,0.0,0.0,0.0,0.0,0.0,0.0,0.0,0.0,0.0,0.0,0.0,0.0,0.0,0.0,0.0,0.0,0.0,0.0,0.0,0.0,0.0,0.0,0.0,0.0,0.0,0.0,0.0,0.0,0.0,0.0,0.0,0.0,0.0,0.0,0.0,0.0,0.0,0.0,0.0,0.0,0.0,0.0,0.0,0.0,0.0,0.0,0.0,0.0,0.0,0.0,0.0,0.0,0.0,0.0,0.0,0.0,0.0,0.0,0.0,0.0,0.0,0.0,0.0,0.0,0.0,0.0,0.0,0.0,0.0,0.0,0.0,0.0,0.0,0.0,0.0,0.0,0.0,0.0,0.0,0.0,0.0,0.0,0.0,0.0,0.0,0.0,0.0,0.0,0.0,0.0,0.0,0.0,0.0,0.0,0.0,0.0,0.0,0.0,0.0,0.0,0.0,0.0,0.0,0.0,0.0,0.0,0.0,0.0,0.0,0.0,0.0,0.0,0.0,0.0,0.0,0.0,0.0,0.0,0.0,0.0,0.0,0.0,0.0,0.0,0.0,0.0,0.0,0.0,0.0,0.0,0.0,0.0,0.0,0.0,0.0,0.0,0.0,0.0,0.0,0.0,0.0,0.0,0.0,0.0,0.0,0.0,0.0,0.0,0.0,0.0,0.0,0.0,0.0,0.0,0.0,0.0,0.0,0.0,0.0,0.0,0.0,0.0,0.0,0.0,0.0,0.0,0.0,0.0,0.0,0.0,0.0,0.0,0.0,0.0,0.0,0.0,0.0,0.0,0.0,0.0,0.0,0.0,0.0,0.0,0.0,0.0,0.0,0.0,0.0,0.0,0.0,0.0,0.0,0.0,0.0,0.0,0.0,0.0,0.0,0.0,0.0,0.0,0.0,0.0,0.0,0.0,0.0,0.0,0.0,0.0,0.0,0.0,0.0,0.0,0.0,0.0,0.0,0.0,0.0,0.0,0.0,0.0,0.0,0.0,0.0,0.0,0.0,0.0,0.0,0.0,0.0,0.0,0.0,0.0,0.0,0.0,0.0,0.0,0.0,0.0,0.0,0.0,0.0,0.0,0.0,0.0,0.0,0.0,0.0,0.0,0.0,0.0,0.0,0.0,0.0,0.0,0.0,0.0,0.0,0.0,0.0,0.0,0.0,0.0,0.0,0.0,0.0,0.0,0.0,0.0,0.0,0.0,0.0,0.0,0.0,0.0,0.0,0.0,0.0,0.0,0.0,0.0,0.0,0.0,0.0,0.0,0.0,0.0,0.0,0.0,0.0,0.0,0.0,0.0,0.0,0.0,0.0,0.0,0.0,0.0,0.0,0.0,0.0,0.0,0.0,0.0,0.0,0.0,0.0,0.0,0.0,0.0,0.0,0.0,0.0,0.0,0.0,0.0,0.0,0.0,0.0,0.0,0.0,0.0,0.0,0.0,0.0,0.0,0.0,0.0,0.0,0.0,0.0,0.0,0.0,0.0,0.0,0.0,0.0,0.0,0.0,0.0,0.0,0.0,0.0,0.0,0.0,0.0,0.0,0.0,0.0,0.0,0.0,0.0,0.0,0.0,0.0,0.0,0.0,0.0,0.0,0.0,0.0,0.0,0.0,0.0,0.0,0.0,0.0,0.0,0.0,0.0,0.0,0.0,0.0,0.0,0.0,0.0,0.0,0.0,0.0,0.0,0.0,0.0,0.0,0.0,0.0,0.0,0.0,0.0,0.0,0.0,0.0,0.0,0.0,0.0,0.0,0.0,0.0,0.0,0.0,0.0,0.0,0.0,0.0,0.0,0.0,0.0,0.0,0.0,0.0,0.0,0.0,0.0,0.0,0.0,0.0,0.0,0.0,0.0,0.0,0.0,0.0,0.0,0.0,0.0,0.0,0.0,0.0,0.0,0.0,0.0,0.0,0.0,0.0,0.0,0.0,0.0,0.0,0.0,0.0,0.0,0.0,0.0,0.0,0.0,0.0,0.0,0.0,0.0,0.0,0.0,0.0,0.0,0.0,0.0,0.0,0.0,0.0,0.0,0.0,0.0,0.0,0.0,0.0,0.0,0.0,0.0,0.0,0.0,0.0,0.0,0.0,0.0,0.0,0.0,0.0,0.0,0.0,0.0,0.0,0.0,0.0,0.0,0.0,0.0,0.0,0.0,0.0,0.0,0.0,0.0,0.0,0.0,0.0,0.0,0.0,0.0,0.0,0.0,0.0,0.0,0.0,0.0,0.0,0.0,0.0,0.0,0.0,0.0,0.0,0.0,0.0,0.0,0.0,0.0,0.0,0.0,0.0,0.0,0.0,0.0,0.0,0.0,0.0,0.0,0.0,0.0,0.0,0.0,0.0,0.0,0.0,0.0,0.0,0.0,0.0,0.0,0.0,0.0,0.0,0.0,0.0,0.0,0.0,0.0,0.0,0.0,0.0,0.0,0.0,0.0,0.0,0.0,0.0,0.0,0.0,0.0,0.0,0.0,0.0,0.0,0.0,0.0,0.0,0.0,0.0,0.0,0.0,0.0,0.0,0.0,0.0,0.0,0.0,0.0,0.0,0.0,0.0,0.0,0.0,0.0,0.0,0.0,0.0,0.0,0.0,0.0,0.0,0.0,0.0,0.0,0.0,0.0,0.0,0.0,0.0,0.0,0.0,0.0,0.0,0.0,0.0,0.0,0.0,0.0,0.0,0.0,0.0,0.0,0.0,0.0,0.0,0.0,0.0,0.0,0.0,0.0,0.0,0.0,0.0,0.0,0.0,0.0,0.0,0.0,0.0,0.0,0.0,0.0,0.0,0.0,0.0,0.0,0.0,0.0,0.0,0.0,0.0,0.0,0.0,0.0,0.0,0.0,0.0,0.0,0.0,0.0,0.0,0.0,0.0,0.0,0.0,0.0,0.0,0.0,0.0,0.0,0.0,0.0,0.0,0.0,0.0,0.0,0.0,0.0,0.0,0.0,0.0,0.0,0.0,0.0,0.0,0.0,0.0,0.0,0.0,0.0,0.0,0.0,0.0,0.0,0.0,0.0,0.0,0.0,0.0,0.0,0.0,0.0,0.0,0.0,0.0,0.0,0.0,0.0,0.0,0.0,0.0,0.0,0.0,0.0,0.0,0.0,0.0,0.0,0.0,0.0,0.0,0.0,0.0,0.0,0.0,0.0,0.0,0.0,0.0,0.0,0.0,0.0,0.0,0.0,0.0,0.0,-2.5898,0.0,0.0,0.0,0.0,0.0,0.0,0.0,0.0,0.0,0.0,0.0,0.0,0.0,0.0,0.0,0.0,0.0,0.0,0.0,0.0,0.0,0.0,0.0,0.0,0.0,0.0,0.0,0.0,0.0,0.0,0.0,0.0,0.0,0.0,0.0,0.0,0.0,0.0,0.0,0.0,0.0,0.0,0.0,0.0,0.0,0.0,0.0,0.0,0.0,0.0,0.0,0.0,0.0,0.0,0.0,0.0,0.0,0.0,0.0,0.0,0.0,0.0,0.0,0.0,0.0,0.0,0.0,0.0,0.0,0.0,0.0,0.0,0.0,0.0,0.0,0.0,0.0,0.0,0.0,0.0,0.0,0.0,0.0,0.0,0.0,0.0,0.0,0.0,0.0,0.0,0.0,0.0,0.0,0.0,0.0,0.0,0.0,0.0,0.0,0.0,0.0,0.0,0.0,0.0,0.0,0.0,0.0,0.0,0.0,0.0,-2.6189,-2.6155,-2.5917,-2.5787,-2.577,0.0,0.0,0.0,0.0,0.0,0.0,0.0,0.0,0.0,0.0,0.0,0.0,0.0,0.0,0.0,0.0,0.0,0.0,0.0,0.0,0.0,0.0,0.0,0.0,0.0,0.0,0.0,0.0,0.0,0.0,0.0,0.0,0.0,0.0,0.0,0.0,0.0,0.0,0.0,0.0,0.0,0.0,0.0,0.0,0.0,0.0,0.0,0.0,0.0,0.0,0.0,0.0,0.0,0.0,0.0,0.0,0.0,0.0,0.0,0.0,0.0,0.0,0.0,0.0,0.0,0.0,0.0,0.0,0.0,0.0,0.0,0.0,0.0,0.0,0.0,0.0,0.0,0.0,0.0,0.0,0.0,0.0,0.0,0.0,0.0,0.0,0.0,0.0,0.0,0.0,0.0,0.0,0.0,0.0,0.0,0.0,0.0,0.0,0.0,0.0,0.0,0.0,0.0,0.0,0.0,0.0,0.0,0.0,0.0,0.0,0.0,0.0,-2.5956,-2.5759,-2.5613,0.0,0.0,0.0,0.0,0.0,0.0,0.0,0.0,0.0,0.0,0.0,0.0,0.0,0.0,0.0,0.0,0.0,0.0,0.0,0.0,0.0,0.0,0.0,0.0,0.0,0.0,0.0,0.0,0.0,0.0,0.0,0.0,0.0,0.0,0.0,0.0,0.0,0.0,0.0,0.0,0.0,0.0,0.0,0.0,0.0,0.0,0.0,0.0,0.0,0.0,0.0,0.0,0.0,0.0,0.0,0.0,0.0,0.0,0.0,0.0,0.0,0.0,0.0,0.0,0.0,0.0,0.0,0.0,0.0,0.0,0.0,0.0,0.0,0.0,0.0,0.0,0.0,0.0,0.0,0.0,0.0,0.0,0.0,0.0,0.0,0.0,0.0,0.0,0.0,0.0,0.0,0.0,0.0,0.0,0.0,0.0,0.0,0.0,0.0,0.0,0.0,0.0,0.0,0.0,0.0,0.0,0.0,0.0,0.0,0.0,-2.5962,-2.661,-2.6607,0.0,-2.5662,0.0,0.0,0.0,0.0,0.0,0.0,0.0,0.0,0.0,0.0,0.0,0.0,0.0,0.0,0.0,0.0,0.0,0.0,0.0,0.0,0.0,0.0,0.0,0.0,0.0,0.0,0.0,0.0,0.0,0.0,0.0,0.0,0.0,0.0,0.0,0.0,0.0,0.0,0.0,0.0,0.0,0.0,0.0,0.0,0.0,0.0,0.0,0.0,0.0,0.0,0.0,0.0,0.0,0.0,0.0,0.0,0.0,0.0,0.0,0.0,0.0,0.0,0.0,0.0,0.0,0.0,0.0,0.0,0.0,0.0,0.0,0.0,0.0,0.0,0.0,0.0,0.0,0.0,0.0,0.0,0.0,0.0,0.0,0.0,0.0,0.0,0.0,0.0,0.0,0.0,0.0,0.0,0.0,0.0,0.0,0.0,0.0,0.0,0.0,0.0,0.0,0.0,0.0,0.0,0.0,0.0,0.0,0.0,0.0,0.0,-2.6393,-2.6701,-2.628,-2.5924,0.0,0.0,0.0,0.0,0.0,0.0,0.0,0.0,0.0,0.0,0.0,0.0,0.0,0.0,0.0,0.0,0.0,0.0,0.0,0.0,0.0,0.0,0.0,0.0,0.0,0.0,0.0,0.0,0.0,0.0,0.0,0.0,0.0,0.0,0.0,0.0,0.0,0.0,0.0,0.0,0.0,0.0,0.0,0.0,0.0,0.0,0.0,0.0,0.0,0.0,0.0,0.0,0.0,0.0,0.0,0.0,0.0,0.0,0.0,0.0,0.0,0.0,0.0,0.0,0.0,0.0,0.0,0.0,0.0,0.0,0.0,0.0,0.0,0.0,0.0,0.0,0.0,0.0,0.0,0.0,0.0,0.0,0.0,0.0,0.0,0.0,0.0,0.0,0.0,0.0,0.0,0.0,0.0,0.0,0.0,0.0,0.0,0.0,0.0,0.0,0.0,0.0,0.0,0.0,0.0,0.0,0.0,0.0,0.0,0.0,-2.6664,0.0,-2.6944,-2.6438,-2.5904,-2.5306,0.0,0.0,0.0,0.0,0.0,0.0,0.0,0.0,0.0,0.0,0.0,0.0,0.0,0.0,0.0,0.0,0.0,0.0,0.0,0.0,0.0,0.0,0.0,0.0,0.0,0.0,0.0,0.0,0.0,0.0,0.0,0.0,0.0,0.0,0.0,0.0,0.0,0.0,0.0,0.0,0.0,0.0,0.0,0.0,0.0,0.0,0.0,0.0,0.0,0.0,0.0,0.0,0.0,0.0,0.0,0.0,0.0,0.0,0.0,0.0,0.0,0.0,0.0,0.0,0.0,0.0,0.0,0.0,0.0,0.0,0.0,0.0,0.0,0.0,0.0,0.0,0.0,0.0,0.0,0.0,0.0,0.0,0.0,0.0,0.0,0.0,0.0,0.0,0.0,0.0,0.0,0.0,0.0,0.0,0.0,0.0,0.0,0.0,0.0,0.0,0.0,0.0,0.0,0.0,0.0,0.0,0.0,0.0,0.0,-2.7068,-2.7008,-2.764,-2.7624,-2.6652,0.0,0.0,0.0,0.0,0.0,0.0,0.0,0.0,0.0,0.0,0.0,0.0,0.0,0.0,0.0,0.0,0.0,0.0,0.0,0.0,0.0,0.0,0.0,0.0,0.0,0.0,0.0,0.0,0.0,0.0,0.0,0.0,0.0,0.0,0.0,0.0,0.0,0.0,0.0,0.0,0.0,0.0,0.0,0.0,0.0,0.0,0.0,0.0,0.0,0.0,0.0,0.0,0.0,0.0,0.0,0.0,0.0,0.0,0.0,0.0,0.0,0.0,0.0,0.0,0.0,0.0,0.0,0.0,0.0,0.0,0.0,0.0,0.0,0.0,0.0,0.0,0.0,0.0,0.0,0.0,0.0,0.0,0.0,0.0,0.0,0.0,0.0,0.0,0.0,0.0,0.0,0.0,0.0,0.0,0.0,0.0,0.0,0.0,0.0,0.0,0.0,0.0,0.0,0.0,0.0,0.0,0.0,0.0,0.0,-2.6466,-2.663,-2.7251,-2.8288,-2.6656,-2.5503,0.0,0.0,0.0,0.0,0.0,0.0,0.0,0.0,0.0,0.0,0.0,0.0,0.0,0.0,0.0,0.0,0.0,0.0,0.0,0.0,0.0,0.0,0.0,0.0,0.0,0.0,0.0,0.0,0.0,0.0,0.0,0.0,0.0,0.0,0.0,0.0,0.0,0.0,0.0,0.0,0.0,0.0,0.0,0.0,0.0,0.0,0.0,0.0,0.0,0.0,0.0,0.0,0.0,0.0,0.0,0.0,0.0,0.0,0.0,0.0,0.0,0.0,0.0,0.0,0.0,0.0,0.0,0.0,0.0,0.0,0.0,0.0,0.0,0.0,0.0,0.0,0.0,0.0,0.0,0.0,0.0,0.0,0.0,0.0,0.0,0.0,0.0,0.0,0.0,0.0,0.0,0.0,0.0,0.0,0.0,0.0,0.0,0.0,0.0,0.0,0.0,0.0,0.0,0.0,0.0,0.0,0.0,0.0,0.0,-2.6417,0.0,-2.7705,0.0,-2.6345,-2.5132,0.0,0.0,0.0,0.0,0.0,0.0,0.0,0.0,0.0,0.0,0.0,0.0,0.0,0.0,0.0,0.0,0.0,0.0,0.0,0.0,0.0,0.0,0.0,0.0,0.0,0.0,0.0,0.0,0.0,0.0,0.0,0.0,0.0,0.0,0.0,0.0,0.0,0.0,0.0,0.0,0.0,0.0,0.0,0.0,0.0,0.0,0.0,0.0,0.0,0.0,0.0,0.0,0.0,0.0,0.0,0.0,0.0,0.0,0.0,0.0,0.0,0.0,0.0,0.0,0.0,0.0,0.0,0.0,0.0,0.0,0.0,0.0,0.0,0.0,0.0,0.0,0.0,0.0,0.0,0.0,0.0,0.0,0.0,0.0,0.0,0.0,0.0,0.0,0.0,0.0,0.0,0.0,0.0,0.0,0.0,0.0,0.0,0.0,0.0,0.0,0.0,0.0,0.0,0.0,0.0,0.0,0.0,0.0,-2.6656,-2.7834,-2.8447,-2.8433,-2.7733,-2.7025,-2.5681,0.0,0.0,0.0,0.0,0.0,0.0,0.0,0.0,0.0,0.0,0.0,0.0,0.0,0.0,0.0,0.0,0.0,0.0,0.0,0.0,0.0,0.0,0.0,0.0,0.0,0.0,0.0,0.0,0.0,0.0,0.0,0.0,0.0,0.0,0.0,0.0,0.0,0.0,0.0,0.0,0.0,0.0,0.0,0.0,0.0,0.0,0.0,0.0,0.0,0.0,0.0,0.0,0.0,0.0,0.0,0.0,0.0,0.0,0.0,0.0,0.0,0.0,0.0,0.0,0.0,0.0,0.0,0.0,0.0,0.0,0.0,0.0,0.0,0.0,0.0,0.0,0.0,0.0,0.0,0.0,0.0,0.0,0.0,0.0,0.0,0.0,0.0,0.0,0.0,0.0,0.0,0.0,0.0,0.0,0.0,0.0,0.0,0.0,0.0,0.0,0.0,0.0,0.0,0.0,0.0,0.0,0.0,0.0,0.0,-2.7179,-2.8236,-2.894,-2.9135,-2.7089,-2.6085,0.0,0.0,0.0,0.0,0.0,0.0,0.0,0.0,0.0,0.0,0.0,0.0,0.0,0.0,0.0,0.0,0.0,0.0,0.0,0.0,0.0,0.0,0.0,0.0,0.0,0.0,0.0,0.0,0.0,0.0,0.0,0.0,0.0,0.0,0.0,0.0,0.0,0.0,0.0,0.0,0.0,0.0,0.0,0.0,0.0,0.0,0.0,0.0,0.0,0.0,0.0,0.0,0.0,0.0,0.0,0.0,0.0,0.0,0.0,0.0,0.0,0.0,0.0,0.0,0.0,0.0,0.0,0.0,0.0,0.0,0.0,0.0,0.0,0.0,0.0,0.0,0.0,0.0,0.0,0.0,0.0,0.0,0.0,0.0,0.0,0.0,0.0,0.0,0.0,0.0,0.0,0.0,0.0,0.0,0.0,0.0,0.0,0.0,0.0,0.0,0.0,0.0,0.0,0.0,0.0,0.0,0.0,0.0,0.0,-2.8498,-2.9432,-2.9961,-2.9896,-2.7608,-2.6535,-2.6843,0.0,0.0,0.0,0.0,0.0,0.0,0.0,0.0,0.0,0.0,0.0,0.0,0.0,0.0,0.0,0.0,0.0,0.0,0.0,0.0,0.0,0.0,0.0,0.0,0.0,0.0,0.0,0.0,0.0,0.0,0.0,0.0,0.0,0.0,0.0,0.0,0.0,0.0,0.0,0.0,0.0,0.0,0.0,0.0,0.0,0.0,0.0,0.0,0.0,0.0,0.0,0.0,0.0,0.0,0.0,0.0,0.0,0.0,0.0,0.0,0.0,0.0,0.0,0.0,0.0,0.0,0.0,0.0,0.0,0.0,0.0,0.0,0.0,0.0,0.0,0.0,0.0,0.0,0.0,0.0,0.0,0.0,0.0,0.0,0.0,0.0,0.0,0.0,0.0,0.0,0.0,0.0,0.0,0.0,0.0,0.0,0.0,0.0,0.0,0.0,0.0,0.0,0.0,0.0,0.0,0.0,0.0,0.0,-3.1287,-3.1897,-3.1591,-3.0204,-2.866,-2.7219,0.0,0.0,0.0,0.0,0.0,0.0,0.0,0.0,0.0,0.0,0.0,0.0,0.0,0.0,0.0,0.0,0.0,0.0,0.0,0.0,0.0,0.0,0.0,0.0,0.0,0.0,0.0,0.0,0.0,0.0,0.0,0.0,0.0,0.0,0.0,0.0,0.0,0.0,0.0,0.0,0.0,0.0,0.0,0.0,0.0,0.0,0.0,0.0,0.0,0.0,0.0,0.0,0.0,0.0,0.0,0.0,0.0,0.0,0.0,0.0,0.0,0.0,0.0,0.0,0.0,0.0,0.0,0.0,0.0,0.0,0.0,0.0,0.0,0.0,0.0,0.0,0.0,0.0,0.0,0.0,0.0,0.0,0.0,0.0,0.0,0.0,0.0,0.0,0.0,0.0,0.0,0.0,0.0,0.0,0.0,0.0,0.0,0.0,0.0,0.0,0.0,0.0,0.0,0.0,0.0,0.0,0.0,0.0,0.0,-3.3445,-3.4588,-3.4489,-3.3016,-3.0626,-2.9151,0.0,0.0,0.0,0.0,0.0,0.0,0.0,0.0,0.0,0.0,0.0,0.0,0.0,0.0,0.0,0.0,0.0,0.0,0.0,0.0,0.0,0.0,0.0,0.0,0.0,0.0,0.0,0.0,0.0,0.0,0.0,0.0,0.0,0.0,0.0,0.0,0.0,0.0,0.0,0.0,0.0,0.0,0.0,0.0,0.0,0.0,0.0,0.0,0.0,0.0,0.0,0.0,0.0,0.0,0.0,0.0,0.0,0.0,0.0,0.0,0.0,0.0,0.0,0.0,0.0,0.0,0.0,0.0,0.0,0.0,0.0,0.0,0.0,0.0,0.0,0.0,0.0,0.0,0.0,0.0,0.0,0.0,0.0,0.0,0.0,0.0,0.0,0.0,0.0,0.0,0.0,0.0,0.0,0.0,0.0,0.0,0.0,0.0,0.0,0.0,0.0,0.0,0.0,0.0,0.0,0.0,0.0,0.0,-3.3475,-3.5101,-3.7156,-3.7459,-3.593,-3.287,-3.095,0.0,0.0,0.0,0.0,0.0,0.0,0.0,0.0,0.0,0.0,0.0,0.0,0.0,0.0,0.0,0.0,0.0,0.0,0.0,0.0,0.0,0.0,0.0,0.0,0.0,0.0,0.0,0.0,0.0,0.0,0.0,0.0,0.0,0.0,0.0,0.0,0.0,0.0,0.0,0.0,0.0,0.0,0.0,0.0,0.0,0.0,0.0,0.0,0.0,0.0,0.0,0.0,0.0,0.0,0.0,0.0,0.0,0.0,0.0,0.0,0.0,0.0,0.0,0.0,0.0,0.0,0.0,0.0,0.0,0.0,0.0,0.0,0.0,0.0,0.0,0.0,0.0,0.0,0.0,0.0,0.0,0.0,0.0,0.0,0.0,0.0,0.0,0.0,0.0,0.0,0.0,0.0,0.0,0.0,0.0,0.0,0.0,0.0,0.0,0.0,0.0,0.0,0.0,0.0,0.0,0.0,0.0,0.0,-3.534,-3.6513,-3.9231,-3.9962,-3.8472,-3.5121,-3.2595,0.0,0.0,0.0,0.0,0.0,0.0,0.0,0.0,0.0,0.0,0.0,0.0,0.0,0.0,0.0,0.0,0.0,0.0,0.0,0.0,0.0,0.0,0.0,0.0,0.0,0.0,0.0,0.0,0.0,0.0,0.0,0.0,0.0,0.0,0.0,0.0,0.0,0.0,0.0,0.0,0.0,0.0,0.0,0.0,0.0,0.0,0.0,0.0,0.0,0.0,0.0,0.0,0.0,0.0,0.0,0.0,0.0,0.0,0.0,0.0,0.0,0.0,0.0,0.0,0.0,0.0,0.0,0.0,0.0,0.0,0.0,0.0,0.0,0.0,0.0,0.0,0.0,0.0,0.0,0.0,0.0,0.0,0.0,0.0,0.0,0.0,0.0,0.0,0.0,0.0,0.0,0.0,0.0,0.0,0.0,0.0,0.0,0.0,0.0,0.0,0.0,0.0,0.0,0.0,0.0,0.0,0.0,0.0,-3.6176,-3.7906,-3.9161,-3.9632,-3.9279,-3.6329,-3.3834,0.0,0.0,0.0,0.0,0.0,0.0,0.0,0.0,0.0,0.0,0.0,0.0,0.0,0.0,0.0,0.0,0.0,0.0,0.0,0.0,0.0,0.0,0.0,0.0,0.0,0.0,0.0,0.0,0.0,0.0,0.0,0.0,0.0,0.0,0.0,0.0,0.0,0.0,0.0,0.0,0.0,0.0,0.0,0.0,0.0,0.0,0.0,0.0,-2.3544,0.0,0.0,0.0,0.0,0.0,0.0,0.0,0.0,0.0,0.0,0.0,0.0,0.0,0.0,0.0,0.0,0.0,0.0,0.0,0.0,0.0,0.0,0.0,0.0,0.0,0.0,0.0,0.0,0.0,0.0,0.0,0.0,0.0,0.0,0.0,0.0,0.0,0.0,0.0,0.0,0.0,0.0,0.0,0.0,0.0,0.0,0.0,0.0,0.0,0.0,0.0,0.0,0.0,0.0,0.0,0.0,0.0,0.0,0.0,-3.7441,-3.8987,-4.0031,-4.0229,-3.9505,-3.8015,-3.5882,0.0,0.0,0.0,0.0,0.0,0.0,0.0,0.0,0.0,0.0,0.0,0.0,0.0,0.0,0.0,0.0,0.0,0.0,0.0,0.0,0.0,0.0,0.0,0.0,0.0,0.0,0.0,0.0,0.0,0.0,0.0,0.0,0.0,0.0,0.0,0.0,0.0,0.0,0.0,0.0,0.0,0.0,0.0,0.0,0.0,0.0,0.0,0.0,0.0,0.0,0.0,0.0,0.0,0.0,0.0,0.0,0.0,0.0,0.0,0.0,0.0,0.0,0.0,0.0,0.0,0.0,0.0,0.0,0.0,0.0,0.0,0.0,0.0,0.0,0.0,0.0,0.0,0.0,0.0,0.0,0.0,0.0,0.0,0.0,0.0,0.0,0.0,0.0,0.0,0.0,0.0,0.0,0.0,0.0,0.0,0.0,0.0,0.0,0.0,0.0,0.0,0.0,0.0,0.0,0.0,0.0,0.0,-3.6256,-3.8477,-3.9834,-4.1026,-4.094,-3.9537,-3.9182,-3.7459,-3.4182,0.0,0.0,0.0,0.0,0.0,0.0,0.0,0.0,0.0,0.0,0.0,0.0,0.0,0.0,0.0,0.0,0.0,0.0,0.0,0.0,0.0,0.0,0.0,0.0,0.0,0.0,0.0,0.0,0.0,0.0,0.0,0.0,0.0,0.0,0.0,0.0,0.0,0.0,-2.2039,-2.3459,0.0,0.0,0.0,0.0,0.0,0.0,0.0,0.0,-2.4301,0.0,0.0,0.0,0.0,0.0,0.0,0.0,0.0,0.0,0.0,0.0,0.0,0.0,0.0,0.0,0.0,0.0,0.0,0.0,0.0,0.0,0.0,0.0,0.0,0.0,0.0,0.0,0.0,0.0,0.0,0.0,0.0,0.0,0.0,0.0,0.0,0.0,0.0,0.0,0.0,0.0,0.0,0.0,0.0,0.0,0.0,0.0,0.0,0.0,0.0,0.0,0.0,0.0,0.0,0.0,0.0,-3.6091,-3.6734,-3.8171,-4.0551,-4.0769,-4.0409,-3.9436,-3.7769,-3.5982,-3.4022,0.0,0.0,0.0,0.0,0.0,0.0,0.0,0.0,0.0,0.0,0.0,0.0,0.0,0.0,0.0,0.0,0.0,0.0,0.0,0.0,0.0,0.0,0.0,0.0,0.0,0.0,0.0,0.0,0.0,0.0,0.0,0.0,0.0,0.0,0.0,0.0,0.0,0.0,0.0,-2.5837,-2.6427,0.0,0.0,0.0,0.0,0.0,0.0,0.0,0.0,-2.4641,0.0,0.0,0.0,0.0,0.0,0.0,0.0,0.0,0.0,0.0,0.0,0.0,0.0,0.0,0.0,0.0,0.0,0.0,0.0,0.0,0.0,0.0,0.0,0.0,0.0,0.0,0.0,0.0,0.0,0.0,0.0,0.0,0.0,0.0,0.0,0.0,0.0,0.0,0.0,0.0,0.0,0.0,0.0,0.0,0.0,0.0,0.0,0.0,0.0,0.0,0.0,0.0,0.0,0.0,0.0,-3.4888,-3.6623,-3.8309,-3.9887,-3.9767,-3.9455,-3.895,-3.7028,-3.5336,0.0,0.0,0.0,0.0,0.0,0.0,0.0,0.0,0.0,0.0,0.0,0.0,0.0,0.0,0.0,0.0,0.0,0.0,0.0,0.0,0.0,0.0,0.0,0.0,0.0,0.0,0.0,0.0,0.0,0.0,0.0,0.0,0.0,0.0,0.0,0.0,0.0,0.0,0.0,0.0,-2.6624,-2.7045,-2.7706,0.0,0.0,0.0,0.0,0.0,0.0,-2.5865,-2.5669,0.0,0.0,0.0,0.0,0.0,0.0,0.0,0.0,0.0,0.0,0.0,0.0,0.0,0.0,0.0,0.0,0.0,0.0,0.0,0.0,0.0,0.0,0.0,0.0,0.0,0.0,0.0,0.0,0.0,0.0,0.0,0.0,0.0,0.0,0.0,0.0,0.0,0.0,0.0,0.0,0.0,0.0,0.0,0.0,0.0,0.0,0.0,0.0,0.0,0.0,0.0,0.0,0.0,0.0,0.0,-3.3651,-3.631,-3.8293,-3.9297,-3.8979,-3.8627,-3.8367,-3.6461,-3.4827,0.0,0.0,0.0,0.0,0.0,0.0,0.0,0.0,0.0,0.0,0.0,0.0,0.0,0.0,0.0,0.0,0.0,0.0,0.0,0.0,0.0,0.0,0.0,0.0,0.0,0.0,0.0,0.0,0.0,0.0,0.0,0.0,0.0,0.0,0.0,0.0,0.0,0.0,0.0,0.0,0.0,-2.8029,-2.8759,-2.8015,0.0,0.0,0.0,0.0,-2.6635,-2.6949,0.0,0.0,0.0,0.0,0.0,0.0,0.0,0.0,0.0,0.0,0.0,0.0,0.0,0.0,0.0,0.0,0.0,0.0,0.0,0.0,0.0,0.0,0.0,0.0,0.0,0.0,0.0,0.0,0.0,0.0,0.0,0.0,0.0,0.0,0.0,0.0,0.0,0.0,0.0,0.0,0.0,0.0,0.0,0.0,0.0,0.0,0.0,0.0,0.0,0.0,0.0,0.0,0.0,0.0,0.0,0.0,-3.4932,-3.5943,-3.7601,-3.9909,-3.9294,-3.8498,-3.7718,-3.575,-3.3968,0.0,0.0,0.0,0.0,0.0,0.0,0.0,0.0,0.0,0.0,0.0,0.0,0.0,0.0,0.0,0.0,0.0,0.0,0.0,0.0,0.0,0.0,0.0,0.0,0.0,0.0,0.0,0.0,0.0,0.0,0.0,0.0,0.0,0.0,0.0,0.0,0.0,0.0,0.0,0.0,0.0,-3.06,-2.9645,-2.9378,-2.9069,0.0,0.0,-2.8314,-2.8845,-2.8709,0.0,0.0,0.0,0.0,0.0,0.0,0.0,0.0,0.0,0.0,0.0,0.0,0.0,0.0,0.0,0.0,0.0,0.0,0.0,0.0,0.0,0.0,0.0,0.0,0.0,0.0,0.0,0.0,0.0,0.0,0.0,0.0,0.0,0.0,0.0,0.0,0.0,0.0,0.0,0.0,0.0,0.0,0.0,0.0,0.0,0.0,0.0,0.0,0.0,0.0,0.0,0.0,0.0,0.0,0.0,-3.1385,-3.3698,-3.6166,-3.7948,-3.8945,-3.8201,-3.771,-3.7608,-3.4514,-3.2461,0.0,0.0,0.0,0.0,0.0,0.0,0.0,0.0,0.0,0.0,0.0,0.0,0.0,0.0,0.0,0.0,0.0,0.0,0.0,0.0,0.0,0.0,0.0,0.0,0.0,0.0,0.0,0.0,0.0,0.0,0.0,0.0,0.0,0.0,0.0,0.0,0.0,0.0,0.0,0.0,0.0,0.0,-2.9396,-2.9316,0.0,0.0,0.0,-2.8699,-2.8599,0.0,0.0,0.0,0.0,0.0,0.0,0.0,0.0,0.0,0.0,0.0,0.0,0.0,0.0,0.0,0.0,0.0,0.0,0.0,0.0,0.0,0.0,0.0,0.0,0.0,0.0,0.0,0.0,0.0,0.0,0.0,0.0,0.0,0.0,0.0,0.0,0.0,0.0,0.0,0.0,0.0,0.0,0.0,0.0,0.0,0.0,0.0,0.0,0.0,0.0,0.0,0.0,0.0,0.0,0.0,0.0,0.0,-3.2781,-3.6246,-3.8176,-3.8296,-3.7511,-3.7157,-3.7279,-3.386,0.0,0.0,0.0,0.0,0.0,0.0,0.0,0.0,0.0,0.0,0.0,0.0,0.0,0.0,0.0,0.0,0.0,0.0,0.0,0.0,0.0,0.0,0.0,0.0,0.0,0.0,0.0,-1.6782,0.0,0.0,0.0,0.0,0.0,0.0,0.0,0.0,0.0,0.0,0.0,0.0,0.0,0.0,-2.9409,-2.9304,-2.9532,-2.9624,0.0,0.0,-2.931,-2.8895,-2.9359,-2.8928,0.0,0.0,0.0,0.0,0.0,0.0,0.0,0.0,0.0,0.0,0.0,0.0,0.0,0.0,0.0,0.0,0.0,0.0,0.0,0.0,0.0,0.0,0.0,0.0,0.0,0.0,0.0,0.0,0.0,0.0,0.0,0.0,0.0,0.0,0.0,0.0,0.0,0.0,0.0,0.0,0.0,0.0,0.0,0.0,0.0,0.0,0.0,0.0,0.0,0.0,0.0,0.0,0.0,0.0,0.0,-3.3395,-3.5904,-3.7792,-3.8971,-3.8046,-3.7264,-3.6658,-3.4534,-3.221,0.0,0.0,0.0,0.0,0.0,0.0,0.0,0.0,0.0,0.0,0.0,0.0,0.0,0.0,0.0,0.0,0.0,0.0,0.0,0.0,0.0,0.0,0.0,0.0,0.0,0.0,0.0,0.0,0.0,0.0,0.0,0.0,0.0,0.0,0.0,0.0,0.0,0.0,0.0,0.0,0.0,-2.9964,-2.9759,-3.0769,-3.168,0.0,0.0,-3.048,-3.0984,-3.1294,-3.0132,-2.6058,0.0,0.0,0.0,0.0,0.0,0.0,0.0,0.0,0.0,0.0,0.0,0.0,0.0,0.0,0.0,0.0,0.0,0.0,0.0,0.0,0.0,0.0,0.0,0.0,0.0,0.0,0.0,0.0,0.0,0.0,0.0,0.0,0.0,0.0,0.0,0.0,0.0,0.0,0.0,0.0,0.0,0.0,0.0,0.0,0.0,0.0,0.0,0.0,0.0,0.0,0.0,0.0,0.0,-3.0612,-3.3469,-3.6291,-3.8127,-3.8833,-3.8069,-3.7222,-3.6437,-3.4491,-3.2109,0.0,0.0,0.0,0.0,0.0,0.0,0.0,0.0,0.0,0.0,0.0,0.0,0.0,0.0,0.0,0.0,0.0,0.0,0.0,0.0,0.0,0.0,0.0,0.0,0.0,0.0,0.0,0.0,-1.8648,-1.8786,-1.8899,0.0,0.0,0.0,0.0,0.0,0.0,0.0,0.0,0.0,0.0,-2.9252,-2.9442,-3.0198,0.0,0.0,-3.0544,-3.0277,-3.0538,-2.9799,-2.845,-2.6166,-2.486,0.0,0.0,0.0,0.0,0.0,0.0,0.0,0.0,0.0,0.0,0.0,0.0,0.0,0.0,0.0,0.0,0.0,0.0,0.0,0.0,0.0,0.0,0.0,0.0,0.0,0.0,0.0,0.0,0.0,0.0,0.0,0.0,0.0,0.0,0.0,0.0,0.0,0.0,0.0,0.0,0.0,0.0,0.0,0.0,0.0,0.0,0.0,0.0,0.0,0.0,0.0,0.0,-3.0672,-3.3469,-3.635,-3.8136,-3.8767,-3.8172,-3.7375,-3.6315,-3.4869,-3.2472,0.0,0.0,0.0,0.0,0.0,0.0,0.0,0.0,0.0,0.0,0.0,0.0,0.0,0.0,0.0,0.0,0.0,0.0,0.0,0.0,0.0,0.0,0.0,0.0,0.0,0.0,0.0,0.0,-1.913,-1.8821,-1.8631,0.0,0.0,0.0,0.0,0.0,0.0,0.0,0.0,0.0,0.0,-2.8805,-2.9458,-2.9857,-3.0086,-3.0086,-2.9821,-2.9665,-2.9833,-2.8931,-2.7678,-2.6322,0.0,0.0,0.0,0.0,0.0,0.0,0.0,0.0,0.0,0.0,0.0,0.0,0.0,0.0,0.0,0.0,0.0,0.0,0.0,0.0,0.0,0.0,0.0,0.0,0.0,0.0,0.0,-2.6705,0.0,0.0,-2.6445,0.0,0.0,0.0,0.0,0.0,0.0,0.0,0.0,0.0,0.0,0.0,0.0,0.0,0.0,0.0,0.0,0.0,0.0,0.0,0.0,0.0,0.0,-3.0238,-3.3469,-3.5885,-3.7692,-3.8738,-3.856,-3.7762,-3.6359,-3.5697,-3.3547,-2.9653,0.0,0.0,0.0,0.0,0.0,0.0,0.0,0.0,0.0,0.0,0.0,0.0,0.0,0.0,0.0,0.0,0.0,0.0,0.0,0.0,0.0,0.0,0.0,0.0,0.0,0.0,-1.8669,-1.7553,-1.6669,0.0,0.0,0.0,0.0,0.0,0.0,0.0,0.0,0.0,0.0,-2.7503,-2.8871,-2.9905,-3.0086,-3.0122,-3.0122,-2.9268,-2.8763,-2.928,-2.9256,-2.8534,0.0,0.0,0.0,0.0,0.0,0.0,0.0,0.0,0.0,0.0,0.0,0.0,0.0,0.0,0.0,0.0,0.0,0.0,0.0,0.0,0.0,0.0,0.0,0.0,0.0,0.0,0.0,-2.9642,-2.8958,0.0,0.0,0.0,0.0,0.0,0.0,0.0,0.0,0.0,0.0,0.0,-3.0881,-3.1539,0.0,0.0,0.0,0.0,0.0,0.0,0.0,0.0,0.0,0.0,0.0,0.0,-3.0223,-3.344,-3.5904,-3.7627,-3.8738,-3.8612,-3.7791,-3.6344,-3.5726,-3.3166,-2.8493,0.0,0.0,0.0,0.0,0.0,0.0,0.0,0.0,0.0,0.0,0.0,0.0,0.0,0.0,0.0,0.0,0.0,0.0,0.0,0.0,0.0,0.0,0.0,0.0,0.0,-1.9904,0.0,0.0,0.0,0.0,0.0,0.0,0.0,0.0,0.0,0.0,0.0,-2.4326,-2.5901,-2.75,-2.8895,-2.9941,-3.0398,-3.0778,0.0,0.0,0.0,0.0,0.0,0.0,0.0,0.0,0.0,0.0,0.0,0.0,0.0,0.0,-2.7117,-2.4312,-2.3372,-2.3135,-2.364,0.0,0.0,0.0,0.0,0.0,0.0,0.0,0.0,0.0,0.0,0.0,0.0,0.0,0.0,-3.1337,0.0,-2.988,0.0,0.0,0.0,0.0,0.0,0.0,0.0,0.0,-3.2437,-3.3543,-3.3589,-3.4233,-3.3829,0.0,-3.1943,-2.9819,0.0,0.0,0.0,0.0,0.0,0.0,0.0,0.0,-3.1016,-3.3799,-3.6231,-3.7878,-3.8723,-3.8612,-3.7791,-3.6344,-3.5053,-3.2585,-2.884,-2.7043,-2.5271,0.0,0.0,0.0,0.0,0.0,0.0,0.0,0.0,0.0,0.0,0.0,0.0,0.0,0.0,0.0,0.0,0.0,0.0,0.0,0.0,0.0,0.0,0.0,-1.9877,0.0,0.0,0.0,0.0,0.0,0.0,0.0,0.0,0.0,-2.2154,-2.3601,-2.511,-2.6503,-2.749,-2.8389,-2.9215,0.0,0.0,0.0,0.0,0.0,0.0,0.0,-2.7282,-2.7435,-2.6904,-2.6435,-2.6414,-2.7701,-2.8639,-2.8297,0.0,0.0,-2.6539,-2.5708,-2.5576,-2.6081,-2.6454,-2.6743,-2.6935,-2.7536,-2.7933,0.0,0.0,0.0,0.0,0.0,0.0,0.0,0.0,-3.2853,-3.257,0.0,-3.193,0.0,0.0,0.0,0.0,0.0,-3.1061,0.0,0.0,-3.5833,-3.6761,-3.5684,-3.6267,-3.5878,-3.4728,-3.522,-3.4158,-3.1511,-2.7799,0.0,0.0,0.0,0.0,0.0,0.0,-3.2497,-3.4548,-3.6871,-3.8314,-3.8752,-3.8575,-3.7718,-3.6194,-3.3791,-3.1881,-3.0594,-2.9291,-2.7207,-2.4156,-2.3922,0.0,0.0,0.0,0.0,0.0,0.0,0.0,0.0,0.0,0.0,0.0,0.0,0.0,0.0,0.0,0.0,0.0,0.0,0.0,0.0,-1.9586,0.0,0.0,0.0,0.0,0.0,0.0,0.0,0.0,0.0,0.0,-2.3683,-2.4398,-2.5527,-2.7478,0.0,0.0,0.0,0.0,-2.7773,-2.7336,-2.6758,-2.6767,-2.7762,-2.782,-2.7626,-2.7151,0.0,0.0,-2.5998,-2.7631,-2.8952,-2.806,-2.9535,-3.0697,-3.0115,-2.9138,-2.8711,-2.915,-2.9217,-2.9486,-2.9959,-3.0481,-3.126,-3.8172,0.0,0.0,0.0,0.0,-3.5469,-3.6373,-3.8136,-3.7411,-3.6624,-3.5722,-3.4622,0.0,0.0,0.0,0.0,0.0,0.0,-3.4173,-3.4741,-3.6567,-3.7449,-3.7584,-3.8257,-3.8108,-3.727,-3.6985,-3.6252,-3.4996,-3.2482,-2.9714,-2.6821,0.0,0.0,0.0,0.0,-3.323,-3.5205,-3.7124,-3.8328,-3.8767,-3.8008,-3.6637,-3.4639,-3.2587,-3.1143,-3.0323,-2.915,-2.7649,-2.5852,-2.4573,0.0,0.0,0.0,0.0,0.0,0.0,0.0,0.0,0.0,0.0,0.0,0.0,0.0,0.0,0.0,0.0,0.0,0.0,0.0,-1.9179,-1.951,-1.9642,0.0,0.0,0.0,0.0,0.0,0.0,0.0,0.0,0.0,-2.4481,-2.5057,-2.5915,0.0,0.0,-2.7336,-2.786,-2.7869,-2.8065,-2.8574,-2.8191,0.0,0.0,-2.815,-2.7755,-2.7997,-2.866,-2.8998,-2.8758,-2.9307,-2.9672,-2.9385,-2.9855,-3.02,-3.0115,-3.0481,-3.0628,-3.0468,-3.036,-3.025,-3.0118,-3.0278,-3.0505,-4.1968,-3.9484,-3.8197,-3.8167,-3.8931,-3.8531,-3.9361,-4.0964,-4.0211,-3.9483,-3.8752,-3.7709,-3.597,-3.3768,-3.2617,0.0,0.0,0.0,-3.6282,-3.7479,-3.8242,-3.8811,-3.92,-3.9619,-3.9454,-3.8796,-3.7777,-3.7133,-3.6749,-3.4951,-3.2591,-2.9842,0.0,0.0,-3.0115,-3.2119,-3.3847,-3.5248,-3.6678,-3.752,-3.7805,-3.6545,-3.5256,-3.393,-3.2336,-3.1202,-3.0572,-2.9835,-2.8663,-2.6969,-2.5858,-2.4304,0.0,0.0,0.0,0.0,0.0,0.0,0.0,0.0,0.0,0.0,0.0,-1.8295,-1.693,0.0,0.0,0.0,-1.8694,-1.9811,-2.0562,-2.0886,0.0,0.0,0.0,0.0,0.0,0.0,0.0,-2.1935,-2.3104,-2.406,-2.4627,-2.5147,-2.5813,-2.6698,-2.6511,-2.6508,-2.6956,0.0,-2.751,-2.8063,-2.7994,-2.817,-2.8794,-2.837,-2.8084,-2.8445,-2.8404,-2.8481,-2.8763,-2.926,-2.9636,-2.9735,-3.0033,-3.0395,-3.058,-3.1202,-3.14,-3.0647,-3.065,-3.0682,-3.0384,-3.0471,-3.0612,-4.502,-4.4212,-4.116,-4.0561,-4.1594,-4.1447,-4.1844,-4.2575,-4.1716,-4.1441,-4.1489,-4.0786,-3.9409,-3.7464,-3.5744,0.0,-3.6836,-3.7434,-3.8671,-4.0345,-4.0435,-4.0397,-4.0286,-4.0263,-3.9921,-3.9252,-3.785,-3.7163,-3.7098,-3.5679,-3.4365,-3.3219,-3.2242,-3.1985,-3.2421,-3.3595,-3.449,-3.4948,-3.5856,-3.6255,-3.6122,-3.4619,-3.379,-3.3648,-3.254,-3.1613,-3.1003,-3.0882,-2.9846,-2.7706,-2.7351,-2.5747,-2.2558,0.0,0.0,0.0,0.0,0.0,0.0,0.0,0.0,0.0,0.0,0.0,0.0,0.0,0.0,0.0,-2.0652,0.0,-2.2957,-2.2962,0.0,0.0,0.0,-2.0751,-2.0325,-2.1498,-2.2339,-2.2167,0.0,0.0,-2.4447,-2.4844,-2.5439,-2.6253,-2.5617,-2.5273,-2.5625,-2.6094,-2.6338,-2.6516,-2.6699,-2.7319,-2.8267,-2.8397,-2.8397,-2.8419,-2.7682,-2.7243,-2.7322,-2.8185,-2.9034,-2.9157,-2.9963,-3.0687,-3.1232,-3.1149,-3.1048,-2.9984,-3.0316,-3.0658,-3.0479,-3.0769,-3.1017,-4.595,-4.5696,-4.4436,-4.3778,-4.3614,-4.3574,-4.3947,-4.4511,-4.3858,-4.3305,-4.2751,-4.1669,-4.0322,-3.891,-3.8975,-3.917,-3.9499,-4.0142,-4.0314,-4.0139,-4.085,-4.0415,-3.9088,-3.931,-3.8953,-3.8147,-3.7366,-3.6977,-3.691,-3.6075,-3.5527,-3.5153,-3.4469,-3.3669,-3.2931,-3.4107,-3.4947,-3.544,-3.6025,-3.583,-3.4841,-3.3635,-3.2686,-3.2021,-3.0906,-3.0266,-3.0087,-2.9294,-2.8569,-2.7969,-2.6727,-2.5453,-2.4223,-2.256,0.0,0.0,0.0,0.0,0.0,0.0,0.0,0.0,0.0,-1.9899,-1.7586,0.0,-2.0314,0.0,-2.1782,-2.2644,-2.2506,-2.2352,0.0,0.0,-2.2542,-2.2112,-2.2539,-2.2956,-2.3118,-2.2876,-2.3737,-2.4536,-2.4891,-2.5303,-2.5624,-2.5846,-2.5721,-2.5615,-2.5693,-2.5762,-2.6016,-2.6328,-2.6494,-2.6869,-2.7714,-2.7915,-2.7994,-2.8298,-2.7872,-2.7617,-2.7939,-2.8215,-2.8496,-2.8559,-2.8707,-2.8958,-2.9092,-2.9069,-2.9061,-2.885,-2.9445,-2.987,-2.9056,-2.9051,-2.9122,-4.5433,-4.5434,-4.5462,-4.5052,-4.437,-4.4929,-4.5424,-4.5693,-4.5035,-4.4158,-4.3053,-4.1357,-4.0446,-4.0109,-3.9755,-3.9998,-4.0654,-4.0627,-4.0466,-4.0306,-4.0796,-4.0354,-3.9074,-3.9226,-3.8771,-3.7796,-3.7087,-3.6609,-3.6346,-3.5594,-3.5219,-3.5219,-3.4854,-3.4326,-3.3677,-3.4413,-3.4892,-3.506,-3.5117,-3.4786,-3.3953,-3.2774,-3.1786,-3.1062,-2.998,-2.9289,-2.9051,-2.8436,-2.7871,-2.7381,-2.649,-2.5398,-2.4098,-2.2869,-2.1719,0.0,0.0,0.0,0.0,0.0,0.0,0.0,0.0,0.0,0.0,0.0,-2.1465,-2.1591,-2.2837,-2.3547,-2.3403,-2.348,-2.3711,-2.4086,-2.3562,-2.3346,-2.3691,-2.3774,-2.3892,-2.4147,-2.4608,-2.5014,-2.535,-2.5538,-2.5684,-2.5684,-2.5684,-2.5684,-2.5703,-2.5849,-2.6113,-2.6348,-2.6553,-2.6894,-2.762,-2.7552,-2.7578,-2.8115,-2.7939,-2.7855,-2.8213,-2.8301,-2.8301,-2.8301,-2.8301,-2.8301,-2.8301,-2.8301,-2.8301,-2.8398,-2.8751,-2.89,-2.8398,-2.8301,-2.8301,-4.4312,-4.4406,-4.5235,-4.5084,-4.441,-4.5537,-4.6027,-4.5997,-4.5498,-4.4394,-4.2861,-4.0688,-4.0178,-4.0821,-3.9488,-3.9626,-4.0865,-4.0095,-3.9957,-4.0418,-4.0546,-4.0195,-3.9395,-3.941,-3.8797,-3.7574,-3.6757,-3.6034,-3.5521,-3.4799,-3.4397,-3.4397,-3.4397,-3.4397,-3.4413,-3.4566,-3.4513,-3.4343,-3.3937,-3.3598,-3.3386,-3.2129,-3.1188,-3.0608,-2.9477,-2.8599,-2.8034,-2.7996,-2.7532,-2.6575,-2.6487,-2.5536,-2.3547,-2.3283,-2.2719,0.0,-2.1518,0.0,0.0,0.0,0.0,0.0,0.0,0.0,0.0,-2.2135,-2.2776,-2.276,-2.3795,-2.4542,-2.4671,-2.5081,-2.5077,-2.4465,-2.4342,-2.4296,-2.4294,-2.439,-2.4733,-2.5421,-2.5553,-2.5599,-2.5654,-2.5684,-2.5684,-2.5684,-2.5684,-2.5684,-2.5713,-2.6025,-2.625,-2.6309,-2.666,-2.6992,-2.7412,-2.7314,-2.7412,-2.8066,-2.8018,-2.7871,-2.8223,-2.8301,-2.8301,-2.8301,-2.8301,-2.8301,-2.8301,-2.8301,-2.8301,-2.8291,-2.8344,-2.8344,-2.8301,-2.8301,-2.8301,-4.4312,-4.4312,-4.4499,-4.4499,-4.4345,-4.4557,-4.4652,-4.4701,-4.4834,-4.418,-4.289,-4.1171,-4.0506,-4.0633,-4.0351,-4.0407,-4.0689,-4.0506,-4.0048,-3.9492,-4.0246,-3.9741,-3.8312,-3.8512,-3.7847,-3.6446,-3.5825,-3.5226,-3.4634,-3.4468,-3.4397,-3.4397,-3.4397,-3.4397,-3.4397,0.0,0.0,0.0,-3.3839,-3.3598,-3.336,-3.2307,-3.135,-3.062,-2.9528,0.0,-2.7507,-2.7444,-2.7178,-2.6537,-2.6487,0.0,0.0,0.0,0.0,0.0,0.0,0.0,0.0,0.0,0.0,0.0,-2.4556,-2.4293,-2.3514,-2.4557,-2.4636,-2.3144,-2.4384,-2.513,-2.4736,-2.4609,-2.462,-2.4854,-2.4648,-2.4541,-2.475,-2.538,-2.5776,-2.5511,-2.5763,-2.5915,-2.5713,-2.5684,-2.5684,-2.5684,-2.5684,-2.5684,-2.5684,-2.5771,-2.582,-2.584,-2.624,-2.665,-2.707,-2.7334,-2.7588,-2.8144,-2.8252,-2.8184,-2.8223,-2.8262,-2.8281,-2.8262,-2.8301,-2.8281,-2.8281,-2.8301,-2.8301,-2.8301,-2.8301,-2.8301,-2.8301,-2.8301,-2.8301,-4.2819,0.0,-4.3355,-4.3273,0.0,-4.3368,-4.3286,-4.2875,-4.3698,-4.3085,-4.1473,-4.0241,-3.9748,-3.9855,-3.9458,-3.9502,-3.9899,-3.9458,-3.9029,-3.8594,-3.9029,-3.8787,-3.7887,-3.8071,-3.7608,-3.6528,-3.5979,-3.5404,-3.4842,-3.4541,-3.4397,-3.4397,-3.4397,-3.4356,-3.423,-3.4021,-3.3894,-3.3894,-3.3683,-3.3526,-3.3348,-3.2225,-3.1269,-3.0595,0.0,0.0,0.0,0.0,0.0,0.0,0.0,0.0,0.0,0.0,0.0,-2.4381,-2.4387,-2.4343,-2.4368,-2.4883,-2.5423,-2.6,-2.6369,-2.6158,-2.5068,-2.5599,-2.5421,-2.4163,-2.4765,-2.5068,-2.4661,-2.4675,-2.484,-2.5084,-2.514,-2.5334,-2.5708,-2.6115,-2.6298,-2.6039,-2.6154,-2.6159,-2.5732,-2.5684,-2.5684,-2.5684,-2.5684,-2.5684,-2.5684,-2.5684,-2.5684,-2.5684,-2.5849,-2.6221,-2.6621,-2.6865,-2.7187,-2.7549,-2.7666,-2.7666,-2.7666,-2.7656,-2.7656,-2.7676,-2.7822,-2.7988,-2.8008,-2.8144,-2.8301,-2.8301,-2.8301,-2.8301,-2.8301,-2.8301,-2.8301,-4.1311,-4.1361,-4.2186,-4.2052,-4.1361,-4.2186,-4.2052,-4.1358,0.0,0.0,0.0,-3.921,-3.8886,-3.9074,-3.8279,-3.8317,-3.8926,-3.8239,-3.79,-3.79,-3.79,-3.79,-3.79,-3.79,-3.7586,-3.6998,-3.6384,-3.5809,-3.5299,-3.4685,-3.4397,-3.4397,-3.4397,-3.4327,-3.4063,-3.3852,-3.3683,-3.3641,-3.3513,-3.3441,-3.3373,-3.2129,-3.1188,-3.0633,-2.9076,-2.7946,-2.7341,-2.6977,-2.649,-2.5937,-2.5988,-2.5799,-2.531,-2.5661,-2.6097,-2.6487,-2.7014,-2.7329,-2.7329,-2.7469,-2.7548,-2.7527,-2.7486,-2.7073,-2.6109,-2.6009,-2.5674,-2.4981,-2.4999,-2.4933,-2.4666,-2.5024,-2.5347,-2.5357,-2.574,-2.62,-2.6553,-2.6708,-2.667,-2.6617,-2.6582,-2.6352,-2.5878,-2.5781,-2.5732,-2.5684,-2.5684,-2.5684,-2.5684,-2.5684,-2.5684,-2.5693,-2.5732,-2.5859,-2.6269,-2.6416,-2.6553,-2.7002,-2.706,-2.7012,-2.7012,-2.7012,-2.7012,-2.708,-2.7324,-2.751,-2.763,-2.7871,-2.8164,-2.8184,-2.8242,-2.8301,-2.8301,-2.8301,-2.8301,-4.1311,-4.1311,-4.1448,-4.1398,-4.1324,-4.1461,-4.1461,-4.1272,-4.0952,-4.1114,-4.1504,-3.954,-3.8705,-3.874,-3.8155,-3.7992,-3.807,-3.7959,-3.79,-3.79,-3.79,-3.79,-3.79,-3.79,-3.7586,-3.6985,-3.6384,-3.5822,-3.5286,-3.4698,-3.4397,-3.4397,-3.4397,-3.4327,-3.4076,-3.3852,-3.3641,-3.3441,-3.3586,-3.3556,-3.3373,-3.2307,-3.139,-3.0608,-2.9414,-2.8323,-2.7366,-2.7657,-2.762,-2.7105,-2.7494,-2.7507,-2.6979,-2.7005,-2.6866,-2.6562,-2.7014,-2.7329,-2.7354,-2.816,-2.8586,-2.8324,-2.7611,-2.6904,-2.6306,-2.6015,-2.5476,-2.4702,-2.4951,-2.5134,-2.5117,-2.5533,-2.5792,-2.5823,-2.6196,-2.6553,-2.6635,-2.6967,-2.7074,-2.6832,-2.6853,-2.6651,-2.6159,-2.6052,-2.5965,-2.5771,-2.5732,-2.5684,-2.5684,-2.5684,-2.5684,-2.5684,-2.5684,-2.5869,-2.623,-2.6387,-2.6514,-2.6953,-2.6963,-2.6904,-2.6904,-2.6904,-2.6904,-2.6982,-2.7041,-2.71,-2.7119,-2.7451,-2.7725,-2.7803,-2.8037,-2.8252,-2.8271,-2.8301,-2.8301,-4.1311,-4.1311,-4.1311,-4.1311,-4.1311,-4.1311,-4.1311,-4.1298,-4.1023,-4.0956,-4.0975,-4.004,-3.9298,-3.871,-3.8462,-3.8174,-3.79,-3.79,-3.79,-3.79,-3.79,-3.79,-3.79,-3.79,-3.7769,-3.7456,-3.6881,-3.6292,-3.573,-3.5155,-3.4724,-3.4424,-3.4285,-3.4105,-3.3882,-3.3641,-3.3428,-3.324,-3.3326,-3.3313,-3.3227,-3.2432,-3.171,-3.1047,-2.9967,-2.9026,-2.821,-2.8134,-2.7996,-2.7733,-2.7971,-2.7996,-2.7758,-2.8009,-2.8072,-2.7833,-2.8335,-2.8649,-2.8637,-2.8892,-2.9123,-2.9268,-2.7977,-2.703,-2.6819,-2.6414,-2.5905,-2.5321,-2.5471,-2.5585,-2.5595,-2.5989,-2.6293,-2.6304,-2.6708,-2.6978,-2.6998,-2.7154,-2.7167,-2.6938,-2.689,-2.6747,-2.6352,-2.6197,-2.6052,-2.5917,-2.583,-2.5684,-2.5684,-2.5684,-2.5684,-2.5684,-2.5684,-2.5752,-2.6006,-2.6035,-2.6123,-2.6259,-2.6269,-2.6269,-2.6269,-2.6278,-2.6288,-2.6298,-2.6504,-2.666,-2.668,-2.7021,-2.7344,-2.7708,-2.7845,-2.7998,-2.8203,-2.8301,-2.8301,-4.1311,-4.1311,-4.1311,-4.1311,-4.1311,-4.1311,-4.1311,-4.1311,-4.1311,-4.105,-4.0644,-4.0488,-3.986,-3.8958,-3.8762,-3.841,-3.7952,-3.79,-3.79,-3.79,-3.79,-3.79,-3.79,-3.79,-3.79,-3.7821,-3.7299,-3.6763,-3.6279,-3.5626,-3.4986,-3.4463,-3.4202,-3.3992,-3.3797,-3.3513,-3.3326,-3.3154,-3.3111,-3.3124,-3.3099,-3.2516,-3.1951,-3.1373,-3.047,-2.9716,-2.9101,-2.8712,-2.8486,-2.8486,-2.8486,-2.8486,-2.8511,-2.8888,-2.9114,-2.9139,-2.9666,-2.9952,-2.9801,-2.9318,-2.9124,-2.9315,-2.7842,-2.6972,-2.7002,-2.6756,-2.6363,-2.5969,-2.6003,-2.603,-2.6138,-2.649,-2.677,-2.6801,-2.7081,-2.7278,-2.7309,-2.732,-2.7214,-2.7034,-2.6996,-2.689,-2.6602,-2.6352,-2.6149,-2.6014,-2.583,-2.5684,-2.5684,-2.5684,-2.5684,-2.5684,-2.5684,-2.5693,-2.5684,-2.5693,-2.5713,-2.5684,-2.5713,-2.5762,-2.5752,-2.5713,-2.5693,-2.5781,-2.6025,-2.6211,-2.6269,-2.6582,-2.6953,-2.7246,-2.7542,-2.7875,-2.8203,-2.8291,-2.8301,-4.1311,-4.1311,-4.1311,-4.1311,-4.1311,-4.1311,-4.1311,-4.1311,-4.1311,-4.1298,-4.1154,-4.0657,-4.0095,-3.9507,-3.8972,-3.8449,-3.7939,-3.79,-3.79,-3.79,-3.79,-3.79,-3.79,-3.79,-3.79,-3.7835,-3.7312,-3.6998,-3.6815,-3.5822,-3.4999,-3.4463,-3.4202,-3.4089,-3.3992,-3.3611,-3.3398,-3.3356,-3.3197,-3.3124,-3.3086,-3.2503,-3.1951,-3.1399,-3.0859,-3.0281,-2.9729,-2.9654,-2.9628,-2.9628,-2.9591,-2.9616,-2.9628,-2.9691,-2.9716,-2.9741,-3.0231,-3.0372,-3.0011,-2.9202,-2.8436,-2.7481,-2.6715,-2.6274,-2.6639,-2.6639,-2.6395,-2.6138,-2.6335,-2.6496,-2.6573,-2.6957,-2.7195,-2.7185,-2.7268,-2.732,-2.732,-2.732,-2.7262,-2.7262,-2.7225,-2.7167,-2.689,-2.6651,-2.6304,-2.5917,-2.5781,-2.5732,-2.5732,-2.5684,-2.5684,-2.5684,-2.5684,-2.5684,-2.5684,-2.5684,-2.5684,-2.5684,-2.5684,-2.5684,-2.5684,-2.5684,-2.5684,-2.5693,-2.5723,-2.5801,-2.5928,-2.6133,-2.6455,-2.6738,-2.7187,-2.7845,-2.8164,-2.8301,-2.8301,-4.1311,-4.1311,-4.1311,-4.1311,-4.1311,-4.1311,-4.1311,-4.1311,-4.1311,-4.1311,-4.1285,-4.105,-4.0631,-4.0069,-3.9494,-3.8932,-3.837,-3.8044,-3.79,-3.79,-3.79,-3.79,-3.79,-3.79,-3.79,-3.7887,-3.7639,-3.7351,-3.692,-3.6175,-3.5482,-3.4986,-3.4849,-3.451,-3.3891,-3.3683,-3.3484,-3.3227,-3.3154,-3.3124,-3.3099,-3.2898,-3.2453,-3.1926,-3.1675,-3.1148,-3.0382,-3.0281,-3.0131,-2.9829,-2.9779,-2.9779,-2.9792,-3.0093,-3.0281,-3.0306,-3.0783,-3.1148,-3.1284,-2.9914,-2.9041,-2.8936,-2.7586,-2.6832,-2.6998,-2.7029,-2.6926,-2.6812,-2.6915,-2.7019,-2.704,-2.7195,-2.732,-2.732,-2.732,-2.732,-2.732,-2.732,-2.732,-2.732,-2.732,-2.7262,-2.7119,-2.689,-2.6602,-2.6217,-2.6062,-2.5917,-2.5917,-2.583,-2.5684,-2.5684,-2.5684,-2.5684,-2.5684,-2.5684,-2.5684,-2.5684,-2.5684,-2.5684,-2.5684,-2.5684,-2.5684,-2.5684,-2.5684,-2.5684,-2.5703,-2.585,-2.6064,-2.6387,-2.7051,-2.7836,-2.8203,-2.8291,-2.8301,-4.1311,-4.1311,-4.1311,-4.1311,-4.1311,-4.1311,-4.1311,-4.1311,-4.1311,-4.1311,-4.1311,-4.1311,-4.1076,-4.0618,-4.0082,-3.9429,-3.8723,-3.8305,-3.8031,-3.7913,-3.79,-3.79,-3.79,-3.79,-3.79,-3.79,-3.7887,-3.7586,-3.7011,-3.6593,-3.607,-3.5587,-3.5279,-3.4808,-3.408,-3.387,-3.3513,-3.324,-3.321,-3.3167,-3.3111,-3.3124,-3.2805,-3.2277,-3.2202,-3.1775,-3.0884,-3.0834,-3.0583,-3.0068,-3.0156,-3.0168,-3.0043,-3.0532,-3.0896,-3.106,-3.1399,-3.1726,-3.201,-3.0489,-2.9622,-2.9659,-2.8222,-2.732,-2.732,-2.732,-2.732,-2.7289,-2.732,-2.7299,-2.732,-2.732,-2.732,-2.732,-2.732,-2.732,-2.732,-2.732,-2.732,-2.732,-2.732,-2.7262,-2.7177,-2.6986,-2.6757,-2.6506,-2.6304,-2.6149,-2.61,-2.5917,-2.583,-2.5732,-2.5684,-2.5684,-2.5684,-2.5684,-2.5684,-2.5684,-2.5684,-2.5684,-2.5684,-2.5684,-2.5684,-2.5684,-2.5684,-2.5684,-2.5684,-2.5723,-2.584,-2.6367,-2.6973,-2.7607,-2.8031,-2.8154,-2.8281,-4.1311,-4.1311,-4.1311,-4.1311,-4.1311,-4.1311,-4.1311,-4.1311,-4.1311,-4.1311,-4.1311,-4.1311,-4.1298,-4.1206,-4.0631,-3.9769,-3.8828,-3.8671,-3.8357,-3.7939,-3.79,-3.79,-3.79,-3.79,-3.79,-3.79,-3.79,-3.7612,-3.7063,-3.6985,-3.6658,-3.6083,-3.5397,-3.4956,-3.4689,-3.4093,-3.3598,-3.3411,-3.3356,-3.3283,-3.3124,-3.3124,-3.2817,-3.2315,-3.2227,-3.1976,-3.1436,-3.1361,-3.111,-3.0595,-3.0997,-3.1072,-3.0683,-3.1072,-3.1587,-3.2051,-3.2152,-3.2022,-3.1644,-3.0763,-2.9852,-2.8945,-2.8034,-2.7309,-2.732,-2.732,-2.732,-2.732,-2.732,-2.732,-2.732,-2.732,-2.732,-2.732,-2.732,-2.732,-2.732,-2.732,-2.732,-2.732,-2.732,-2.7225,-2.6996,-2.689,-2.6794,-2.664,-2.6496,-2.64,-2.6149,-2.61,-2.5917,-2.5781,-2.5684,-2.5684,-2.5684,-2.5684,-2.5684,-2.5684,-2.5684,-2.5684,-2.5684,-2.5684,-2.5684,-2.5684,-2.5684,-2.5684,-2.5684,-2.5771,-2.5918,-2.6318,-2.6748,-2.7266,-2.7816,-2.8129,-2.8232,-4.1311,-4.1311,-4.1311,-4.1311,-4.1311,-4.1311,-4.1311,-4.1311,-4.1311,-4.1311,-4.1311,-4.1311,-4.1311,-4.1311,-4.1089,-4.037,-3.9298,-3.8893,-3.8423,-3.7939,-3.79,-3.79,-3.79,-3.79,-3.79,-3.79,-3.79,-3.7795,-3.7612,-3.7586,-3.7273,-3.6718,-3.6196,-3.568,-3.4934,-3.4521,-3.4067,-3.3637,-3.3484,-3.3356,-3.3283,-3.3167,-3.3011,-3.278,-3.2767,-3.2503,-3.1938,-3.1913,-3.1662,-3.1135,-3.1298,-3.1311,-3.1185,-3.1612,-3.2164,-3.2679,-3.2767,-3.2727,-3.2457,-3.1625,-3.0666,-2.9726,-2.876,-2.7904,-2.7452,-2.732,-2.732,-2.732,-2.732,-2.732,-2.732,-2.732,-2.732,-2.732,-2.732,-2.732,-2.732,-2.732,-2.732,-2.732,-2.732,-2.7262,-2.7177,-2.7129,-2.7129,-2.6976,-2.6736,-2.6496,-2.6352,-2.611,-2.5868,-2.5732,-2.5684,-2.5684,-2.5684,-2.5684,-2.5684,-2.5684,-2.5684,-2.5684,-2.5684,-2.5684,-2.5684,-2.5684,-2.5684,-2.5684,-2.5684,-2.5703,-2.5879,-2.624,-2.667,-2.7129,-2.763,-2.7969,-2.8193,-4.1311,-4.1311,-4.1311,-4.1311,-4.1311,-4.1311,-4.1311,-4.1311,-4.1311,-4.1311,-4.1311,-4.1311,-4.1311,-4.1311,-4.1311,-4.0814,-3.9899,-3.9429,-3.888,-3.8214,-3.8161,-3.807,-3.7926,-3.79,-3.79,-3.79,-3.79,-3.79,-3.79,-3.7808,-3.7541,-3.7163,-3.6742,-3.6129,-3.5432,-3.5056,-3.4528,-3.3981,-3.3738,-3.3546,-3.3308,-3.3154,-3.3124,-3.3124,-3.3124,-3.2905,-3.2491,-3.2491,-3.2227,-3.1763,-3.1825,-3.1926,-3.1976,-3.229,-3.2667,-3.3061,-3.3124,-3.3124,-3.2995,-3.2164,-3.1303,-3.0678,-2.9452,-2.8409,-2.7809,-2.7489,-2.7309,-2.732,-2.732,-2.732,-2.732,-2.732,-2.732,-2.732,-2.732,-2.732,-2.732,-2.732,-2.732,-2.732,-2.732,-2.732,-2.732,-2.732,-2.732,-2.732,-2.6976,-2.6736,-2.6602,-2.6362,-2.5975,-2.5878,-2.582,-2.5771,-2.5732,-2.5684,-2.5684,-2.5684,-2.5684,-2.5684,-2.5684,-2.5684,-2.5684,-2.5684,-2.5684,-2.5684,-2.5684,-2.5684,-2.5859,-2.6182,-2.6631,-2.71,-2.751,-2.791,-2.8125,-4.1311,-4.1311,-4.1311,-4.1311,-4.1311,-4.1311,-4.1311,-4.1311,-4.1311,-4.1311,-4.1311,-4.1311,-4.1311,-4.1311,-4.1311,-4.0971,-4.0501,-4.0344,-3.9743,-3.8789,-3.8671,-3.8397,-3.7991,-3.7926,-3.79,-3.79,-3.79,-3.79,-3.79,-3.7657,-3.7513,-3.733,-3.6708,-3.6334,-3.627,-3.5616,-3.4984,-3.4437,-3.4235,-3.392,-3.3224,-3.3224,-3.3212,-3.3174,-3.3149,-3.3099,-3.3086,-3.3031,-3.2754,-3.2365,-3.2704,-3.3086,-3.2973,-3.3036,-3.3099,-3.3111,-3.3124,-3.3124,-3.2982,-3.2208,-3.1769,-3.127,-2.9863,-2.8945,-2.8667,-2.7951,-2.7452,-2.7499,-2.7357,-2.732,-2.732,-2.732,-2.732,-2.732,-2.732,-2.732,-2.732,-2.732,-2.732,-2.732,-2.732,-2.732,-2.732,-2.732,-2.732,-2.7309,-2.7214,-2.7071,-2.6842,-2.6709,-2.6602,-2.6245,-2.6052,-2.5955,-2.582,-2.5684,-2.5684,-2.5684,-2.5684,-2.5684,-2.5684,-2.5684,-2.5684,-2.5684,-2.5684,-2.5684,-2.5684,-2.5684,-2.5684,-2.5966,-2.6523,-2.6963,-2.7305,-2.7656,-2.8076,-4.1311,-4.1311,-4.1311,-4.1311,-4.1311,-4.1311,-4.1311,-4.1311,-4.1311,-4.1311,-4.1311,-4.1311,-4.1311,-4.1311,-4.1311,-4.1206,-4.1036,-4.0997,-4.0422,-3.9429,-3.8919,-3.8645,-3.841,-3.807,-3.79,-3.79,-3.79,-3.79,-3.7854,-3.7611,-3.7505,-3.7407,-3.6882,-3.6496,-3.6314,-3.5914,-3.548,-3.5073,-3.4908,-3.4686,-3.4407,-3.3922,-3.3646,-3.3608,-3.3282,-3.3124,-3.3124,-3.3124,-3.298,-3.2805,-3.3023,-3.3124,-3.3124,-3.3124,-3.3124,-3.3124,-3.3124,-3.3124,-3.3081,-3.2797,-3.2264,-3.1681,-3.0991,-3.0396,-2.9715,-2.8817,-2.8269,-2.8175,-2.7715,-2.732,-2.732,-2.732,-2.732,-2.732,-2.732,-2.732,-2.732,-2.732,-2.732,-2.732,-2.732,-2.732,-2.732,-2.732,-2.732,-2.7272,-2.7167,-2.6986,-2.69,-2.6794,-2.6602,-2.639,-2.6245,-2.6042,-2.5907,-2.5781,-2.5732,-2.5732,-2.5684,-2.5684,-2.5684,-2.5684,-2.5684,-2.5684,-2.5684,-2.5684,-2.5684,-2.5684,-2.5684,-2.582,-2.6309,-2.667,-2.6982,-2.7441,-2.7978,-4.1311,-4.1311,-4.1311,-4.1311,-4.1311,-4.1311,-4.1311,-4.1311,-4.1311,-4.1311,-4.1311,-4.1311,-4.1311,-4.1311,-4.1311,-4.1311,-4.1311,-4.1311,-4.0932,-4.0226,-3.9625,-3.9155,-3.871,-3.8161,-3.79,-3.79,-3.79,-3.79,-3.79,-3.7657,-3.7459,-3.7261,-3.6922,-3.6569,-3.6332,-3.6155,-3.5915,-3.5479,-3.5312,-3.5178,-3.4881,-3.4431,-3.4211,-3.4123,-3.3671,-3.3395,-3.337,-3.3237,-3.3124,-3.3124,-3.3124,-3.3124,-3.3124,-3.3124,-3.3124,-3.3124,-3.3124,-3.3124,-3.3124,-3.3081,-3.2896,-3.222,-3.1813,-3.1359,-3.0576,-2.9589,-2.8724,-2.8585,-2.7857,-2.732,-2.732,-2.732,-2.732,-2.732,-2.732,-2.732,-2.732,-2.732,-2.732,-2.732,-2.732,-2.732,-2.732,-2.732,-2.732,-2.7262,-2.7167,-2.7034,-2.7034,-2.6938,-2.6736,-2.664,-2.6496,-2.6255,-2.5965,-2.5868,-2.583,-2.5781,-2.5684,-2.5684,-2.5684,-2.5684,-2.5684,-2.5684,-2.5684,-2.5684,-2.5684,-2.5684,-2.5703,-2.5967,-2.6201,-2.666,-2.7119,-2.7627,-2.8105,-4.1311,-4.1311,-4.1311,-4.1311,-4.1311,-4.1311,-4.1311,-4.1311,-4.1311,-4.1311,-4.1311,-4.1311,-4.1311,-4.1311,-4.1311,-4.1311,-4.1311,-4.1311,-4.1285,-4.105,-4.0592,-3.9847,-3.8762,-3.8253,-3.8018,-3.79,-3.79,-3.79,-3.7854,-3.7611,-3.7353,-3.7168,-3.6862,-3.6628,-3.6458,-3.638,-3.6116,-3.5701,-3.5592,-3.5353,-3.4939,-3.4743,-3.4731,-3.468,-3.4236,-3.3947,-3.3884,-3.3483,-3.3199,-3.3136,-3.3124,-3.3124,-3.3124,-3.3124,-3.3124,-3.3124,-3.3124,-3.3124,-3.3124,-3.3124,-3.3068,-3.2896,-3.2264,-3.1681,-3.1504,-3.026,-2.913,-2.8945,-2.8081,-2.7452,-2.7357,-2.7441,-2.7499,-2.7394,-2.7404,-2.732,-2.732,-2.732,-2.732,-2.732,-2.732,-2.732,-2.732,-2.732,-2.732,-2.7309,-2.7251,-2.7262,-2.7272,-2.7119,-2.7023,-2.688,-2.6784,-2.6554,-2.6314,-2.6004,-2.5965,-2.5868,-2.5781,-2.5742,-2.5684,-2.5684,-2.5684,-2.5684,-2.5684,-2.5684,-2.5684,-2.5684,-2.5771,-2.6006,-2.6357,-2.6826,-2.7285,-2.7764,-2.8066,-4.1311,-4.1311,-4.1311,-4.1311,-4.1311,-4.1311,-4.1311,-4.1311,-4.1311,-4.1311,-4.1311,-4.1311,-4.1311,-4.1311,-4.1311,-4.1311,-4.1311,-4.1311,-4.1311,-4.1285,-4.113,-4.0161,-3.8972,-3.8566,-3.8279,-3.7978,-3.7913,-3.79,-3.7854,-3.7657,-3.7459,-3.7353,-3.6909,-3.6675,-3.6628,-3.6499,-3.6355,-3.6169,-3.6144,-3.6069,-3.5868,-3.5491,-3.5295,-3.5232,-3.4801,-3.4525,-3.4462,-3.3985,-3.347,-3.3162,-3.3124,-3.3124,-3.3124,-3.3124,-3.3124,-3.3124,-3.3124,-3.3124,-3.3124,-3.3124,-3.3124,-3.3068,-3.281,-3.2711,-3.2667,-3.1581,-3.0588,-2.9897,-2.8956,-2.8092,-2.7631,-2.7951,-2.8269,-2.8222,-2.7715,-2.7357,-2.732,-2.732,-2.732,-2.732,-2.732,-2.732,-2.732,-2.732,-2.732,-2.732,-2.732,-2.732,-2.732,-2.7309,-2.7119,-2.7119,-2.7034,-2.6842,-2.6602,-2.6294,-2.61,-2.6004,-2.5927,-2.581,-2.5742,-2.5684,-2.5684,-2.5684,-2.5684,-2.5684,-2.5684,-2.5684,-2.584,-2.6045,-2.6377,-2.6787,-2.7295,-2.7826,-2.7988,-4.1311,-4.1311,-4.1311,-4.1311,-4.1311,-4.1311,-4.1311,-4.1311,-4.1311,-4.1311,-4.1311,-4.1311,-4.1311,-4.1311,-4.1311,-4.1311,-4.1311,-4.1311,-4.1311,-4.1311,-4.1298,-4.0579,-3.9573,-3.9037,-3.854,-3.8253,-3.8004,-3.79,-3.79,-3.7749,-3.7598,-3.7446,-3.7062,-3.6862,-3.6875,-3.6546,-3.6452,-3.6487,-3.6452,-3.6417,-3.6367,-3.6056,-3.5918,-3.578,-3.5353,-3.4944,-3.468,-3.4399,-3.3985,-3.352,-3.3275,-3.3124,-3.3124,-3.3124,-3.3124,-3.3124,-3.3124,-3.3124,-3.3124,-3.3124,-3.3124,-3.3124,-3.3124,-3.3124,-3.2896,-3.2176,-3.1258,-3.08,-2.9852,-2.9165,-2.876,-2.9037,-2.8852,-2.8175,-2.794,-2.7678,-2.7357,-2.732,-2.732,-2.732,-2.732,-2.732,-2.732,-2.732,-2.732,-2.732,-2.732,-2.732,-2.732,-2.732,-2.7262,-2.7177,-2.7272,-2.7235,-2.7075,-2.6777,-2.6942,-2.6835,-2.6972,-2.6709,-2.6064,-2.5986,-2.5801,-2.5801,-2.5762,-2.5713,-2.5781,-2.583,-2.5937,-2.6143,-2.6416,-2.6855,-2.7412,-2.7832,-2.8037,-4.1311,-4.1311,-4.1311,-4.1311,-4.1311,-4.1311,-4.1311,-4.1311,-4.1311,-4.1311,-4.1311,-4.1311,-4.1311,-4.1311,-4.1311,-4.1311,-4.1311,-4.1311,-4.1311,-4.1311,-4.1285,-4.0932,-4.0396,-3.9351,-3.8841,-3.8579,-3.8148,-3.7893,-3.7854,-3.7854,-3.7749,-3.7505,-3.7214,-3.7108,-3.6968,-3.664,-3.6546,-3.6593,-3.6452,-3.6405,-3.6417,-3.6342,-3.6304,-3.6182,-3.5893,-3.5454,-3.5115,-3.4839,-3.4587,-3.411,-3.3495,-3.33,-3.3237,-3.3212,-3.3124,-3.3124,-3.3124,-3.3124,-3.3149,-3.3156,-3.325,-3.3287,-3.3338,-3.3287,-3.3239,-3.2707,-3.2152,-3.1851,-3.0929,-3.0443,-3.0215,-3.026,-2.9554,-2.8564,-2.8564,-2.8271,-2.7688,-2.7372,-2.732,-2.732,-2.732,-2.732,-2.732,-2.7351,-2.7392,-2.7541,-2.7589,-2.7683,-2.7765,-2.7883,-2.755,-2.7092,-2.733,-2.7615,-2.7467,-2.7318,-2.7676,-2.7921,-2.8345,-2.8119,-2.689,-2.6506,-2.6163,-2.6006,-2.6182,-2.6161,-2.6064,-2.6083,-2.6231,-2.6494,-2.6943,-2.7285,-2.7708,-2.7978,-2.8223,-4.1311,-4.1311,-4.1311,-4.1311,-4.1311,-4.1311,-4.1311,-4.1311,-4.1311,-4.1311,-4.1311,-4.1311,-4.1311,-4.1311,-4.1311,-4.1311,-4.1311,-4.1311,-4.1311,-4.1311,-4.1311,-4.1272,-4.088,-3.9939,-3.9207,-3.8776,-3.8187,-3.7834,-3.7729,-3.7788,-3.7762,-3.7505,-3.7214,-3.7108,-3.7015,-3.664,-3.6405,-3.6452,-3.6405,-3.6405,-3.6417,-3.6417,-3.6417,-3.6392,-3.6267,-3.6191,-3.5943,-3.5592,-3.5282,-3.4944,-3.4286,-3.3721,-3.3658,-3.337,-3.3219,-3.325,-3.3199,-3.3131,-3.3212,-3.3508,-3.3721,-3.3759,-3.4035,-3.4374,-3.4374,-3.412,-3.3568,-3.3053,-3.233,-3.1812,-3.1359,-3.0611,-3.0274,-2.9969,-2.9623,-2.9196,-2.8443,-2.7745,-2.7444,-2.7382,-2.7382,-2.733,-2.7419,-2.78,-2.7835,-2.7859,-2.8022,-2.8118,-2.8275,-2.8498,-2.8285,-2.7883,-2.8279,-2.8721,-2.8672,-2.8623,-2.8951,-2.9289,-2.9651,-2.9671,-2.8455,-2.7793,-2.7693,-2.7232,-2.6768,-2.673,-2.6754,-2.6762,-2.6951,-2.7243,-2.7567,-2.7897,-2.8196,-2.8386,-2.8495,-4.1311,-4.1311,-4.1311,-4.1311,-4.1311,-4.1311,-4.1311,-4.1311,-4.1311,-4.1311,-4.1311,-4.1311,-4.1311,-4.1311,-4.1311,-4.1311,-4.1311,-4.1311,-4.1311,-4.1311,-4.1311,-4.1311,-4.1167,-4.0501,-3.9769,-3.939,-3.8658,-3.8179,-3.7994,-3.774,-3.7551,-3.7307,-3.7062,-3.7015,-3.7015,-3.664,-3.6487,-3.6487,-3.6452,-3.6417,-3.6417,-3.6417,-3.6417,-3.6417,-3.6417,-3.6417,-3.6342,-3.6094,-3.5956,-3.5667,-3.4901,-3.4286,-3.4274,-3.401,-3.3859,-3.3847,-3.3847,-3.3847,-3.396,-3.4098,-3.4286,-3.4286,-3.4575,-3.4618,-3.468,-3.468,-3.4487,-3.4049,-3.3633,-3.3191,-3.2542,-3.2608,-3.2162,-3.1344,-3.1272,-3.0889,-3.0099,-2.8837,-2.7893,-2.7893,-2.7945,-2.8313,-2.8522,-2.8822,-2.8934,-2.9203,-2.995,-3.006,-2.9138,-2.9303,-2.9495,-2.9389,-2.9726,-2.9954,-2.9938,-3.0066,-3.037,-3.0708,-3.1028,-3.0921,-3.0278,-2.9856,-2.9595,-2.8809,-2.7975,-2.7764,-2.7763,-2.7763,-2.7944,-2.8299,-2.8592,-2.8699,-2.89,-2.9199,-2.9313,-4.1311,-4.1311,-4.1311,-4.1311,-4.1311,-4.1311,-4.1311,-4.1311,-4.1311,-4.1311,-4.1311,-4.1311,-4.1311,-4.1311,-4.1311,-4.1311,-4.1311,-4.1311,-4.1311,-4.1311,-4.1311,-4.1311,-4.1167,-4.0827,-4.0527,-4.0409,-3.9233,-3.8582,-3.8152,-3.7782,-3.7366,-3.7062,-3.6815,-3.6815,-3.6875,-3.664,-3.6439,-3.6534,-3.6452,-3.6417,-3.6417,-3.6417,-3.6417,-3.6417,-3.6417,-3.6417,-3.6417,-3.6367,-3.638,-3.6355,-3.5454,-3.5064,-3.4914,-3.4605,-3.4555,-3.4537,-3.4487,-3.4492,-3.4505,-3.4726,-3.4851,-3.4806,-3.4989,-3.5014,-3.5052,-3.5127,-3.5094,-3.5006,-3.4744,-3.433,-3.3686,-3.3859,-3.3521,-3.2759,-3.2935,-3.2877,-3.1988,-3.0302,-2.9689,-2.9225,-2.9429,-2.9752,-3.0125,-3.044,-3.0506,-3.067,-3.1488,-3.1649,-3.0717,-3.0296,-3.0593,-3.0709,-3.099,-3.1996,-3.219,-3.2254,-3.2474,-3.2304,-3.2595,-3.2249,-3.1973,-3.1567,-3.1042,-2.9935,-2.9241,-2.9168,-2.9189,-2.9366,-2.9513,-2.9607,-2.9743,-2.9921,-3.0068,-3.0162,-3.0182,-4.1311,-4.1311,-4.1311,-4.1311,-4.1311,-4.1311,-4.1311,-4.1311,-4.1311,-4.1311,-4.1311,-4.1311,-4.1311,-4.1311,-4.1311,-4.1311,-4.1311,-4.1311,-4.1311,-4.1311,-4.1311,-4.1311,-4.1259,-4.1167,-4.1102,-4.071,-3.9629,-3.8657,-3.8192,-3.7676,-3.7278,-3.6875,-3.6709,-3.6709,-3.6675,-3.6546,-3.6405,-3.6499,-3.6452,-3.6417,-3.6417,-3.6417,-3.6417,-3.6417,-3.6417,-3.6417,-3.6417,-3.6417,-3.6417,-3.6392,-3.6229,-3.6091,-3.5705,-3.4801,-3.4324,-3.4399,-3.47,-3.4939,-3.4939,-3.5157,-3.532,-3.5458,-3.5717,-3.6028,-3.6065,-3.6065,-3.594,-3.5855,-3.5579,-3.5103,-3.4582,-3.4785,-3.4453,-3.3893,-3.3779,-3.3756,-3.3182,-3.2617,-3.201,-3.1584,-3.1451,-3.1309,-3.1706,-3.2022,-3.2102,-3.2314,-3.2903,-3.2756,-3.1839,-3.1727,-3.1971,-3.2086,-3.2147,-3.3477,-3.4677,-3.4797,-3.4833,-3.4318,-3.4186,-3.3664,-3.338,-3.3093,-3.2402,-3.1534,-3.1022,-3.0958,-3.099,-3.0979,-3.1012,-3.1016,-3.1113,-3.12,-3.1254,-3.1308,-3.1319,-4.1311,-4.1311,-4.1311,-4.1311,-4.1311,-4.1311,-4.1311,-4.1311,-4.1311,-4.1311,-4.1311,-4.1311,-4.1311,-4.1311,-4.1311,-4.1311,-4.1311,-4.1311,-4.1311,-4.1311,-4.1311,-4.1311,-4.1261,-4.1261,-4.1311,-4.0961,-3.9966,-3.9188,-3.8759,-3.7741,-3.7271,-3.6969,-3.671,-3.6546,-3.6546,-3.6452,-3.6417,-3.6417,-3.6417,-3.6417,-3.6417,-3.6417,-3.6417,-3.6417,-3.6417,-3.6417,-3.6417,-3.6417,-3.6417,-3.6355,-3.6069,-3.5981,-3.5717,-3.5366,-3.4864,-3.5115,-3.5378,-3.5542,-3.5554,-3.5855,-3.5956,-3.5981,-3.6279,-3.6392,-3.6417,-3.6367,-3.6417,-3.6342,-3.6219,-3.5881,-3.5642,-3.5529,-3.546,-3.5328,-3.5213,-3.5038,-3.4884,-3.4812,-3.4426,-3.3803,-3.3095,-3.2876,-3.3395,-3.3596,-3.3691,-3.3966,-3.4401,-3.3838,-3.296,-3.3112,-3.3429,-3.3381,-3.3441,-3.4074,-3.5307,-3.5631,-3.5854,-3.5616,-3.5306,-3.4787,-3.447,-3.3993,-3.3845,-3.347,-3.3078,-3.2488,-3.2392,-3.2247,-3.237,-3.2437,-3.2404,-3.2381,-3.2415,-3.2448,-3.2448,-4.1311,-4.1311,-4.1311,-4.1311,-4.1311,-4.1311,-4.1311,-4.1311,-4.1311,-4.1311,-4.1311,-4.1311,-4.1311,-4.1311,-4.1311,-4.1311,-4.1261,-4.1261,-4.1211,-4.1147,-4.111,-4.111,-4.111,-4.1211,-4.1198,-4.1056,-4.0348,-3.9906,-3.9336,-3.8213,-3.748,-3.7092,-3.6732,-3.648,-3.6443,-3.6405,-3.6417,-3.6417,-3.6417,-3.6417,-3.6417,-3.6417,-3.6417,-3.6417,-3.6417,-3.6417,-3.6417,-3.6417,-3.6417,-3.6317,-3.6044,-3.5768,-3.5671,-3.5658,-3.5906,-3.6317,-3.6405,-3.6417,-3.638,-3.6342,-3.6329,-3.6317,-3.6392,-3.6417,-3.6417,-3.6417,-3.6417,-3.6417,-3.638,-3.6355,-3.6254,-3.6355,-3.6307,-3.6307,-3.626,-3.6358,-3.6143,-3.6073,-3.5966,-3.5316,-3.4483,-3.4363,-3.4751,-3.4943,-3.4932,-3.4992,-3.5366,-3.5072,-3.4358,-3.4578,-3.4764,-3.467,-3.4694,-3.4815,-3.5332,-3.5662,-3.5787,-3.5697,-3.5498,-3.515,-3.4969,-3.4775,-3.4617,-3.4372,-3.4066,-3.3511,-3.356,-3.3499,-3.3511,-3.3511,-3.3511,-3.3499,-3.3511,-3.3511,-3.3511,-4.1311,-4.1311,-4.1311,-4.1311,-4.1311,-4.1311,-4.1311,-4.1311,-4.1311,-4.1311,-4.1311,-4.1311,-4.1311,-4.1311,-4.1311,-4.1311,-4.1211,-4.111,-4.0997,-4.0946,-4.0757,-4.0656,-4.0643,-4.0846,-4.0946,-4.0831,-4.0303,-3.9932,-3.9517,-3.8657,-3.7868,-3.7421,-3.7199,-3.6945,-3.6669,-3.6669,-3.6417,-3.6443,-3.643,-3.6417,-3.6417,-3.6417,-3.6417,-3.6417,-3.6417,-3.6417,-3.6417,-3.6417,-3.6417,-3.6405,-3.6355,-3.6304,-3.6304,-3.6317,-3.6317,-3.6392,-3.6417,-3.6417,-3.6417,-3.6417,-3.6417,-3.6417,-3.6417,-3.6417,-3.6417,-3.6417,-3.6417,-3.6417,-3.6417,-3.6417,-3.6417,-3.6417,-3.6417,-3.6417,-3.6417,-3.6417,-3.6417,-3.6417,-3.6417,-3.637,-3.5427,-3.5619,-3.5939,-3.6071,-3.6203,-3.6263,-3.62,-3.5818,-3.5631,-3.5662,-3.5658,-3.5529,-3.5466,-3.5542,-3.5617,-3.5897,-3.589,-3.5827,-3.5688,-3.5512,-3.5368,-3.5223,-3.4932,-3.4677,-3.447,-3.4421,-3.4262,-3.4311,-3.4519,-3.4421,-3.4213,-3.436,-3.4617,-3.4568,-3.4372,-4.1311,-4.1311,-4.1311,-4.1311,-4.1311,-4.1311,-4.1311,-4.1311,-4.1311,-4.1311,-4.1311,-4.1311,-4.1311,-4.1311,-4.1311,-4.1211,-4.1097,-4.0933,-4.0795,-4.0694,-4.0555,-4.0504,-4.0555,-4.0605,-4.0643,-4.0579,-4.0286,-4.007,-3.9625,-3.8978,-3.8211,-3.814,-3.7814,-3.7588,-3.7186,-3.7274,-3.7098,-3.6908,-3.6619,-3.643,-3.6417,-3.6417,-3.6417,-3.6417,-3.6417,-3.6417,-3.6417,-3.6417,-3.6417,-3.6417,-3.6417,-3.6417,-3.6405,-3.6405,-3.6405,-3.6405,-3.6417,-3.6417,-3.6417,-3.6417,-3.6417,-3.6417,-3.6417,-3.6417,-3.6417,-3.6417,-3.6417,-3.6417,-3.6417,-3.6417,-3.6417,-3.6417,-3.6417,-3.6417,-3.6417,-3.6417,-3.6417,-3.6417,-3.6417,-3.6417,-3.6417,-3.6417,-3.6417,-3.637,-3.637,-3.637,-3.637,-3.6185,-3.6085,-3.6132,-3.6094,-3.6044,-3.6019,-3.6056,-3.6141,-3.6257,-3.6207,-3.6141,-3.5916,-3.5764,-3.5668,-3.5524,-3.5235,-3.5078,-3.492,-3.4872,-3.4872,-3.4775,-3.4665,-3.4726,-3.4775,-3.4775,-3.4775,-3.4775,-3.4617,-4.1311,-4.1311,-4.1311,-4.1311,-4.1311,-4.1311,-4.1311,-4.1311,-4.1311,-4.1311,-4.1311,-4.1311,-4.1311,-4.1311,-4.1261,-4.1161,-4.0883,-4.0833,-4.0643,-4.0453,-4.0351,-4.0249,-4.0249,-4.03,-4.0402,-4.0402,-4.0236,-4.0109,-3.9779,-3.9272,-3.8843,-3.8856,-3.8404,-3.8115,-3.8002,-3.7864,-3.7638,-3.7111,-3.6832,-3.6593,-3.6443,-3.6417,-3.6417,-3.6417,-3.6417,-3.6417,-3.6417,-3.6417,-3.6417,-3.6417,-3.6417,-3.6417,-3.6417,-3.6417,-3.6417,-3.6417,-3.6417,-3.6417,-3.6417,-3.6417,-3.6417,-3.6417,-3.6417,-3.6417,-3.6417,-3.6417,-3.6417,-3.6417,-3.6417,-3.6417,-3.6417,-3.6417,-3.6417,-3.6417,-3.6417,-3.6417,-3.6417,-3.6417,-3.6417,-3.6417,-3.6417,-3.6417,-3.6417,-3.6417,-3.6417,-3.6417,-3.6417,-3.6417,-3.6405,-3.6392,-3.6355,-3.6292,-3.6292,-3.6304,-3.6355,-3.6417,-3.6417,-3.637,-3.6146,-3.6015,-3.5872,-3.5729,-3.5476,-3.5368,-3.532,-3.5126,-3.4981,-3.4872,-3.4775,-3.4775,-3.4775,-3.4775,-3.4775,-3.4775,-3.4775,-4.1311,-4.1311,-4.1311,-4.1261,-4.1261,-4.1311,-4.1311,-4.1211,-4.1261,-4.1261,-4.1211,-4.1261,-4.1261,-4.1261,-4.1261,-4.1147,-4.0883,-4.0643,-4.0402,-4.0147,-3.989,-3.9852,-3.989,-4.0044,-4.0134,-4.0121,-4.0019,-4.0083,-4.0006,-3.9663,-3.9272,-3.8957,-3.8856,-3.8492,-3.8266,-3.8191,-3.7927,-3.7487,-3.7211,-3.6908,-3.6631,-3.648,-3.6468,-3.6417,-3.6417,-3.6417,-3.6417,-3.6417,-3.6417,-3.6417,-3.6417,-3.6417,-3.6417,-3.6417,-3.6417,-3.6417,-3.6417,-3.6417,-3.6417,-3.6417,-3.6417,-3.6417,-3.6417,-3.6417,-3.6417,-3.6417,-3.6417,-3.6417,-3.6417,-3.6417,-3.6417,-3.6417,-3.6417,-3.6417,-3.6417,-3.6417,-3.6417,-3.6417,-3.6417,-3.6417,-3.6417,-3.6417,-3.6417,-3.6417,-3.6417,-3.6417,-3.6417,-3.6417,-3.6417,-3.6405,-3.6405,-3.638,-3.6392,-3.6392,-3.6392,-3.6417,-3.6417,-3.637,-3.6241,-3.6111,-3.6015,-3.586,-3.5764,-3.5572,-3.5524,-3.532,-3.5126,-3.503,-3.492,-3.4823,-3.4775,-3.4775,-3.4775,-3.4775,-3.4775,-4.0848,-4.1261,-4.0959,-4.0896,-4.1047,-4.1211,-4.111,-4.0858,-4.0997,-4.0959,-4.0808,-4.0946,-4.1047,-4.1097,-4.1211,-4.106,-4.0694,-4.0555,-4.0249,-3.9942,-3.9749,-3.9697,-3.9749,-3.9788,-3.9839,-3.989,-3.9826,-3.9826,-3.9839,-3.9749,-3.9673,-3.9421,-3.932,-3.9295,-3.9032,-3.8668,-3.8391,-3.8165,-3.7826,-3.7412,-3.7033,-3.6883,-3.6757,-3.6417,-3.6417,-3.6417,-3.6417,-3.6417,-3.6417,-3.6417,-3.6417,-3.6417,-3.6417,-3.6417,-3.6417,-3.6417,-3.6417,-3.6417,-3.6417,-3.6417,-3.6417,-3.6417,-3.6417,-3.6417,-3.6417,-3.6417,-3.6417,-3.6417,-3.6417,-3.6417,-3.6417,-3.6417,-3.6417,-3.6417,-3.6417,-3.6417,-3.6417,-3.6417,-3.6417,-3.6417,-3.6417,-3.6417,-3.6417,-3.6417,-3.6417,-3.6417,-3.6417,-3.6417,-3.6417,-3.6417,-3.6417,-3.6417,-3.6417,-3.6417,-3.6417,-3.6417,-3.6417,-3.637,-3.6275,-3.6241,-3.6193,-3.6241,-3.6133,-3.5943,-3.5716,-3.5572,-3.5368,-3.5175,-3.5017,-3.4872,-3.4823,-3.4775,-3.4775,-3.4775,-3.4823,-4.0478,-4.1084,-4.0694,-4.0643,-4.0896,-4.101,-4.0858,-4.0605,-4.0694,-4.0694,-4.0504,-4.0694,-4.0846,-4.0946,-4.0959,-4.0909,-4.0555,-4.0402,-4.0096,-3.9852,-3.9697,-3.9697,-3.9697,-3.9697,-3.9749,-3.9697,-3.9697,-3.9697,-3.9749,-3.9697,-3.9659,-3.9659,-3.9697,-3.9634,-3.9559,-3.9346,-3.9057,-3.8793,-3.8492,-3.7977,-3.75,-3.7412,-3.7161,-3.6782,-3.6707,-3.6556,-3.648,-3.6417,-3.6417,-3.6417,-3.6417,-3.6417,-3.6417,-3.6417,-3.6417,-3.6417,-3.6417,-3.6417,-3.6417,-3.6417,-3.6417,-3.6417,-3.6417,-3.6417,-3.6417,-3.6417,-3.6417,-3.6417,-3.6417,-3.6417,-3.6417,-3.6417,-3.6417,-3.6417,-3.6417,-3.6417,-3.6417,-3.6417,-3.6417,-3.6417,-3.6417,-3.6417,-3.6417,-3.6417,-3.6417,-3.6417,-3.6417,-3.6417,-3.6417,-3.6417,-3.6417,-3.6417,-3.6417,-3.6417,-3.6417,-3.6417,-3.6417,-3.6417,-3.637,-3.637,-3.637,-3.6417,-3.637,-3.6181,-3.5991,-3.58,-3.5608,-3.5368,-3.5126,-3.4835,-3.4847,-3.4835,-3.4775,-3.4787,-3.4955,-4.0316,-4.087,-4.0605,-4.0643,-4.0782,-4.0643,-4.0504,-4.0402,-4.0453,-4.0453,-4.0402,-4.0504,-4.0643,-4.0744,-4.0656,-4.0555,-4.044,-4.0224,-3.9981,-3.9749,-3.9697,-3.9697,-3.9697,-3.9697,-3.9697,-3.9697,-3.9697,-3.9697,-3.9697,-3.9697,-3.9697,-3.9697,-3.9697,-3.9697,-3.9697,-3.9685,-3.9396,-3.902,-3.8932,-3.8517,-3.8115,-3.799,-3.7688,-3.7299,-3.7161,-3.6985,-3.6669,-3.6581,-3.6543,-3.6417,-3.6417,-3.6417,-3.6417,-3.6417,-3.6417,-3.6417,-3.6417,-3.6417,-3.6417,-3.6417,-3.6417,-3.6417,-3.6417,-3.6417,-3.6417,-3.6417,-3.6417,-3.6417,-3.6417,-3.6417,-3.6417,-3.6417,-3.6417,-3.6417,-3.6417,-3.6417,-3.6417,-3.6417,-3.6417,-3.6417,-3.6417,-3.6417,-3.6417,-3.6417,-3.6417,-3.6417,-3.6417,-3.6417,-3.6417,-3.6417,-3.6417,-3.6417,-3.6417,-3.6417,-3.6417,-3.6417,-3.6417,-3.6417,-3.6417,-3.6417,-3.6417,-3.6417,-3.637,-3.6323,-3.6216,-3.5991,-3.58,-3.5572,-3.5296,-3.5089,-3.4956,-3.4907,-3.4835,-3.4955,-3.5316,-3.9745,-4.0593,-4.0147,-4.0147,-4.0377,-4.044,-4.03,-3.9993,-3.9955,-3.9955,-3.9993,-4.0134,-4.0287,-4.0326,-4.044,-4.0389,-4.0236,-4.0173,-3.9929,-3.9749,-3.9697,-3.9697,-3.9697,-3.9697,-3.9697,-3.9697,-3.9697,-3.9697,-3.9697,-3.9697,-3.9697,-3.9697,-3.9697,-3.9697,-3.9697,-3.9697,-3.9546,-3.9459,-3.9371,-3.9157,-3.8642,-3.8542,-3.8316,-3.7764,-3.7739,-3.7462,-3.6948,-3.6945,-3.6757,-3.6505,-3.6468,-3.6417,-3.6417,-3.6417,-3.6417,-3.6417,-3.6417,-3.6417,-3.6417,-3.6417,-3.6417,-3.643,-3.6417,-3.6417,-3.6417,-3.6417,-3.6417,-3.643,-3.6468,-3.6455,-3.6417,-3.643,-3.643,-3.6417,-3.6417,-3.6417,-3.6417,-3.6417,-3.6417,-3.6417,-3.6417,-3.6417,-3.6417,-3.6417,-3.6417,-3.6417,-3.6417,-3.6417,-3.6417,-3.6417,-3.6417,-3.6417,-3.6417,-3.6417,-3.643,-3.6505,-3.6543,-3.6556,-3.6493,-3.6417,-3.6417,-3.6606,-3.6568,-3.6609,-3.6388,-3.6181,-3.603,-3.5841,-3.5612,-3.5417,-3.5464,-3.5376,-3.5376,-3.5629,-3.6002,-3.9429,-4.0262,-3.989,-3.9788,-3.9981,-4.0147,-3.9993,-3.9749,-3.9697,-3.9697,-3.9749,-3.989,-4.0032,-4.0134,-4.0147,-4.0236,-4.0083,-3.9981,-3.9929,-3.9697,-3.9697,-3.9697,-3.9697,-3.9697,-3.9697,-3.9697,-3.9697,-3.9697,-3.9697,-3.9697,-3.9697,-3.9697,-3.9697,-3.9697,-3.9697,-3.9685,-3.9685,-3.9634,-3.9584,-3.9509,-3.922,-3.9082,-3.8881,-3.8479,-3.8241,-3.8052,-3.7588,-3.7262,-3.7084,-3.6757,-3.6556,-3.6455,-3.643,-3.643,-3.6417,-3.6417,-3.6417,-3.6417,-3.6417,-3.6417,-3.6493,-3.6684,-3.6496,-3.6417,-3.6417,-3.6417,-3.6417,-3.6443,-3.6568,-3.6669,-3.6707,-3.6707,-3.6883,-3.6908,-3.6769,-3.6782,-3.6694,-3.6719,-3.6493,-3.648,-3.6417,-3.6417,-3.6417,-3.6417,-3.6417,-3.6417,-3.6417,-3.643,-3.6443,-3.6417,-3.6417,-3.6417,-3.6417,-3.643,-3.6531,-3.6646,-3.6719,-3.6694,-3.6744,-3.6807,-3.7033,-3.7262,-3.7048,-3.691,-3.7,-3.6903,-3.6388,-3.6134,-3.6076,-3.6124,-3.6252,-3.6152,-3.5918,-3.6182,-3.6543,-3.9267,-3.9982,-3.9788,-3.9697,-3.9697,-3.9736,-3.9749,-3.9697,-3.9697,-3.9697,-3.9697,-3.9697,-3.9839,-3.9981,-3.9839,-3.989,-3.9981,-3.9839,-3.9736,-3.9685,-3.9697,-3.9697,-3.9697,-3.9697,-3.9697,-3.9697,-3.9697,-3.9697,-3.9697,-3.9697,-3.9697,-3.9697,-3.9697,-3.9697,-3.9697,-3.9697,-3.9697,-3.9697,-3.9685,-3.9634,-3.9521,-3.9559,-3.9308,-3.9007,-3.8843,-3.8567,-3.8128,-3.7713,-3.7425,-3.7111,-3.6845,-3.6606,-3.648,-3.6468,-3.6468,-3.6455,-3.6493,-3.643,-3.6543,-3.6568,-3.6832,-3.7061,-3.687,-3.6606,-3.6568,-3.6694,-3.6694,-3.6795,-3.691,-3.7073,-3.7186,-3.7475,-3.7764,-3.76,-3.7374,-3.7287,-3.7149,-3.696,-3.6707,-3.6568,-3.6455,-3.643,-3.6443,-3.6443,-3.6681,-3.6656,-3.6681,-3.6669,-3.6631,-3.643,-3.643,-3.6417,-3.643,-3.6455,-3.6606,-3.6822,-3.7073,-3.7136,-3.745,-3.7575,-3.7801,-3.7814,-3.76,-3.7538,-3.7814,-3.7653,-3.7119,-3.6787,-3.6653,-3.6762,-3.6925,-3.6759,-3.6509,-3.6627,-3.6916,-3.879,-3.9272,-3.9585,-3.9697,-3.9697,-3.9697,-3.9697,-3.9697,-3.9697,-3.9697,-3.9697,-3.9697,-3.9736,-3.9788,-3.9749,-3.9736,-3.9788,-3.9749,-3.9749,-3.9697,-3.9697,-3.9697,-3.9697,-3.9697,-3.9697,-3.9697,-3.9697,-3.9697,-3.9697,-3.9697,-3.9697,-3.9697,-3.9697,-3.9697,-3.9697,-3.9697,-3.9697,-3.9697,-3.9697,-3.9697,-3.9697,-3.9697,-3.9521,-3.9446,-3.9383,-3.9069,-3.8668,-3.8417,-3.814,-3.7751,-3.7626,-3.74,-3.6948,-3.7262,-3.745,-3.6983,-3.6744,-3.6556,-3.686,-3.6948,-3.7186,-3.7626,-3.7575,-3.7588,-3.745,-3.7262,-3.7149,-3.7236,-3.7349,-3.7525,-3.7764,-3.8052,-3.8266,-3.8178,-3.7977,-3.7826,-3.7688,-3.7513,-3.7199,-3.6935,-3.6822,-3.6719,-3.6707,-3.6835,-3.7048,-3.6985,-3.6948,-3.6948,-3.6835,-3.6694,-3.6443,-3.643,-3.6543,-3.6606,-3.681,-3.7073,-3.7387,-3.7676,-3.8002,-3.8203,-3.8165,-3.814,-3.8052,-3.809,-3.8228,-3.8115,-3.7802,-3.7506,-3.727,-3.7415,-3.7526,-3.7321,-3.7151,-3.7232,-3.7312,-3.8602,-3.8969,-3.9459,-3.9697,-3.9697,-3.9697,-3.9697,-3.9697,-3.9697,-3.9697,-3.9697,-3.9697,-3.9697,-3.9697,-3.9697,-3.9697,-3.9697,-3.9697,-3.9697,-3.9697,-3.9697,-3.9697,-3.9697,-3.9697,-3.9697,-3.9697,-3.9697,-3.9697,-3.9697,-3.9697,-3.9697,-3.9697,-3.9697,-3.9697,-3.9697,-3.9697,-3.9697,-3.9697,-3.9697,-3.9697,-3.9697,-3.9697,-3.9697,-3.9697,-3.9697,-3.9471,-3.9195,-3.9057,-3.868,-3.8316,-3.8228,-3.7877,-3.7525,-3.7814,-3.7927,-3.7462,-3.7324,-3.7262,-3.7462,-3.75,-3.7839,-3.8178,-3.8354,-3.8492,-3.8304,-3.8065,-3.7877,-3.7801,-3.7889,-3.8015,-3.8278,-3.853,-3.8617,-3.8705,-3.8542,-3.8379,-3.8241,-3.8103,-3.7839,-3.7538,-3.7337,-3.7174,-3.7199,-3.7387,-3.75,-3.7513,-3.7513,-3.7513,-3.7324,-3.7096,-3.6719,-3.6455,-3.6644,-3.6772,-3.7036,-3.7324,-3.7688,-3.8115,-3.8642,-3.8755,-3.8617,-3.868,-3.8806,-3.8693,-3.8555,-3.8392,-3.8191,-3.8041,-3.7902,-3.7956,-3.7904,-3.7782,-3.7621,-3.7678,-3.7757,-3.8477,-3.8894,-3.9459,-3.9697,-3.9697,-3.9697,-3.9697,-3.9697,-3.9697,-3.9697,-3.9697,-3.9697,-3.9697,-3.9697,-3.9697,-3.9697,-3.9697,-3.9697,-3.9697,-3.9697,-3.9697,-3.9697,-3.9697,-3.9697,-3.9697,-3.9697,-3.9697,-3.9697,-3.9697,-3.9697,-3.9697,-3.9697,-3.9697,-3.9697,-3.9697,-3.9697,-3.9697,-3.9697,-3.9697,-3.9697,-3.9697,-3.9697,-3.9697,-3.9697,-3.9697,-3.9647,-3.9534,-3.9283,-3.8919,-3.8743,-3.8555,-3.8253,-3.8253,-3.799,-3.799,-3.8002,-3.7864,-3.7927,-3.8002,-3.8078,-3.8404,-3.8718,-3.8994,-3.912,-3.8969,-3.8567,-3.8304,-3.8417,-3.8517,-3.8617,-3.8856,-3.9069,-3.9207,-3.9182,-3.9069,-3.8956,-3.8881,-3.8642,-3.8278,-3.8002,-3.7789,-3.7651,-3.7651,-3.7826,-3.8078,-3.8078,-3.8078,-3.8078,-3.7952,-3.7638,-3.7209,-3.6744,-3.682,-3.701,-3.7199,-3.7513,-3.7977,-3.8467,-3.9057,-3.932,-3.9195,-3.9371,-3.9647,-3.9358,-3.9032,-3.8829,-3.8653,-3.8551,-3.8347,-3.8008,-3.8044,-3.8129,-3.8133,-3.8015,-3.7962,-3.775,-3.8304,-3.9283,-3.9697,-3.9697,-3.9697,-3.9697,-3.9697,-3.9697,-3.9697,-3.9697,-3.9697,-3.9697,-3.9697,-3.9697,-3.9697,-3.9697,-3.9697,-3.9697,-3.9697,-3.9697,-3.9697,-3.9697,-3.9697,-3.9697,-3.9697,-3.9697,-3.9697,-3.9697,-3.9697,-3.9697,-3.9697,-3.9697,-3.9697,-3.9697,-3.9697,-3.9697,-3.9697,-3.9697,-3.9697,-3.9697,-3.9697,-3.9697,-3.9697,-3.9697,-3.9697,-3.9634,-3.9584,-3.9471,-3.9421,-3.9383,-3.9308,-3.9295,-3.8504,-3.8329,-3.8492,-3.8341,-3.8404,-3.8555,-3.868,-3.8919,-3.9245,-3.9471,-3.9559,-3.9421,-3.8944,-3.8793,-3.8994,-3.9145,-3.9245,-3.9409,-3.9559,-3.9685,-3.9609,-3.9559,-3.9509,-3.9459,-3.9107,-3.8705,-3.8492,-3.8266,-3.8216,-3.8216,-3.8341,-3.8567,-3.8668,-3.8718,-3.8718,-3.8668,-3.8479,-3.7951,-3.7498,-3.7184,-3.7262,-3.7437,-3.7776,-3.8253,-3.8768,-3.9346,-3.9572,-3.9697,-3.9697,-3.9697,-3.9685,-3.9482,-3.9242,-3.9089,-3.9098,-3.8852,-3.8374,-3.8125,-3.8255,-3.8145,-3.8027,-3.8027,-3.7362,-3.7776,-3.8856,-3.9471,-3.9672,-3.9697,-3.9697,-3.9697,-3.9697,-3.9697,-3.9697,-3.9697,-3.9697,-3.9697,-3.9697,-3.9697,-3.9697,-3.9697,-3.9697,-3.9697,-3.9697,-3.9697,-3.9697,-3.9697,-3.9697,-3.9697,-3.9697,-3.9697,-3.9697,-3.9697,-3.9697,-3.9697,-3.9697,-3.9697,-3.9697,-3.9697,-3.9697,-3.9697,-3.9697,-3.9697,-3.9697,-3.9697,-3.9697,-3.9697,-3.9697,-3.9697,-3.9697,-3.9697,-3.9685,-3.9685,-3.9634,-3.9622,-3.9509,-3.9132,-3.8981,-3.9069,-3.9032,-3.8906,-3.912,-3.9245,-3.9346,-3.9597,-3.9697,-3.9672,-3.9672,-3.927,-3.9258,-3.9433,-3.9421,-3.9496,-3.9521,-3.9672,-3.9697,-3.9659,-3.9634,-3.9609,-3.9584,-3.9433,-3.9245,-3.917,-3.9032,-3.9019,-3.9019,-3.9044,-3.9233,-3.9233,-3.9233,-3.9195,-3.9195,-3.917,-3.8655,-3.8278,-3.7939,-3.7688,-3.7764,-3.8128,-3.8592,-3.9107,-3.9584,-3.9647,-3.9697,-3.9697,-3.9697,-3.9685,-3.9633,-3.9505,-3.9401,-3.9322,-3.9114,-3.865,-3.8441,-3.8344,-3.825,-3.8145,-3.808,-3.7161,-3.7437,-3.8442,-3.9195,-3.9647,-3.9697,-3.9697,-3.9697,-3.9697,-3.9697,-3.9697,-3.9697,-3.9697,-3.9697,-3.9697,-3.9697,-3.9697,-3.9697,-3.9697,-3.9697,-3.9697,-3.9697,-3.9697,-3.9697,-3.9697,-3.9697,-3.9697,-3.9697,-3.9697,-3.9697,-3.9697,-3.9697,-3.9697,-3.9697,-3.9697,-3.9697,-3.9697,-3.9697,-3.9697,-3.9697,-3.9697,-3.9697,-3.9697,-3.9697,-3.9697,-3.9697,-3.9697,-3.9697,-3.9697,-3.9697,-3.9697,-3.9697,-3.9697,-3.9521,-3.9559,-3.9534,-3.9521,-3.9496,-3.9609,-3.9597,-3.9634,-3.9697,-3.9697,-3.9697,-3.9697,-3.9685,-3.9672,-3.9672,-3.9659,-3.9659,-3.9685,-3.9697,-3.9697,-3.9697,-3.9697,-3.9697,-3.9685,-3.9672,-3.9659,-3.9647,-3.9634,-3.9609,-3.9622,-3.9659,-3.9672,-3.9685,-3.9697,-3.9697,-3.9634,-3.9484,-3.9157,-3.8956,-3.8793,-3.8555,-3.8278,-3.8442,-3.8856,-3.9195,-3.9572,-3.9647,-3.9697,-3.9697,-3.9697,-3.9697,-3.9645,-3.9594,-3.9438,-3.9322,-3.9062,-3.8905,-3.8684,-3.8514,-3.8461,-3.8356,-3.8198,-3.7048,-3.7902,-3.8605,-3.9182,-3.9647,-3.9697,-3.9697,-3.9697,-3.9697,-3.9697,-3.9697,-3.9697,-3.9697,-3.9697,-3.9697,-3.9697,-3.9697,-3.9697,-3.9697,-3.9697,-3.9697,-3.9697,-3.9697,-3.9697,-3.9697,-3.9697,-3.9697,-3.9697,-3.9697,-3.9697,-3.9697,-3.9697,-3.9697,-3.9697,-3.9697,-3.9697,-3.9697,-3.9697,-3.9697,-3.9697,-3.9697,-3.9697,-3.9697,-3.9697,-3.9697,-3.9697,-3.9697,-3.9697,-3.9697,-3.9697,-3.9697,-3.9697,-3.9697,-3.9697,-3.9697,-3.9697,-3.9697,-3.9697,-3.9697,-3.9697,-3.9697,-3.9697,-3.9697,-3.9697,-3.9697,-3.9697,-3.9685,-3.9685,-3.9685,-3.9685,-3.9697,-3.9697,-3.9697,-3.9697,-3.9697,-3.9697,-3.9697,-3.9685,-3.9685,-3.9685,-3.9672,-3.9659,-3.9672,-3.9685,-3.9685,-3.9697,-3.9697,-3.9697,-3.9697,-3.9659,-3.9634,-3.9534,-3.9433,-3.9207,-3.8831,-3.8768,-3.9057,-3.9358,-3.9572,-3.9647,-3.9697,-3.9697,-3.9697,-3.9697,-3.9697,-3.9594,-3.9478,-3.9374,-3.9218,-3.901,-3.8841,-3.8736,-3.8684,-3.8631,-3.8461]},{"header":{"parameterUnit":"m.s-1","parameterCategory":1,"la1":31.0,"la2":29.5877,"lo1":-88.7671,"lo2":-86.6584,"dy":0.0162,"dx":0.0185,"nx":115,"ny":88,"refTime":"2026-03-29T00:00:00:Z","depth":0,"parameterNumber":3,"parameterNumberName":"V-component_of_WINDS"},"data":[0.0,0.0,0.0,0.0,0.0,0.0,0.0,0.0,0.0,0.0,0.0,0.0,0.0,0.0,0.0,0.0,0.0,0.0,0.0,0.0,0.0,0.0,0.0,0.0,0.0,0.0,0.0,0.0,0.0,0.0,0.0,0.0,0.0,0.0,0.0,0.0,0.0,0.0,0.0,0.0,0.0,0.0,0.0,0.0,0.0,0.0,0.0,0.0,0.0,0.0,0.0,0.0,0.0,0.0,0.0,0.0,0.0,0.0,0.0,0.0,0.0,0.0,0.0,0.0,0.0,0.0,0.0,0.0,0.0,0.0,0.0,0.0,0.0,0.0,0.0,0.0,0.0,0.0,0.0,0.0,0.0,0.0,0.0,0.0,0.0,0.0,0.0,0.0,0.0,0.0,0.0,0.0,0.0,0.0,0.0,0.0,0.0,0.0,0.0,0.0,0.0,0.0,0.0,0.0,0.0,0.0,0.0,0.0,0.0,0.0,0.0,0.0,0.0,0.0,0.0,0.0,0.0,0.0,0.0,0.0,0.0,0.0,0.0,0.0,0.0,0.0,0.0,0.0,0.0,0.0,0.0,0.0,0.0,0.0,0.0,0.0,0.0,0.0,0.0,0.0,0.0,0.0,0.0,0.0,0.0,0.0,0.0,0.0,0.0,0.0,0.0,0.0,0.0,0.0,0.0,0.0,0.0,0.0,0.0,0.0,0.0,0.0,0.0,0.0,0.0,0.0,0.0,0.0,0.0,0.0,0.0,0.0,0.0,0.0,0.0,0.0,0.0,0.0,0.0,0.0,0.0,0.0,0.0,0.0,0.0,0.0,0.0,0.0,0.0,0.0,0.0,0.0,0.0,0.0,0.0,0.0,0.0,0.0,0.0,0.0,0.0,0.0,0.0,0.0,0.0,0.0,0.0,0.0,0.0,0.0,0.0,0.0,0.0,0.0,0.0,0.0,0.0,0.0,0.0,0.0,0.0,0.0,0.0,0.0,0.0,0.0,0.0,0.0,0.0,0.0,0.0,0.0,0.0,0.0,0.0,0.0,0.0,0.0,0.0,0.0,0.0,0.0,0.0,0.0,0.0,0.0,0.0,0.0,0.0,0.0,0.0,0.0,0.0,0.0,0.0,0.0,0.0,0.0,0.0,0.0,0.0,0.0,0.0,0.0,0.0,0.0,0.0,0.0,0.0,0.0,0.0,0.0,0.0,0.0,0.0,0.0,0.0,0.0,0.0,0.0,0.0,0.0,0.0,0.0,0.0,0.0,0.0,0.0,0.0,0.0,0.0,0.0,0.0,0.0,0.0,0.0,0.0,0.0,0.0,0.0,0.0,0.0,0.0,0.0,0.0,0.0,0.0,0.0,0.0,0.0,0.0,0.0,0.0,0.0,0.0,0.0,0.0,0.0,0.0,0.0,0.0,0.0,0.0,0.0,0.0,0.0,0.0,0.0,0.0,0.0,0.0,0.0,0.0,0.0,0.0,0.0,0.0,0.0,0.0,0.0,0.0,0.0,0.0,0.0,0.0,0.0,0.0,0.0,0.0,0.0,0.0,0.0,0.0,0.0,0.0,0.0,0.0,0.0,0.0,0.0,0.0,0.0,0.0,0.0,0.0,0.0,0.0,0.0,0.0,0.0,0.0,0.0,0.0,0.0,0.0,0.0,0.0,0.0,0.0,0.0,0.0,0.0,0.0,0.0,0.0,0.0,0.0,0.0,0.0,0.0,0.0,0.0,0.0,0.0,0.0,0.0,0.0,0.0,0.0,0.0,0.0,0.0,0.0,0.0,0.0,0.0,0.0,0.0,0.0,0.0,0.0,0.0,0.0,0.0,0.0,0.0,0.0,0.0,0.0,0.0,0.0,0.0,0.0,0.0,0.0,0.0,0.0,0.0,0.0,0.0,0.0,0.0,0.0,0.0,0.0,0.0,0.0,0.0,0.0,0.0,0.0,0.0,0.0,0.0,0.0,0.0,0.0,0.0,0.0,0.0,0.0,0.0,0.0,0.0,0.0,0.0,0.0,0.0,0.0,0.0,0.0,0.0,0.0,0.0,0.0,0.0,0.0,0.0,0.0,0.0,0.0,0.0,0.0,0.0,0.0,0.0,0.0,0.0,0.0,0.0,0.0,0.0,0.0,0.0,0.0,0.0,0.0,0.0,0.0,0.0,0.0,0.0,0.0,0.0,0.0,0.0,0.0,0.0,0.0,0.0,0.0,0.0,0.0,0.0,0.0,0.0,0.0,0.0,0.0,0.0,0.0,0.0,0.0,0.0,0.0,0.0,0.0,0.0,0.0,0.0,0.0,0.0,0.0,0.0,0.0,0.0,0.0,0.0,0.0,0.0,0.0,0.0,0.0,0.0,0.0,0.0,0.0,0.0,0.0,0.0,0.0,0.0,0.0,0.0,0.0,0.0,0.0,0.0,0.0,0.0,0.0,0.0,0.0,0.0,0.0,0.0,0.0,0.0,0.0,0.0,0.0,0.0,0.0,0.0,0.0,0.0,0.0,0.0,0.0,0.0,0.0,0.0,0.0,0.0,0.0,0.0,0.0,0.0,0.0,0.0,0.0,0.0,0.0,0.0,0.0,0.0,0.0,0.0,0.0,0.0,0.0,0.0,0.0,0.0,0.0,0.0,0.0,0.0,0.0,0.0,0.0,0.0,0.0,0.0,0.0,0.0,0.0,0.0,0.0,0.0,0.0,0.0,0.0,0.0,0.0,0.0,0.0,0.0,0.0,0.0,0.0,0.0,0.0,0.0,0.0,0.0,0.0,0.0,0.0,0.0,0.0,0.0,0.0,0.0,0.0,0.0,0.0,0.0,0.0,0.0,0.0,0.0,0.0,0.0,0.0,0.0,0.0,0.0,0.0,0.0,0.0,0.0,0.0,0.0,0.0,0.0,0.0,0.0,0.0,0.0,0.0,0.0,0.0,0.0,0.0,0.0,0.0,0.0,0.0,0.0,0.0,0.0,0.0,0.0,0.0,0.0,0.0,0.0,0.0,0.0,0.0,0.0,0.0,0.0,0.0,0.0,0.0,0.0,0.0,0.0,0.0,0.0,0.0,0.0,0.0,0.0,0.0,0.0,0.0,0.0,0.0,0.0,0.0,0.0,0.0,0.0,0.0,0.0,0.0,0.0,0.0,0.0,0.0,0.0,0.0,0.0,0.0,0.0,0.0,0.0,0.0,0.0,0.0,0.0,0.0,0.0,0.0,0.0,0.0,0.0,0.0,0.0,0.0,0.0,0.0,0.0,0.0,0.0,0.0,0.0,0.0,0.0,0.0,0.0,0.0,0.0,0.0,0.0,0.0,0.0,0.0,0.0,0.0,0.0,0.0,0.0,0.0,0.0,0.0,0.0,0.0,0.0,0.0,0.0,0.0,0.0,0.0,0.0,0.0,0.0,0.0,0.0,0.0,0.0,0.0,0.0,0.0,0.0,0.0,0.0,0.0,0.0,0.0,0.0,0.0,0.0,0.0,0.0,0.0,0.0,0.0,0.0,0.0,0.0,0.0,0.0,0.0,0.0,0.0,0.0,0.0,0.0,0.0,0.0,0.0,0.0,0.0,0.0,0.0,0.0,0.0,0.0,0.0,0.0,0.0,0.0,0.0,0.0,0.0,0.0,0.0,0.0,0.0,0.0,0.0,0.0,0.0,0.0,0.0,0.0,0.0,0.0,0.0,0.0,0.0,0.0,0.0,0.0,0.0,0.0,0.0,0.0,0.0,0.0,0.0,0.0,0.0,0.0,0.0,0.0,0.0,0.0,0.0,0.0,0.0,0.0,0.0,0.0,0.0,0.0,0.0,0.0,0.0,0.0,0.0,0.0,0.0,0.0,0.0,0.0,0.0,0.0,0.0,0.0,0.0,0.0,0.0,0.0,0.0,0.0,0.0,0.0,0.0,0.0,0.0,0.0,0.0,0.0,0.0,0.0,0.0,0.0,0.0,0.0,0.0,0.0,0.0,0.0,0.0,0.0,0.0,0.0,0.0,0.0,0.0,0.0,0.0,0.0,0.0,0.0,0.0,0.0,0.0,0.0,0.0,0.0,0.0,0.0,0.0,0.0,0.0,0.0,0.0,0.0,0.0,0.0,0.0,0.0,0.0,0.0,0.0,0.0,0.0,0.0,0.0,0.0,0.0,0.0,0.0,0.0,0.0,0.0,0.0,0.0,0.0,0.0,0.0,0.0,0.0,0.0,0.0,0.0,0.0,0.0,0.0,0.0,0.0,0.0,0.0,0.0,0.0,0.0,0.0,0.0,0.0,0.0,1.6419,0.0,0.0,0.0,0.0,0.0,0.0,0.0,0.0,0.0,0.0,0.0,0.0,0.0,0.0,0.0,0.0,0.0,0.0,0.0,0.0,0.0,0.0,0.0,0.0,0.0,0.0,0.0,0.0,0.0,0.0,0.0,0.0,0.0,0.0,0.0,0.0,0.0,0.0,0.0,0.0,0.0,0.0,0.0,0.0,0.0,0.0,0.0,0.0,0.0,0.0,0.0,0.0,0.0,0.0,0.0,0.0,0.0,0.0,0.0,0.0,0.0,0.0,0.0,0.0,0.0,0.0,0.0,0.0,0.0,0.0,0.0,0.0,0.0,0.0,0.0,0.0,0.0,0.0,0.0,0.0,0.0,0.0,0.0,0.0,0.0,0.0,0.0,0.0,0.0,0.0,0.0,0.0,0.0,0.0,0.0,0.0,0.0,0.0,0.0,0.0,0.0,0.0,0.0,0.0,0.0,0.0,0.0,0.0,0.0,0.0,1.6285,1.6304,1.6751,1.6987,1.6976,0.0,0.0,0.0,0.0,0.0,0.0,0.0,0.0,0.0,0.0,0.0,0.0,0.0,0.0,0.0,0.0,0.0,0.0,0.0,0.0,0.0,0.0,0.0,0.0,0.0,0.0,0.0,0.0,0.0,0.0,0.0,0.0,0.0,0.0,0.0,0.0,0.0,0.0,0.0,0.0,0.0,0.0,0.0,0.0,0.0,0.0,0.0,0.0,0.0,0.0,0.0,0.0,0.0,0.0,0.0,0.0,0.0,0.0,0.0,0.0,0.0,0.0,0.0,0.0,0.0,0.0,0.0,0.0,0.0,0.0,0.0,0.0,0.0,0.0,0.0,0.0,0.0,0.0,0.0,0.0,0.0,0.0,0.0,0.0,0.0,0.0,0.0,0.0,0.0,0.0,0.0,0.0,0.0,0.0,0.0,0.0,0.0,0.0,0.0,0.0,0.0,0.0,0.0,0.0,0.0,0.0,0.0,0.0,0.0,0.0,0.0,0.0,1.7262,1.7415,1.7317,0.0,0.0,0.0,0.0,0.0,0.0,0.0,0.0,0.0,0.0,0.0,0.0,0.0,0.0,0.0,0.0,0.0,0.0,0.0,0.0,0.0,0.0,0.0,0.0,0.0,0.0,0.0,0.0,0.0,0.0,0.0,0.0,0.0,0.0,0.0,0.0,0.0,0.0,0.0,0.0,0.0,0.0,0.0,0.0,0.0,0.0,0.0,0.0,0.0,0.0,0.0,0.0,0.0,0.0,0.0,0.0,0.0,0.0,0.0,0.0,0.0,0.0,0.0,0.0,0.0,0.0,0.0,0.0,0.0,0.0,0.0,0.0,0.0,0.0,0.0,0.0,0.0,0.0,0.0,0.0,0.0,0.0,0.0,0.0,0.0,0.0,0.0,0.0,0.0,0.0,0.0,0.0,0.0,0.0,0.0,0.0,0.0,0.0,0.0,0.0,0.0,0.0,0.0,0.0,0.0,0.0,0.0,0.0,0.0,0.0,1.7429,1.7865,1.7904,0.0,1.735,0.0,0.0,0.0,0.0,0.0,0.0,0.0,0.0,0.0,0.0,0.0,0.0,0.0,0.0,0.0,0.0,0.0,0.0,0.0,0.0,0.0,0.0,0.0,0.0,0.0,0.0,0.0,0.0,0.0,0.0,0.0,0.0,0.0,0.0,0.0,0.0,0.0,0.0,0.0,0.0,0.0,0.0,0.0,0.0,0.0,0.0,0.0,0.0,0.0,0.0,0.0,0.0,0.0,0.0,0.0,0.0,0.0,0.0,0.0,0.0,0.0,0.0,0.0,0.0,0.0,0.0,0.0,0.0,0.0,0.0,0.0,0.0,0.0,0.0,0.0,0.0,0.0,0.0,0.0,0.0,0.0,0.0,0.0,0.0,0.0,0.0,0.0,0.0,0.0,0.0,0.0,0.0,0.0,0.0,0.0,0.0,0.0,0.0,0.0,0.0,0.0,0.0,0.0,0.0,0.0,0.0,0.0,0.0,0.0,0.0,1.7802,1.801,1.7726,1.7486,0.0,0.0,0.0,0.0,0.0,0.0,0.0,0.0,0.0,0.0,0.0,0.0,0.0,0.0,0.0,0.0,0.0,0.0,0.0,0.0,0.0,0.0,0.0,0.0,0.0,0.0,0.0,0.0,0.0,0.0,0.0,0.0,0.0,0.0,0.0,0.0,0.0,0.0,0.0,0.0,0.0,0.0,0.0,0.0,0.0,0.0,0.0,0.0,0.0,0.0,0.0,0.0,0.0,0.0,0.0,0.0,0.0,0.0,0.0,0.0,0.0,0.0,0.0,0.0,0.0,0.0,0.0,0.0,0.0,0.0,0.0,0.0,0.0,0.0,0.0,0.0,0.0,0.0,0.0,0.0,0.0,0.0,0.0,0.0,0.0,0.0,0.0,0.0,0.0,0.0,0.0,0.0,0.0,0.0,0.0,0.0,0.0,0.0,0.0,0.0,0.0,0.0,0.0,0.0,0.0,0.0,0.0,0.0,0.0,0.0,1.7607,0.0,1.8174,1.7875,1.7514,1.7109,0.0,0.0,0.0,0.0,0.0,0.0,0.0,0.0,0.0,0.0,0.0,0.0,0.0,0.0,0.0,0.0,0.0,0.0,0.0,0.0,0.0,0.0,0.0,0.0,0.0,0.0,0.0,0.0,0.0,0.0,0.0,0.0,0.0,0.0,0.0,0.0,0.0,0.0,0.0,0.0,0.0,0.0,0.0,0.0,0.0,0.0,0.0,0.0,0.0,0.0,0.0,0.0,0.0,0.0,0.0,0.0,0.0,0.0,0.0,0.0,0.0,0.0,0.0,0.0,0.0,0.0,0.0,0.0,0.0,0.0,0.0,0.0,0.0,0.0,0.0,0.0,0.0,0.0,0.0,0.0,0.0,0.0,0.0,0.0,0.0,0.0,0.0,0.0,0.0,0.0,0.0,0.0,0.0,0.0,0.0,0.0,0.0,0.0,0.0,0.0,0.0,0.0,0.0,0.0,0.0,0.0,0.0,0.0,0.0,1.8129,1.8217,1.8643,1.8632,1.7977,0.0,0.0,0.0,0.0,0.0,0.0,0.0,0.0,0.0,0.0,0.0,0.0,0.0,0.0,0.0,0.0,0.0,0.0,0.0,0.0,0.0,0.0,0.0,0.0,0.0,0.0,0.0,0.0,0.0,0.0,0.0,0.0,0.0,0.0,0.0,0.0,0.0,0.0,0.0,0.0,0.0,0.0,0.0,0.0,0.0,0.0,0.0,0.0,0.0,0.0,0.0,0.0,0.0,0.0,0.0,0.0,0.0,0.0,0.0,0.0,0.0,0.0,0.0,0.0,0.0,0.0,0.0,0.0,0.0,0.0,0.0,0.0,0.0,0.0,0.0,0.0,0.0,0.0,0.0,0.0,0.0,0.0,0.0,0.0,0.0,0.0,0.0,0.0,0.0,0.0,0.0,0.0,0.0,0.0,0.0,0.0,0.0,0.0,0.0,0.0,0.0,0.0,0.0,0.0,0.0,0.0,0.0,0.0,0.0,1.7517,1.7835,1.8381,1.908,1.7937,1.7202,0.0,0.0,0.0,0.0,0.0,0.0,0.0,0.0,0.0,0.0,0.0,0.0,0.0,0.0,0.0,0.0,0.0,0.0,0.0,0.0,0.0,0.0,0.0,0.0,0.0,0.0,0.0,0.0,0.0,0.0,0.0,0.0,0.0,0.0,0.0,0.0,0.0,0.0,0.0,0.0,0.0,0.0,0.0,0.0,0.0,0.0,0.0,0.0,0.0,0.0,0.0,0.0,0.0,0.0,0.0,0.0,0.0,0.0,0.0,0.0,0.0,0.0,0.0,0.0,0.0,0.0,0.0,0.0,0.0,0.0,0.0,0.0,0.0,0.0,0.0,0.0,0.0,0.0,0.0,0.0,0.0,0.0,0.0,0.0,0.0,0.0,0.0,0.0,0.0,0.0,0.0,0.0,0.0,0.0,0.0,0.0,0.0,0.0,0.0,0.0,0.0,0.0,0.0,0.0,0.0,0.0,0.0,0.0,0.0,1.7485,0.0,1.8687,0.0,1.777,1.6912,0.0,0.0,0.0,0.0,0.0,0.0,0.0,0.0,0.0,0.0,0.0,0.0,0.0,0.0,0.0,0.0,0.0,0.0,0.0,0.0,0.0,0.0,0.0,0.0,0.0,0.0,0.0,0.0,0.0,0.0,0.0,0.0,0.0,0.0,0.0,0.0,0.0,0.0,0.0,0.0,0.0,0.0,0.0,0.0,0.0,0.0,0.0,0.0,0.0,0.0,0.0,0.0,0.0,0.0,0.0,0.0,0.0,0.0,0.0,0.0,0.0,0.0,0.0,0.0,0.0,0.0,0.0,0.0,0.0,0.0,0.0,0.0,0.0,0.0,0.0,0.0,0.0,0.0,0.0,0.0,0.0,0.0,0.0,0.0,0.0,0.0,0.0,0.0,0.0,0.0,0.0,0.0,0.0,0.0,0.0,0.0,0.0,0.0,0.0,0.0,0.0,0.0,0.0,0.0,0.0,0.0,0.0,0.0,1.7228,1.8423,1.9053,1.9179,1.875,1.8228,1.7322,0.0,0.0,0.0,0.0,0.0,0.0,0.0,0.0,0.0,0.0,0.0,0.0,0.0,0.0,0.0,0.0,0.0,0.0,0.0,0.0,0.0,0.0,0.0,0.0,0.0,0.0,0.0,0.0,0.0,0.0,0.0,0.0,0.0,0.0,0.0,0.0,0.0,0.0,0.0,0.0,0.0,0.0,0.0,0.0,0.0,0.0,0.0,0.0,0.0,0.0,0.0,0.0,0.0,0.0,0.0,0.0,0.0,0.0,0.0,0.0,0.0,0.0,0.0,0.0,0.0,0.0,0.0,0.0,0.0,0.0,0.0,0.0,0.0,0.0,0.0,0.0,0.0,0.0,0.0,0.0,0.0,0.0,0.0,0.0,0.0,0.0,0.0,0.0,0.0,0.0,0.0,0.0,0.0,0.0,0.0,0.0,0.0,0.0,0.0,0.0,0.0,0.0,0.0,0.0,0.0,0.0,0.0,0.0,0.0,1.8032,1.8911,1.9475,1.9605,1.8272,1.7595,0.0,0.0,0.0,0.0,0.0,0.0,0.0,0.0,0.0,0.0,0.0,0.0,0.0,0.0,0.0,0.0,0.0,0.0,0.0,0.0,0.0,0.0,0.0,0.0,0.0,0.0,0.0,0.0,0.0,0.0,0.0,0.0,0.0,0.0,0.0,0.0,0.0,0.0,0.0,0.0,0.0,0.0,0.0,0.0,0.0,0.0,0.0,0.0,0.0,0.0,0.0,0.0,0.0,0.0,0.0,0.0,0.0,0.0,0.0,0.0,0.0,0.0,0.0,0.0,0.0,0.0,0.0,0.0,0.0,0.0,0.0,0.0,0.0,0.0,0.0,0.0,0.0,0.0,0.0,0.0,0.0,0.0,0.0,0.0,0.0,0.0,0.0,0.0,0.0,0.0,0.0,0.0,0.0,0.0,0.0,0.0,0.0,0.0,0.0,0.0,0.0,0.0,0.0,0.0,0.0,0.0,0.0,0.0,0.0,1.8907,1.9759,2.0162,2.0118,1.8622,1.7941,1.8148,0.0,0.0,0.0,0.0,0.0,0.0,0.0,0.0,0.0,0.0,0.0,0.0,0.0,0.0,0.0,0.0,0.0,0.0,0.0,0.0,0.0,0.0,0.0,0.0,0.0,0.0,0.0,0.0,0.0,0.0,0.0,0.0,0.0,0.0,0.0,0.0,0.0,0.0,0.0,0.0,0.0,0.0,0.0,0.0,0.0,0.0,0.0,0.0,0.0,0.0,0.0,0.0,0.0,0.0,0.0,0.0,0.0,0.0,0.0,0.0,0.0,0.0,0.0,0.0,0.0,0.0,0.0,0.0,0.0,0.0,0.0,0.0,0.0,0.0,0.0,0.0,0.0,0.0,0.0,0.0,0.0,0.0,0.0,0.0,0.0,0.0,0.0,0.0,0.0,0.0,0.0,0.0,0.0,0.0,0.0,0.0,0.0,0.0,0.0,0.0,0.0,0.0,0.0,0.0,0.0,0.0,0.0,0.0,2.0708,2.1413,2.1308,2.0325,1.9331,1.8359,0.0,0.0,0.0,0.0,0.0,0.0,0.0,0.0,0.0,0.0,0.0,0.0,0.0,0.0,0.0,0.0,0.0,0.0,0.0,0.0,0.0,0.0,0.0,0.0,0.0,0.0,0.0,0.0,0.0,0.0,0.0,0.0,0.0,0.0,0.0,0.0,0.0,0.0,0.0,0.0,0.0,0.0,0.0,0.0,0.0,0.0,0.0,0.0,0.0,0.0,0.0,0.0,0.0,0.0,0.0,0.0,0.0,0.0,0.0,0.0,0.0,0.0,0.0,0.0,0.0,0.0,0.0,0.0,0.0,0.0,0.0,0.0,0.0,0.0,0.0,0.0,0.0,0.0,0.0,0.0,0.0,0.0,0.0,0.0,0.0,0.0,0.0,0.0,0.0,0.0,0.0,0.0,0.0,0.0,0.0,0.0,0.0,0.0,0.0,0.0,0.0,0.0,0.0,0.0,0.0,0.0,0.0,0.0,0.0,2.2189,2.3221,2.3263,2.2269,2.0609,1.9616,0.0,0.0,0.0,0.0,0.0,0.0,0.0,0.0,0.0,0.0,0.0,0.0,0.0,0.0,0.0,0.0,0.0,0.0,0.0,0.0,0.0,0.0,0.0,0.0,0.0,0.0,0.0,0.0,0.0,0.0,0.0,0.0,0.0,0.0,0.0,0.0,0.0,0.0,0.0,0.0,0.0,0.0,0.0,0.0,0.0,0.0,0.0,0.0,0.0,0.0,0.0,0.0,0.0,0.0,0.0,0.0,0.0,0.0,0.0,0.0,0.0,0.0,0.0,0.0,0.0,0.0,0.0,0.0,0.0,0.0,0.0,0.0,0.0,0.0,0.0,0.0,0.0,0.0,0.0,0.0,0.0,0.0,0.0,0.0,0.0,0.0,0.0,0.0,0.0,0.0,0.0,0.0,0.0,0.0,0.0,0.0,0.0,0.0,0.0,0.0,0.0,0.0,0.0,0.0,0.0,0.0,0.0,0.0,2.1895,2.3509,2.4827,2.5147,2.4235,2.2171,2.0827,0.0,0.0,0.0,0.0,0.0,0.0,0.0,0.0,0.0,0.0,0.0,0.0,0.0,0.0,0.0,0.0,0.0,0.0,0.0,0.0,0.0,0.0,0.0,0.0,0.0,0.0,0.0,0.0,0.0,0.0,0.0,0.0,0.0,0.0,0.0,0.0,0.0,0.0,0.0,0.0,0.0,0.0,0.0,0.0,0.0,0.0,0.0,0.0,0.0,0.0,0.0,0.0,0.0,0.0,0.0,0.0,0.0,0.0,0.0,0.0,0.0,0.0,0.0,0.0,0.0,0.0,0.0,0.0,0.0,0.0,0.0,0.0,0.0,0.0,0.0,0.0,0.0,0.0,0.0,0.0,0.0,0.0,0.0,0.0,0.0,0.0,0.0,0.0,0.0,0.0,0.0,0.0,0.0,0.0,0.0,0.0,0.0,0.0,0.0,0.0,0.0,0.0,0.0,0.0,0.0,0.0,0.0,0.0,2.3005,2.4628,2.6151,2.6639,2.595,2.3689,2.1985,0.0,0.0,0.0,0.0,0.0,0.0,0.0,0.0,0.0,0.0,0.0,0.0,0.0,0.0,0.0,0.0,0.0,0.0,0.0,0.0,0.0,0.0,0.0,0.0,0.0,0.0,0.0,0.0,0.0,0.0,0.0,0.0,0.0,0.0,0.0,0.0,0.0,0.0,0.0,0.0,0.0,0.0,0.0,0.0,0.0,0.0,0.0,0.0,0.0,0.0,0.0,0.0,0.0,0.0,0.0,0.0,0.0,0.0,0.0,0.0,0.0,0.0,0.0,0.0,0.0,0.0,0.0,0.0,0.0,0.0,0.0,0.0,0.0,0.0,0.0,0.0,0.0,0.0,0.0,0.0,0.0,0.0,0.0,0.0,0.0,0.0,0.0,0.0,0.0,0.0,0.0,0.0,0.0,0.0,0.0,0.0,0.0,0.0,0.0,0.0,0.0,0.0,0.0,0.0,0.0,0.0,0.0,0.0,2.3831,2.5568,2.6291,2.6606,2.6431,2.4447,2.2768,0.0,0.0,0.0,0.0,0.0,0.0,0.0,0.0,0.0,0.0,0.0,0.0,0.0,0.0,0.0,0.0,0.0,0.0,0.0,0.0,0.0,0.0,0.0,0.0,0.0,0.0,0.0,0.0,0.0,0.0,0.0,0.0,0.0,0.0,0.0,0.0,0.0,0.0,0.0,0.0,0.0,0.0,0.0,0.0,0.0,0.0,0.0,0.0,2.2686,0.0,0.0,0.0,0.0,0.0,0.0,0.0,0.0,0.0,0.0,0.0,0.0,0.0,0.0,0.0,0.0,0.0,0.0,0.0,0.0,0.0,0.0,0.0,0.0,0.0,0.0,0.0,0.0,0.0,0.0,0.0,0.0,0.0,0.0,0.0,0.0,0.0,0.0,0.0,0.0,0.0,0.0,0.0,0.0,0.0,0.0,0.0,0.0,0.0,0.0,0.0,0.0,0.0,0.0,0.0,0.0,0.0,0.0,0.0,2.4431,2.5989,2.6748,2.6943,2.6584,2.5581,2.4203,0.0,0.0,0.0,0.0,0.0,0.0,0.0,0.0,0.0,0.0,0.0,0.0,0.0,0.0,0.0,0.0,0.0,0.0,0.0,0.0,0.0,0.0,0.0,0.0,0.0,0.0,0.0,0.0,0.0,0.0,0.0,0.0,0.0,0.0,0.0,0.0,0.0,0.0,0.0,0.0,0.0,0.0,0.0,0.0,0.0,0.0,0.0,0.0,0.0,0.0,0.0,0.0,0.0,0.0,0.0,0.0,0.0,0.0,0.0,0.0,0.0,0.0,0.0,0.0,0.0,0.0,0.0,0.0,0.0,0.0,0.0,0.0,0.0,0.0,0.0,0.0,0.0,0.0,0.0,0.0,0.0,0.0,0.0,0.0,0.0,0.0,0.0,0.0,0.0,0.0,0.0,0.0,0.0,0.0,0.0,0.0,0.0,0.0,0.0,0.0,0.0,0.0,0.0,0.0,0.0,0.0,0.0,2.3098,2.4808,2.6303,2.7155,2.7355,2.692,2.6678,2.5565,2.3438,0.0,0.0,0.0,0.0,0.0,0.0,0.0,0.0,0.0,0.0,0.0,0.0,0.0,0.0,0.0,0.0,0.0,0.0,0.0,0.0,0.0,0.0,0.0,0.0,0.0,0.0,0.0,0.0,0.0,0.0,0.0,0.0,0.0,0.0,0.0,0.0,0.0,0.0,2.1236,2.2605,0.0,0.0,0.0,0.0,0.0,0.0,0.0,0.0,2.3365,0.0,0.0,0.0,0.0,0.0,0.0,0.0,0.0,0.0,0.0,0.0,0.0,0.0,0.0,0.0,0.0,0.0,0.0,0.0,0.0,0.0,0.0,0.0,0.0,0.0,0.0,0.0,0.0,0.0,0.0,0.0,0.0,0.0,0.0,0.0,0.0,0.0,0.0,0.0,0.0,0.0,0.0,0.0,0.0,0.0,0.0,0.0,0.0,0.0,0.0,0.0,0.0,0.0,0.0,0.0,0.0,2.2993,2.3402,2.467,2.6776,2.7048,2.7514,2.8259,2.7065,2.5903,2.4946,0.0,0.0,0.0,0.0,0.0,0.0,0.0,0.0,0.0,0.0,0.0,0.0,0.0,0.0,0.0,0.0,0.0,0.0,0.0,0.0,0.0,0.0,0.0,0.0,0.0,0.0,0.0,0.0,0.0,0.0,0.0,0.0,0.0,0.0,0.0,0.0,0.0,0.0,0.0,2.4951,2.552,0.0,0.0,0.0,0.0,0.0,0.0,0.0,0.0,2.3743,0.0,0.0,0.0,0.0,0.0,0.0,0.0,0.0,0.0,0.0,0.0,0.0,0.0,0.0,0.0,0.0,0.0,0.0,0.0,0.0,0.0,0.0,0.0,0.0,0.0,0.0,0.0,0.0,0.0,0.0,0.0,0.0,0.0,0.0,0.0,0.0,0.0,0.0,0.0,0.0,0.0,0.0,0.0,0.0,0.0,0.0,0.0,0.0,0.0,0.0,0.0,0.0,0.0,0.0,0.0,2.3754,2.5229,2.6638,2.7994,2.83,2.8666,2.9218,2.7713,2.6387,0.0,0.0,0.0,0.0,0.0,0.0,0.0,0.0,0.0,0.0,0.0,0.0,0.0,0.0,0.0,0.0,0.0,0.0,0.0,0.0,0.0,0.0,0.0,0.0,0.0,0.0,0.0,0.0,0.0,0.0,0.0,0.0,0.0,0.0,0.0,0.0,0.0,0.0,0.0,0.0,2.571,2.6117,2.6755,0.0,0.0,0.0,0.0,0.0,0.0,2.4978,2.4788,0.0,0.0,0.0,0.0,0.0,0.0,0.0,0.0,0.0,0.0,0.0,0.0,0.0,0.0,0.0,0.0,0.0,0.0,0.0,0.0,0.0,0.0,0.0,0.0,0.0,0.0,0.0,0.0,0.0,0.0,0.0,0.0,0.0,0.0,0.0,0.0,0.0,0.0,0.0,0.0,0.0,0.0,0.0,0.0,0.0,0.0,0.0,0.0,0.0,0.0,0.0,0.0,0.0,0.0,0.0,2.4393,2.6746,2.8335,2.9145,2.944,2.9773,3.0043,2.8486,2.7088,0.0,0.0,0.0,0.0,0.0,0.0,0.0,0.0,0.0,0.0,0.0,0.0,0.0,0.0,0.0,0.0,0.0,0.0,0.0,0.0,0.0,0.0,0.0,0.0,0.0,0.0,0.0,0.0,0.0,0.0,0.0,0.0,0.0,0.0,0.0,0.0,0.0,0.0,0.0,0.0,0.0,2.7067,2.7773,2.7054,0.0,0.0,0.0,0.0,2.6175,2.6774,0.0,0.0,0.0,0.0,0.0,0.0,0.0,0.0,0.0,0.0,0.0,0.0,0.0,0.0,0.0,0.0,0.0,0.0,0.0,0.0,0.0,0.0,0.0,0.0,0.0,0.0,0.0,0.0,0.0,0.0,0.0,0.0,0.0,0.0,0.0,0.0,0.0,0.0,0.0,0.0,0.0,0.0,0.0,0.0,0.0,0.0,0.0,0.0,0.0,0.0,0.0,0.0,0.0,0.0,0.0,0.0,2.5322,2.6355,2.776,2.9599,2.9476,2.9876,3.0885,2.9404,2.8188,0.0,0.0,0.0,0.0,0.0,0.0,0.0,0.0,0.0,0.0,0.0,0.0,0.0,0.0,0.0,0.0,0.0,0.0,0.0,0.0,0.0,0.0,0.0,0.0,0.0,0.0,0.0,0.0,0.0,0.0,0.0,0.0,0.0,0.0,0.0,0.0,0.0,0.0,0.0,0.0,0.0,2.955,2.8627,2.837,2.8071,0.0,0.0,2.9513,2.9869,3.1125,0.0,0.0,0.0,0.0,0.0,0.0,0.0,0.0,0.0,0.0,0.0,0.0,0.0,0.0,0.0,0.0,0.0,0.0,0.0,0.0,0.0,0.0,0.0,0.0,0.0,0.0,0.0,0.0,0.0,0.0,0.0,0.0,0.0,0.0,0.0,0.0,0.0,0.0,0.0,0.0,0.0,0.0,0.0,0.0,0.0,0.0,0.0,0.0,0.0,0.0,0.0,0.0,0.0,0.0,0.0,2.4355,2.6565,2.8703,3.0321,3.1326,3.1004,3.1294,3.2263,2.987,2.8094,0.0,0.0,0.0,0.0,0.0,0.0,0.0,0.0,0.0,0.0,0.0,0.0,0.0,0.0,0.0,0.0,0.0,0.0,0.0,0.0,0.0,0.0,0.0,0.0,0.0,0.0,0.0,0.0,0.0,0.0,0.0,0.0,0.0,0.0,0.0,0.0,0.0,0.0,0.0,0.0,0.0,0.0,3.0775,3.0825,0.0,0.0,0.0,3.132,3.1279,0.0,0.0,0.0,0.0,0.0,0.0,0.0,0.0,0.0,0.0,0.0,0.0,0.0,0.0,0.0,0.0,0.0,0.0,0.0,0.0,0.0,0.0,0.0,0.0,0.0,0.0,0.0,0.0,0.0,0.0,0.0,0.0,0.0,0.0,0.0,0.0,0.0,0.0,0.0,0.0,0.0,0.0,0.0,0.0,0.0,0.0,0.0,0.0,0.0,0.0,0.0,0.0,0.0,0.0,0.0,0.0,0.0,2.7507,3.0549,3.2319,3.278,3.2465,3.2515,3.2909,3.0288,0.0,0.0,0.0,0.0,0.0,0.0,0.0,0.0,0.0,0.0,0.0,0.0,0.0,0.0,0.0,0.0,0.0,0.0,0.0,0.0,0.0,0.0,0.0,0.0,0.0,0.0,0.0,1.5995,0.0,0.0,0.0,0.0,0.0,0.0,0.0,0.0,0.0,0.0,0.0,0.0,0.0,0.0,3.1675,3.2617,3.3016,3.3118,0.0,0.0,3.3422,3.324,3.3923,3.3572,0.0,0.0,0.0,0.0,0.0,0.0,0.0,0.0,0.0,0.0,0.0,0.0,0.0,0.0,0.0,0.0,0.0,0.0,0.0,0.0,0.0,0.0,0.0,0.0,0.0,0.0,0.0,0.0,0.0,0.0,0.0,0.0,0.0,0.0,0.0,0.0,0.0,0.0,0.0,0.0,0.0,0.0,0.0,0.0,0.0,0.0,0.0,0.0,0.0,0.0,0.0,0.0,0.0,0.0,0.0,2.8021,3.0529,3.2349,3.3284,3.3219,3.2896,3.2432,3.0823,2.8939,0.0,0.0,0.0,0.0,0.0,0.0,0.0,0.0,0.0,0.0,0.0,0.0,0.0,0.0,0.0,0.0,0.0,0.0,0.0,0.0,0.0,0.0,0.0,0.0,0.0,0.0,0.0,0.0,0.0,0.0,0.0,0.0,0.0,0.0,0.0,0.0,0.0,0.0,0.0,0.0,0.0,3.3206,3.3416,3.4399,3.5339,0.0,0.0,3.6405,3.6926,3.8645,3.8223,3.3054,0.0,0.0,0.0,0.0,0.0,0.0,0.0,0.0,0.0,0.0,0.0,0.0,0.0,0.0,0.0,0.0,0.0,0.0,0.0,0.0,0.0,0.0,0.0,0.0,0.0,0.0,0.0,0.0,0.0,0.0,0.0,0.0,0.0,0.0,0.0,0.0,0.0,0.0,0.0,0.0,0.0,0.0,0.0,0.0,0.0,0.0,0.0,0.0,0.0,0.0,0.0,0.0,0.0,2.5686,2.8084,3.0858,3.2708,3.3534,3.3312,3.3003,3.2592,3.0988,2.8847,0.0,0.0,0.0,0.0,0.0,0.0,0.0,0.0,0.0,0.0,0.0,0.0,0.0,0.0,0.0,0.0,0.0,0.0,0.0,0.0,0.0,0.0,0.0,0.0,0.0,0.0,0.0,0.0,1.9998,2.0323,2.067,0.0,0.0,0.0,0.0,0.0,0.0,0.0,0.0,0.0,0.0,3.4554,3.5795,3.6715,0.0,0.0,3.7719,3.7809,3.805,3.7715,3.6415,3.349,3.1535,0.0,0.0,0.0,0.0,0.0,0.0,0.0,0.0,0.0,0.0,0.0,0.0,0.0,0.0,0.0,0.0,0.0,0.0,0.0,0.0,0.0,0.0,0.0,0.0,0.0,0.0,0.0,0.0,0.0,0.0,0.0,0.0,0.0,0.0,0.0,0.0,0.0,0.0,0.0,0.0,0.0,0.0,0.0,0.0,0.0,0.0,0.0,0.0,0.0,0.0,0.0,0.0,2.5737,2.8084,3.0909,3.2788,3.37,3.355,3.3213,3.2698,3.1327,2.9174,0.0,0.0,0.0,0.0,0.0,0.0,0.0,0.0,0.0,0.0,0.0,0.0,0.0,0.0,0.0,0.0,0.0,0.0,0.0,0.0,0.0,0.0,0.0,0.0,0.0,0.0,0.0,0.0,2.167,2.1604,2.1433,0.0,0.0,0.0,0.0,0.0,0.0,0.0,0.0,0.0,0.0,3.581,3.7536,3.8215,3.8508,3.8508,3.8169,3.7969,3.8185,3.703,3.5506,3.369,0.0,0.0,0.0,0.0,0.0,0.0,0.0,0.0,0.0,0.0,0.0,0.0,0.0,0.0,0.0,0.0,0.0,0.0,0.0,0.0,0.0,0.0,0.0,0.0,0.0,0.0,0.0,2.226,0.0,0.0,2.043,0.0,0.0,0.0,0.0,0.0,0.0,0.0,0.0,0.0,0.0,0.0,0.0,0.0,0.0,0.0,0.0,0.0,0.0,0.0,0.0,0.0,0.0,2.5372,2.8084,3.0581,3.2406,3.3674,3.3966,3.363,3.2738,3.2071,3.014,2.6758,0.0,0.0,0.0,0.0,0.0,0.0,0.0,0.0,0.0,0.0,0.0,0.0,0.0,0.0,0.0,0.0,0.0,0.0,0.0,0.0,0.0,0.0,0.0,0.0,0.0,0.0,2.1477,2.1246,2.0956,0.0,0.0,0.0,0.0,0.0,0.0,0.0,0.0,0.0,0.0,3.5123,3.6953,3.8277,3.8508,3.8554,3.8554,3.7461,3.6815,3.7477,3.7446,3.6522,0.0,0.0,0.0,0.0,0.0,0.0,0.0,0.0,0.0,0.0,0.0,0.0,0.0,0.0,0.0,0.0,0.0,0.0,0.0,0.0,0.0,0.0,0.0,0.0,0.0,0.0,0.0,2.5261,2.4678,0.0,0.0,0.0,0.0,0.0,0.0,0.0,0.0,0.0,0.0,0.0,2.5912,2.6465,0.0,0.0,0.0,0.0,0.0,0.0,0.0,0.0,0.0,0.0,0.0,0.0,2.536,2.8059,3.0529,3.2421,3.3674,3.3937,3.3656,3.2725,3.2098,2.9862,2.5712,0.0,0.0,0.0,0.0,0.0,0.0,0.0,0.0,0.0,0.0,0.0,0.0,0.0,0.0,0.0,0.0,0.0,0.0,0.0,0.0,0.0,0.0,0.0,0.0,0.0,2.2498,0.0,0.0,0.0,0.0,0.0,0.0,0.0,0.0,0.0,0.0,0.0,3.1136,3.3152,3.5199,3.6984,3.8323,3.8908,3.9305,0.0,0.0,0.0,0.0,0.0,0.0,0.0,0.0,0.0,0.0,0.0,0.0,0.0,0.0,3.4631,3.1048,2.9848,2.9612,3.0258,0.0,0.0,0.0,0.0,0.0,0.0,0.0,0.0,0.0,0.0,0.0,0.0,0.0,0.0,2.6824,0.0,2.5463,0.0,0.0,0.0,0.0,0.0,0.0,0.0,0.0,2.7278,2.8209,2.8185,2.8725,2.8386,0.0,2.6804,2.5021,0.0,0.0,0.0,0.0,0.0,0.0,0.0,0.0,2.6025,2.836,3.0808,3.2638,3.3661,3.3937,3.3656,3.2725,3.1561,2.934,2.5968,2.4403,2.2955,0.0,0.0,0.0,0.0,0.0,0.0,0.0,0.0,0.0,0.0,0.0,0.0,0.0,0.0,0.0,0.0,0.0,0.0,0.0,0.0,0.0,0.0,0.0,2.3273,0.0,0.0,0.0,0.0,0.0,0.0,0.0,0.0,0.0,2.842,3.0758,3.3096,3.4932,3.6731,3.8278,3.9392,0.0,0.0,0.0,0.0,0.0,0.0,0.0,3.5959,3.6161,3.5461,3.5081,3.5778,3.7012,3.7748,3.7297,0.0,0.0,3.3892,3.2831,3.2736,3.3383,3.386,3.4229,3.4475,3.5245,3.5753,0.0,0.0,0.0,0.0,0.0,0.0,0.0,0.0,2.7997,2.7756,0.0,2.6911,0.0,0.0,0.0,0.0,0.0,2.6063,0.0,0.0,3.0068,3.0846,2.9942,3.0432,3.0105,2.9076,2.9553,2.8662,2.6499,2.3326,0.0,0.0,0.0,0.0,0.0,0.0,2.7329,2.8925,3.1352,3.294,3.3687,3.3979,3.3738,3.2804,3.0627,2.8895,2.7668,2.6548,2.515,2.343,2.2259,0.0,0.0,0.0,0.0,0.0,0.0,0.0,0.0,0.0,0.0,0.0,0.0,0.0,0.0,0.0,0.0,0.0,0.0,0.0,0.0,2.3187,0.0,0.0,0.0,0.0,0.0,0.0,0.0,0.0,0.0,0.0,3.0794,3.2897,3.5459,3.8169,0.0,0.0,0.0,0.0,4.1272,4.0718,4.0047,3.9405,3.8831,3.8645,3.8375,3.7803,0.0,0.0,3.8817,3.9831,4.0309,3.8978,3.9372,3.9468,3.8807,3.7463,3.6831,3.7479,3.7649,3.791,3.8606,3.9634,4.0464,3.196,0.0,0.0,0.0,0.0,2.9894,3.0792,3.2427,3.1952,3.128,3.0442,2.9504,0.0,0.0,0.0,0.0,0.0,0.0,2.8674,2.9151,3.0683,3.1424,3.1537,3.2102,3.1976,3.1273,3.1035,3.0419,2.9365,2.7256,2.4933,2.2456,0.0,0.0,0.0,0.0,2.7883,2.9541,3.1567,3.2953,3.37,3.4524,3.4767,3.4413,3.2516,3.1143,3.0389,2.9214,2.7952,2.6596,2.4951,0.0,0.0,0.0,0.0,0.0,0.0,0.0,0.0,0.0,0.0,0.0,0.0,0.0,0.0,0.0,0.0,0.0,0.0,0.0,2.2456,2.3251,2.3775,0.0,0.0,0.0,0.0,0.0,0.0,0.0,0.0,0.0,3.5289,3.6458,3.7883,0.0,0.0,4.0718,4.1401,4.1513,4.1805,4.2663,4.219,0.0,0.0,4.1441,4.0859,4.112,4.1897,4.2589,4.2939,4.3347,4.3477,4.3057,4.3137,4.323,4.2909,4.1006,3.9915,4.0894,4.1217,4.1636,4.2715,4.3342,4.3565,3.5215,3.3131,3.2051,3.2026,3.2667,3.2475,3.3248,3.4679,3.4268,3.3647,3.2878,3.1994,3.0451,2.8397,2.7369,0.0,0.0,0.0,3.0444,3.1449,3.2089,3.2566,3.2893,3.3244,3.3106,3.2554,3.2336,3.2066,3.1735,3.0854,2.9216,2.6752,0.0,0.0,2.6178,2.7921,2.9683,3.146,3.3171,3.4306,3.4718,3.5061,3.5179,3.5059,3.3558,3.2452,3.1866,3.1166,3.0205,2.8984,2.7428,2.5779,0.0,0.0,0.0,0.0,0.0,0.0,0.0,0.0,0.0,0.0,0.0,2.1,1.9262,0.0,0.0,0.0,2.2328,2.361,2.456,2.5002,0.0,0.0,0.0,0.0,0.0,0.0,0.0,3.3939,3.5834,3.7495,3.9125,3.9952,4.0616,4.1209,4.1515,4.1911,4.262,0.0,4.3495,4.437,4.4368,4.4325,4.4552,4.3896,4.3453,4.3801,4.4478,4.503,4.5476,4.5599,4.5635,4.5571,4.5375,4.5275,4.555,4.415,4.3021,4.3465,4.3773,4.4228,4.5046,4.5388,4.5599,3.7776,3.7098,3.4537,3.4035,3.4901,3.5166,3.5423,3.5646,3.5393,3.5082,3.4813,3.4223,3.3068,3.1436,2.9993,0.0,3.0909,3.1411,3.252,3.4079,3.4004,3.4048,3.418,3.4085,3.3795,3.3376,3.356,3.3683,3.3697,3.3932,3.355,3.2432,2.8904,2.7927,2.9579,3.0784,3.2233,3.4044,3.5544,3.6334,3.6439,3.5615,3.5221,3.5303,3.4066,3.3168,3.267,3.2543,3.1936,3.0771,2.9588,2.7853,2.5497,0.0,0.0,0.0,0.0,0.0,0.0,0.0,0.0,0.0,0.0,0.0,0.0,0.0,0.0,0.0,2.4612,0.0,2.742,2.767,0.0,0.0,0.0,2.8693,3.0275,3.2099,3.4072,3.6261,0.0,0.0,4.2132,4.3031,4.3294,4.2737,4.3166,4.3775,4.4496,4.5083,4.5618,4.5583,4.6244,4.6494,4.6015,4.5889,4.5889,4.6036,4.6529,4.6832,4.6967,4.7024,4.7033,4.7003,4.6471,4.6254,4.6853,4.6838,4.6577,4.5408,4.5586,4.5992,4.6157,4.6598,4.6972,3.8642,3.8429,3.7287,3.6734,3.6596,3.6644,3.6958,3.7349,3.6883,3.6417,3.5952,3.4964,3.3834,3.2722,3.2704,3.2867,3.3144,3.3684,3.4508,3.5512,3.4812,3.5287,3.6609,3.5473,3.5227,3.5728,3.5304,3.509,3.5103,3.4761,3.4458,3.417,3.2853,3.2021,3.1663,3.2722,3.3821,3.4826,3.579,3.678,3.7691,3.6546,3.6222,3.6836,3.5632,3.4894,3.4765,3.3773,3.3083,3.2748,3.1086,2.9605,2.855,2.6298,0.0,0.0,0.0,0.0,0.0,0.0,0.0,0.0,0.0,2.3714,2.0912,0.0,2.4156,0.0,2.5959,2.7046,2.6881,2.7665,0.0,0.0,3.0674,3.1726,3.4874,3.5604,3.6728,3.8933,4.0601,4.1967,4.3003,4.3826,4.4271,4.4097,4.4215,4.4367,4.4615,4.4733,4.506,4.5602,4.5889,4.6304,4.7167,4.7389,4.7524,4.8161,4.7912,4.7834,4.8392,4.8503,4.8498,4.8483,4.8373,4.8314,4.8416,4.8498,4.8366,4.8015,4.7698,4.7571,4.8119,4.8349,4.8467,4.064,4.0551,3.9782,3.9509,3.9602,3.8458,3.8115,3.8341,3.7789,3.7465,3.7343,3.667,3.5784,3.4866,3.5327,3.5465,3.534,3.6022,3.6757,3.7422,3.6975,3.714,3.7898,3.7061,3.6632,3.6579,3.6605,3.6449,3.6188,3.63,3.6312,3.6312,3.6013,3.5545,3.495,3.4942,3.5429,3.6465,3.7086,3.7796,3.8546,3.7372,3.6808,3.6937,3.5729,3.4906,3.4622,3.3888,3.3215,3.2632,3.1569,3.0268,2.8783,2.7315,2.5884,0.0,0.0,0.0,0.0,0.0,0.0,0.0,0.0,0.0,0.0,0.0,2.5867,2.6723,2.8328,2.9536,3.0022,3.0948,3.2117,3.3535,3.3572,3.4693,3.773,3.8046,3.8892,4.1199,4.2196,4.3,4.3798,4.4344,4.4598,4.4598,4.4598,4.4598,4.4632,4.4886,4.5229,4.5635,4.5991,4.6583,4.772,4.7601,4.7767,4.8697,4.8392,4.8125,4.8866,4.9018,4.9018,4.9018,4.9018,4.9018,4.9018,4.9018,4.9018,4.894,4.8688,4.8576,4.894,4.9018,4.9018,4.2792,4.2695,4.1815,4.195,4.2606,4.0376,3.9398,3.9372,3.8602,3.8421,3.8593,3.8528,3.8044,3.7324,3.7636,3.7604,3.7364,3.8132,3.8839,3.9373,3.9241,3.9071,3.8882,3.8644,3.8042,3.7085,3.7732,3.7724,3.7106,3.781,3.8202,3.8202,3.8202,3.8202,3.8136,3.6987,3.701,3.8225,3.8612,3.8907,3.909,3.7953,3.7086,3.6477,3.5207,3.4159,3.341,3.3365,3.2811,3.16,3.1496,3.0432,2.8124,2.7809,2.7136,0.0,2.5644,0.0,0.0,0.0,0.0,0.0,0.0,0.0,0.0,2.6555,2.8126,2.9729,3.1151,3.2643,3.427,3.5081,3.573,3.627,3.6517,3.7412,3.9355,3.9801,4.0758,4.2942,4.3272,4.3676,4.4434,4.4598,4.4598,4.4598,4.4598,4.4598,4.4649,4.5077,4.5466,4.5568,4.6177,4.6752,4.7479,4.731,4.7479,4.8612,4.8528,4.8274,4.8883,4.9018,4.9018,4.9018,4.9018,4.9018,4.9018,4.9018,4.9018,4.9001,4.897,4.897,4.9018,4.9018,4.9018,4.2792,4.2792,4.2598,4.2598,4.273,4.2283,4.2096,4.1959,4.0546,3.9433,3.8619,3.8899,3.8945,3.8813,3.8881,3.8851,3.8782,3.8945,3.9527,4.0275,3.9549,4.0002,4.1265,4.0055,3.9449,3.9427,3.9096,3.8611,3.7962,3.8113,3.8202,3.8202,3.8202,3.8202,3.8202,0.0,0.0,0.0,3.8671,3.8907,3.906,3.7827,3.695,3.6492,3.519,0.0,3.2781,3.2706,3.2318,3.1555,3.1496,0.0,0.0,0.0,0.0,0.0,0.0,0.0,0.0,0.0,0.0,0.0,2.9265,2.8951,2.8023,3.0529,3.2106,3.1928,3.3561,3.4589,3.444,3.5391,3.633,3.7021,3.8045,3.9179,4.029,4.1416,4.2478,4.3093,4.3738,4.4215,4.4536,4.4598,4.4598,4.4598,4.4598,4.4598,4.4598,4.475,4.4835,4.4869,4.5449,4.616,4.6887,4.7344,4.7784,4.8748,4.8934,4.8815,4.8883,4.8951,4.8984,4.8951,4.9018,4.8984,4.8984,4.9018,4.9018,4.9018,4.9018,4.9018,4.9018,4.9018,4.9018,4.434,0.0,4.3735,4.3843,0.0,4.3748,4.3857,4.4205,4.2107,4.0797,4.0137,4.0771,4.0625,3.9942,4.0417,4.0374,3.9899,4.0417,4.0859,4.1296,4.0859,4.1142,4.2078,4.1275,4.0773,4.0568,3.9958,3.932,3.8696,3.8362,3.8202,3.8202,3.8202,3.824,3.8352,3.8538,3.8649,3.8649,3.8833,3.8995,3.9045,3.7898,3.7018,3.6462,0.0,0.0,0.0,0.0,0.0,0.0,0.0,0.0,0.0,0.0,0.0,2.9056,2.8999,2.9011,2.9041,2.9654,3.0298,3.0986,3.2202,3.2374,3.1095,3.2545,3.3888,3.4749,3.5781,3.6474,3.6821,3.7725,3.8433,3.881,3.9748,4.0641,4.1443,4.2202,4.2915,4.3551,4.3961,4.4298,4.457,4.4598,4.4598,4.4598,4.4598,4.4598,4.4598,4.4598,4.4598,4.4598,4.4886,4.5415,4.6109,4.6532,4.709,4.7716,4.7919,4.7919,4.7919,4.7902,4.7902,4.7936,4.8189,4.8477,4.8511,4.8748,4.9018,4.9018,4.9018,4.9018,4.9018,4.9018,4.9018,4.588,4.5835,4.4943,4.5095,4.5835,4.4943,4.5095,4.5732,0.0,0.0,0.0,4.2696,4.2251,4.1085,4.1774,4.1633,4.093,4.1731,4.2092,4.2092,4.2092,4.2092,4.2092,4.2092,4.1744,4.1091,4.0408,3.977,3.9204,3.8522,3.8202,3.8202,3.8202,3.8292,3.8501,3.8686,3.8833,3.887,3.898,3.9068,3.9075,3.7953,3.7086,3.6507,3.4651,3.3305,3.2512,3.2079,3.1569,3.0911,3.0971,3.0746,3.0163,3.0582,3.1032,3.1496,3.2123,3.2497,3.2497,3.2736,3.2976,3.3171,3.4788,3.5282,3.4102,3.4203,3.5256,3.7476,3.7769,3.8303,3.9377,4.0144,4.0564,4.058,4.1193,4.1827,4.239,4.2638,4.3099,4.3864,4.4023,4.4184,4.4485,4.4542,4.457,4.4598,4.4598,4.4598,4.4598,4.4598,4.4598,4.4615,4.4682,4.4902,4.55,4.5754,4.5991,4.6769,4.687,4.6786,4.6786,4.6786,4.6786,4.6904,4.7327,4.7648,4.7736,4.8274,4.8781,4.8815,4.8917,4.9018,4.9018,4.9018,4.9018,4.588,4.588,4.573,4.5776,4.5895,4.5745,4.5745,4.5837,4.4888,4.3993,4.3167,4.3056,4.2892,4.2649,4.2283,4.2009,4.1912,4.2065,4.2092,4.2092,4.2092,4.2092,4.2092,4.2092,4.1744,4.1076,4.0408,3.9784,3.9189,3.8536,3.8202,3.8202,3.8202,3.8292,3.8516,3.8686,3.887,3.9068,3.8892,3.8943,3.9075,3.7827,3.6915,3.6477,3.5132,3.3754,3.2542,3.2961,3.2916,3.2302,3.2766,3.2781,3.2153,3.2183,3.2018,3.1585,3.2123,3.2497,3.2527,3.3559,3.4678,3.5768,3.664,3.6776,3.6124,3.6981,3.8038,3.8962,3.9544,4.0029,4.0293,4.0862,4.1276,4.1326,4.1922,4.239,4.2522,4.3052,4.3538,4.3894,4.3927,4.4027,4.4298,4.4338,4.4412,4.4525,4.457,4.4598,4.4598,4.4598,4.4598,4.4598,4.4598,4.4919,4.5432,4.5703,4.5923,4.6684,4.6701,4.6599,4.6599,4.6599,4.6599,4.6735,4.6836,4.6938,4.6972,4.7547,4.802,4.8156,4.8562,4.8934,4.8968,4.9018,4.9018,4.588,4.588,4.588,4.588,4.588,4.588,4.588,4.5866,4.5561,4.499,4.423,4.408,4.3645,4.2992,4.2716,4.2397,4.2092,4.2092,4.2092,4.2092,4.2092,4.2092,4.2092,4.2092,4.1947,4.1599,4.096,4.0307,3.9683,3.9044,3.8565,3.8231,3.8329,3.8464,3.8634,3.887,3.9053,3.9265,3.9192,3.9177,3.925,3.8311,3.754,3.7,3.5714,3.4592,3.3619,3.3529,3.3365,3.3051,3.3335,3.3365,3.308,3.338,3.3455,3.317,3.3769,3.4143,3.4128,3.5362,3.6531,3.7461,3.8507,3.8964,3.8659,3.8795,3.9324,4.0326,4.0763,4.0945,4.0961,4.1591,4.1976,4.1993,4.2638,4.3069,4.3102,4.335,4.3687,4.3852,4.3881,4.3969,4.4184,4.4253,4.4338,4.444,4.4514,4.4598,4.4598,4.4598,4.4598,4.4598,4.4598,4.4716,4.5043,4.5094,4.5246,4.5596,4.5613,4.5613,4.5613,4.563,4.5647,4.5664,4.5906,4.6177,4.621,4.6802,4.7361,4.7872,4.8108,4.8494,4.8849,4.9018,4.9018,4.588,4.588,4.588,4.588,4.588,4.588,4.588,4.588,4.588,4.559,4.514,4.4966,4.4269,4.3268,4.305,4.2658,4.215,4.2092,4.2092,4.2092,4.2092,4.2092,4.2092,4.2092,4.2092,4.2005,4.1424,4.0829,4.0292,3.9567,3.8855,3.8275,3.8404,3.859,3.8708,3.898,3.9192,3.9337,3.9373,3.9388,3.9358,3.8751,3.8078,3.7389,3.6312,3.5415,3.4758,3.4218,3.3948,3.3948,3.3948,3.3948,3.3978,3.4427,3.4696,3.4803,3.5355,3.5854,3.6232,3.7273,3.8214,3.8902,4.0041,4.075,4.0893,4.0424,4.0402,4.1257,4.1513,4.1657,4.1728,4.2291,4.2738,4.2787,4.3234,4.3549,4.3598,4.3615,4.3658,4.3793,4.3839,4.3881,4.4056,4.4184,4.4281,4.4384,4.4514,4.4598,4.4598,4.4598,4.4598,4.4598,4.4598,4.4615,4.4598,4.4615,4.4649,4.4598,4.4649,4.4733,4.4716,4.4649,4.4615,4.4767,4.5077,4.5399,4.55,4.6041,4.6684,4.7192,4.7584,4.8159,4.8849,4.9001,4.9018,4.588,4.588,4.588,4.588,4.588,4.588,4.588,4.588,4.588,4.5866,4.5706,4.5155,4.4531,4.3877,4.3282,4.2702,4.2136,4.2092,4.2092,4.2092,4.2092,4.2092,4.2092,4.2092,4.2092,4.202,4.1439,4.1091,4.0887,3.9784,3.887,3.8275,3.8404,3.853,3.859,3.8922,3.9104,3.9141,3.9301,3.9388,3.9343,3.8736,3.8078,3.7419,3.6776,3.6088,3.5429,3.534,3.531,3.531,3.5265,3.5295,3.531,3.5385,3.5415,3.5444,3.6028,3.6926,3.8069,3.884,3.9501,4.0266,4.0942,4.1642,4.222,4.222,4.1935,4.1728,4.2042,4.2402,4.2423,4.3035,4.3416,4.34,4.3532,4.3615,4.3615,4.3615,4.3628,4.3628,4.3674,4.3687,4.3881,4.4027,4.4212,4.444,4.4542,4.457,4.457,4.4598,4.4598,4.4598,4.4598,4.4598,4.4598,4.4598,4.4598,4.4598,4.4598,4.4598,4.4598,4.4598,4.4598,4.4615,4.4666,4.4801,4.4908,4.5263,4.5821,4.6312,4.709,4.8108,4.8781,4.9018,4.9018,4.588,4.588,4.588,4.588,4.588,4.588,4.588,4.588,4.588,4.588,4.5851,4.559,4.5126,4.4501,4.3863,4.3239,4.2615,4.2252,4.2092,4.2092,4.2092,4.2092,4.2092,4.2092,4.2092,4.2078,4.1802,4.1482,4.1004,4.0176,3.9407,3.8855,3.8873,3.8835,3.873,3.8833,3.9031,3.925,3.9337,3.9388,3.9358,3.9119,3.8676,3.8048,3.7749,3.712,3.6207,3.6088,3.5908,3.5549,3.5489,3.5489,3.5504,3.5863,3.6088,3.6118,3.6686,3.7451,3.8376,3.9428,4.0341,4.1039,4.2076,4.2837,4.3102,4.3151,4.2986,4.2804,4.2969,4.3135,4.3168,4.3416,4.3615,4.3615,4.3615,4.3615,4.3615,4.3615,4.3615,4.3615,4.3615,4.3628,4.3717,4.3881,4.4056,4.4286,4.4355,4.444,4.444,4.4514,4.4598,4.4598,4.4598,4.4598,4.4598,4.4598,4.4598,4.4598,4.4598,4.4598,4.4598,4.4598,4.4598,4.4598,4.4598,4.4598,4.4632,4.4773,4.5145,4.5703,4.6853,4.8091,4.8849,4.9001,4.9018,4.588,4.588,4.588,4.588,4.588,4.588,4.588,4.588,4.588,4.588,4.588,4.588,4.5619,4.5111,4.4516,4.379,4.3007,4.2542,4.2237,4.2107,4.2092,4.2092,4.2092,4.2092,4.2092,4.2092,4.2078,4.1744,4.1105,4.0641,4.006,3.9523,3.9353,3.9171,3.9032,3.8878,3.898,3.9265,3.9316,3.9352,3.9373,3.9388,3.9095,3.8467,3.8377,3.7868,3.6806,3.6746,3.6447,3.5833,3.5938,3.5953,3.5804,3.6387,3.6821,3.7015,3.7419,3.8062,3.8917,4.0095,4.1054,4.1772,4.2943,4.3615,4.3615,4.3615,4.3615,4.3565,4.3615,4.3582,4.3615,4.3615,4.3615,4.3615,4.3615,4.3615,4.3615,4.3615,4.3615,4.3615,4.3615,4.3628,4.3704,4.3822,4.3985,4.4114,4.4212,4.4281,4.431,4.444,4.4514,4.457,4.4598,4.4598,4.4598,4.4598,4.4598,4.4598,4.4598,4.4598,4.4598,4.4598,4.4598,4.4598,4.4598,4.4598,4.4598,4.4666,4.4869,4.5669,4.6718,4.7817,4.843,4.8765,4.8984,4.588,4.588,4.588,4.588,4.588,4.588,4.588,4.588,4.588,4.588,4.588,4.588,4.5866,4.5764,4.5126,4.4168,4.3123,4.2948,4.26,4.2136,4.2092,4.2092,4.2092,4.2092,4.2092,4.2092,4.2092,4.1773,4.1163,4.1076,4.0713,4.0075,3.9746,3.951,3.9381,3.9047,3.8907,3.9119,3.9141,3.9228,3.9388,3.9388,3.911,3.8512,3.8407,3.8108,3.7464,3.7375,3.7075,3.6462,3.6941,3.703,3.6567,3.703,3.7644,3.8197,3.8317,3.8933,4.014,4.0917,4.1658,4.2412,4.3066,4.3598,4.3615,4.3615,4.3615,4.3615,4.3615,4.3615,4.3615,4.3615,4.3615,4.3615,4.3615,4.3615,4.3615,4.3615,4.3615,4.3615,4.3615,4.3674,4.3839,4.3881,4.3939,4.401,4.4097,4.4155,4.4281,4.431,4.444,4.4542,4.4598,4.4598,4.4598,4.4598,4.4598,4.4598,4.4598,4.4598,4.4598,4.4598,4.4598,4.4598,4.4598,4.4598,4.4598,4.475,4.5004,4.5585,4.6329,4.7225,4.8058,4.8599,4.89,4.588,4.588,4.588,4.588,4.588,4.588,4.588,4.588,4.588,4.588,4.588,4.588,4.588,4.588,4.5634,4.4835,4.3645,4.3195,4.2673,4.2136,4.2092,4.2092,4.2092,4.2092,4.2092,4.2092,4.2092,4.1976,4.1773,4.1744,4.1395,4.0869,4.0733,4.0329,3.966,3.945,3.9276,3.8951,3.9031,3.9141,3.9228,3.9352,3.9254,3.9065,3.905,3.8736,3.8063,3.8033,3.7734,3.7105,3.73,3.7315,3.7165,3.7674,3.8332,3.8945,3.905,3.9262,3.9814,4.0478,4.116,4.1868,4.2538,4.3174,4.3509,4.3615,4.3615,4.3615,4.3615,4.3615,4.3615,4.3615,4.3615,4.3615,4.3615,4.3615,4.3615,4.3615,4.3615,4.3615,4.3615,4.3628,4.3704,4.3734,4.3734,4.3805,4.3952,4.4097,4.4184,4.4327,4.4468,4.457,4.4598,4.4598,4.4598,4.4598,4.4598,4.4598,4.4598,4.4598,4.4598,4.4598,4.4598,4.4598,4.4598,4.4598,4.4598,4.4632,4.4936,4.5449,4.6194,4.6989,4.7736,4.8443,4.8832,4.588,4.588,4.588,4.588,4.588,4.588,4.588,4.588,4.588,4.588,4.588,4.588,4.588,4.588,4.588,4.5329,4.4313,4.379,4.3181,4.244,4.2382,4.2281,4.2121,4.2092,4.2092,4.2092,4.2092,4.2092,4.2092,4.2175,4.1968,4.1546,4.1529,4.1106,4.0314,4.015,3.9807,3.935,3.9328,3.9364,3.9258,3.9337,3.9388,3.9388,3.9388,3.9215,3.8721,3.8721,3.8407,3.7853,3.7928,3.8048,3.8108,3.8482,3.8931,3.9313,3.9388,3.9388,3.9496,4.0076,4.0703,4.1176,4.2061,4.282,4.3235,4.3462,4.3598,4.3615,4.3615,4.3615,4.3615,4.3615,4.3615,4.3615,4.3615,4.3615,4.3615,4.3615,4.3615,4.3615,4.3615,4.3615,4.3615,4.3615,4.3615,4.3615,4.3805,4.3952,4.4056,4.42,4.4429,4.4485,4.4497,4.4525,4.457,4.4598,4.4598,4.4598,4.4598,4.4598,4.4598,4.4598,4.4598,4.4598,4.4598,4.4598,4.4598,4.4598,4.4902,4.5348,4.6126,4.6938,4.7648,4.8342,4.8714,4.588,4.588,4.588,4.588,4.588,4.588,4.588,4.588,4.588,4.588,4.588,4.588,4.588,4.588,4.588,4.5503,4.498,4.4806,4.4139,4.3079,4.2948,4.2644,4.2194,4.2121,4.2092,4.2092,4.2092,4.2092,4.2092,4.2284,4.2307,4.2286,4.1949,4.1705,4.1632,4.1061,4.0601,4.0143,4.0085,3.9891,3.9508,3.9508,3.9493,3.9448,3.9418,3.9358,3.9343,3.9364,3.9035,3.8571,3.8975,3.9343,3.9209,3.9284,3.9358,3.9373,3.9388,3.9388,3.9481,4.0041,4.0389,4.0752,4.177,4.2412,4.26,4.3143,4.3509,4.3479,4.3568,4.3615,4.3615,4.3615,4.3615,4.3615,4.3615,4.3615,4.3615,4.3615,4.3615,4.3615,4.3615,4.3615,4.3615,4.3615,4.3615,4.3598,4.3658,4.3747,4.391,4.4015,4.4056,4.4224,4.4338,4.4395,4.4497,4.4598,4.4598,4.4598,4.4598,4.4598,4.4598,4.4598,4.4598,4.4598,4.4598,4.4598,4.4598,4.4598,4.4598,4.5089,4.594,4.6701,4.7293,4.7902,4.8629,4.588,4.588,4.588,4.588,4.588,4.588,4.588,4.588,4.588,4.588,4.588,4.588,4.588,4.588,4.588,4.5764,4.5576,4.5532,4.4893,4.379,4.3224,4.2919,4.2658,4.2281,4.2092,4.2092,4.2092,4.2092,4.2133,4.2325,4.2392,4.2374,4.2522,4.2262,4.1774,4.1681,4.1359,4.0704,4.0692,4.0702,4.0554,4.0248,4.0098,4.0053,3.9664,3.9388,3.9388,3.9388,3.9305,3.9095,3.9269,3.9388,3.9388,3.9388,3.9388,3.9388,3.9388,3.9388,3.9424,3.961,4.0021,4.0459,4.094,4.136,4.1852,4.2522,4.2912,4.2974,4.3295,4.3615,4.3615,4.3615,4.3615,4.3615,4.3615,4.3615,4.3615,4.3615,4.3615,4.3615,4.3615,4.3615,4.3615,4.3615,4.3615,4.3645,4.3687,4.3822,4.3898,4.3939,4.4056,4.4138,4.4224,4.4321,4.4423,4.4542,4.457,4.457,4.4598,4.4598,4.4598,4.4598,4.4598,4.4598,4.4598,4.4598,4.4598,4.4598,4.4598,4.4835,4.5568,4.6194,4.6735,4.753,4.846,4.588,4.588,4.588,4.588,4.588,4.588,4.588,4.588,4.588,4.588,4.588,4.588,4.588,4.588,4.588,4.588,4.588,4.588,4.5459,4.4676,4.4008,4.3485,4.2992,4.2382,4.2092,4.2092,4.2092,4.2092,4.2092,4.2284,4.2433,4.2581,4.285,4.2817,4.2352,4.2426,4.2144,4.154,4.1528,4.1462,4.1203,4.0943,4.0771,4.0666,4.0127,3.9798,3.9768,3.9523,3.9388,3.9388,3.9388,3.9388,3.9388,3.9388,3.9388,3.9388,3.9388,3.9388,3.9388,3.9424,3.9553,4.0056,4.0355,4.0684,4.1227,4.1965,4.2585,4.2679,4.3204,4.3615,4.3615,4.3615,4.3615,4.3615,4.3615,4.3615,4.3615,4.3615,4.3615,4.3615,4.3615,4.3615,4.3615,4.3615,4.3615,4.3628,4.3687,4.3793,4.3793,4.3852,4.3952,4.401,4.4097,4.4241,4.4412,4.4468,4.4514,4.4542,4.4598,4.4598,4.4598,4.4598,4.4598,4.4598,4.4598,4.4598,4.4598,4.4598,4.4632,4.4976,4.5382,4.6177,4.6972,4.7851,4.868,4.588,4.588,4.588,4.588,4.588,4.588,4.588,4.588,4.588,4.588,4.588,4.588,4.588,4.588,4.588,4.588,4.588,4.588,4.5851,4.559,4.5082,4.4255,4.305,4.2484,4.2223,4.2092,4.2092,4.2092,4.2133,4.2325,4.25,4.2662,4.2875,4.3076,4.3066,4.326,4.2946,4.2453,4.2417,4.2132,4.1639,4.1497,4.1482,4.1422,4.0801,4.0457,4.0382,3.9903,3.9478,3.9403,3.9388,3.9388,3.9388,3.9388,3.9388,3.9388,3.9388,3.9388,3.9388,3.9388,3.9409,3.9553,4.0021,4.0459,4.0597,4.1459,4.2285,4.2412,4.3035,4.3509,4.3568,4.3492,4.3479,4.3522,4.3539,4.3615,4.3615,4.3615,4.3615,4.3615,4.3615,4.3615,4.3615,4.3615,4.3615,4.3598,4.3611,4.3628,4.3645,4.3717,4.3776,4.3864,4.3923,4.4085,4.4229,4.4367,4.4412,4.4468,4.4542,4.4587,4.4598,4.4598,4.4598,4.4598,4.4598,4.4598,4.4598,4.4598,4.475,4.5043,4.5652,4.6464,4.7259,4.8088,4.8612,4.588,4.588,4.588,4.588,4.588,4.588,4.588,4.588,4.588,4.588,4.588,4.588,4.588,4.588,4.588,4.588,4.588,4.588,4.588,4.5851,4.578,4.4603,4.3282,4.2832,4.2513,4.2179,4.2107,4.2092,4.2133,4.2284,4.2433,4.25,4.2835,4.3036,4.3076,4.321,4.323,4.3105,4.3075,4.2985,4.2746,4.2297,4.2156,4.2081,4.1474,4.1145,4.107,4.0502,3.9888,3.9433,3.9388,3.9388,3.9388,3.9388,3.9388,3.9388,3.9388,3.9388,3.9388,3.9388,3.9388,3.9409,3.9625,3.9681,3.9717,4.0512,4.1243,4.1722,4.2428,4.3052,4.3372,4.3143,4.2912,4.2943,4.3295,4.3568,4.3615,4.3615,4.3615,4.3615,4.3615,4.3615,4.3615,4.3615,4.3615,4.3615,4.3615,4.3615,4.3615,4.3598,4.3717,4.3717,4.3793,4.391,4.4056,4.4196,4.431,4.4367,4.4457,4.4592,4.4587,4.4598,4.4598,4.4598,4.4598,4.4598,4.4598,4.4598,4.4869,4.5111,4.5686,4.6397,4.7276,4.8075,4.8477,4.588,4.588,4.588,4.588,4.588,4.588,4.588,4.588,4.588,4.588,4.588,4.588,4.588,4.588,4.588,4.588,4.588,4.588,4.588,4.588,4.5866,4.5068,4.395,4.3355,4.2803,4.2484,4.2208,4.2092,4.2092,4.2201,4.231,4.2418,4.2729,4.2875,4.289,4.317,4.325,4.3195,4.325,4.3305,4.3245,4.297,4.2806,4.2641,4.2132,4.1737,4.1422,4.0995,4.0502,3.9948,3.9568,3.9388,3.9388,3.9388,3.9388,3.9388,3.9388,3.9388,3.9388,3.9388,3.9388,3.9388,3.9388,3.9388,3.9553,4.0091,4.0737,4.106,4.1754,4.2237,4.2538,4.2349,4.2475,4.2974,4.3127,4.3342,4.3568,4.3615,4.3615,4.3615,4.3615,4.3615,4.3615,4.3615,4.3615,4.3615,4.3615,4.3615,4.3615,4.3615,4.3628,4.3704,4.3645,4.3691,4.3859,4.4019,4.4399,4.444,4.4449,4.4562,4.4693,4.4671,4.4688,4.4688,4.4621,4.4649,4.4767,4.4852,4.4925,4.528,4.5754,4.6515,4.7479,4.8206,4.8562,4.588,4.588,4.588,4.588,4.588,4.588,4.588,4.588,4.588,4.588,4.588,4.588,4.588,4.588,4.588,4.588,4.588,4.588,4.588,4.588,4.5851,4.5459,4.4864,4.3703,4.3137,4.2847,4.2368,4.2177,4.2133,4.2133,4.2201,4.2392,4.2622,4.2688,4.2809,4.309,4.317,4.313,4.325,4.329,4.3305,4.3215,4.317,4.312,4.2776,4.2252,4.1848,4.1519,4.122,4.0651,3.9918,3.9597,3.9523,3.9493,3.9388,3.9388,3.9388,3.9388,3.9418,3.9514,3.9538,3.9582,3.9642,3.9582,3.9877,4.039,4.0784,4.1044,4.1232,4.1519,4.1492,4.1459,4.2109,4.2951,4.2951,4.3121,4.3567,4.3698,4.3615,4.3615,4.3615,4.3615,4.3615,4.3664,4.3731,4.4075,4.4045,4.4194,4.4004,4.3767,4.377,4.378,4.3631,4.3452,4.3638,4.3823,4.4291,4.4575,4.4492,4.4566,4.4863,4.4887,4.4862,4.493,4.5348,4.5427,4.5258,4.5292,4.5319,4.5889,4.6667,4.7259,4.7872,4.846,4.8883,4.588,4.588,4.588,4.588,4.588,4.588,4.588,4.588,4.588,4.588,4.588,4.588,4.588,4.588,4.588,4.588,4.588,4.588,4.588,4.588,4.588,4.5837,4.5401,4.4356,4.3544,4.3065,4.2411,4.2204,4.2272,4.2245,4.2216,4.2392,4.2622,4.2688,4.2769,4.309,4.329,4.325,4.329,4.329,4.3305,4.3305,4.3305,4.3275,4.3125,4.3035,4.2836,4.2417,4.2141,4.1737,4.0861,4.0187,4.0113,3.9768,3.9589,3.9538,3.9478,3.9484,3.9493,3.9933,4.0187,4.0232,4.0561,4.0965,4.0965,4.1025,4.1453,4.174,4.1661,4.1272,4.1053,4.1274,4.1956,4.2701,4.3202,4.3798,4.4754,4.4293,4.3813,4.3714,4.3714,4.3631,4.3668,4.4167,4.4329,4.4475,4.4627,4.4889,4.449,4.3883,4.3555,4.335,4.2929,4.2681,4.3114,4.3451,4.4053,4.4462,4.448,4.4935,4.5208,4.5023,4.497,4.5546,4.6363,4.6181,4.5647,4.6005,4.6098,4.6832,4.7389,4.7717,4.8107,4.8675,4.8861,4.588,4.588,4.588,4.588,4.588,4.588,4.588,4.588,4.588,4.588,4.588,4.588,4.588,4.588,4.588,4.588,4.588,4.588,4.588,4.588,4.588,4.588,4.5721,4.498,4.4168,4.3747,4.2934,4.2682,4.2663,4.2471,4.2351,4.2541,4.2729,4.2769,4.2769,4.309,4.3195,4.3195,4.325,4.3305,4.3305,4.3305,4.3305,4.3305,4.3305,4.3305,4.3215,4.3015,4.2851,4.2506,4.1594,4.0861,4.0846,4.0531,4.0352,4.0337,4.0337,4.0337,4.0472,4.0636,4.0861,4.0861,4.1205,4.1347,4.1422,4.1422,4.1558,4.1767,4.1626,4.1355,4.1372,4.127,4.1914,4.2748,4.3042,4.3606,4.4414,4.4617,4.4638,4.4638,4.4721,4.4443,4.4448,4.4487,4.4554,4.4542,4.409,4.4252,4.4023,4.3443,4.2816,4.2462,4.1964,4.1897,4.246,4.3038,4.3778,4.4162,4.4415,4.5201,4.5962,4.5538,4.5032,4.577,4.6444,4.6207,4.5865,4.6321,4.6622,4.6865,4.7235,4.7764,4.8098,4.8237,4.8306,4.588,4.588,4.588,4.588,4.588,4.588,4.588,4.588,4.588,4.588,4.588,4.588,4.588,4.588,4.588,4.588,4.588,4.588,4.588,4.588,4.588,4.588,4.5721,4.5343,4.501,4.4879,4.3573,4.3133,4.3123,4.2799,4.2514,4.2729,4.2915,4.2915,4.289,4.309,4.3235,4.3155,4.325,4.3305,4.3305,4.3305,4.3305,4.3305,4.3305,4.3305,4.3305,4.3245,4.326,4.323,4.2252,4.1788,4.1609,4.1332,4.1272,4.116,4.11,4.1197,4.1212,4.1384,4.1534,4.1572,4.1698,4.1728,4.1773,4.1863,4.1916,4.1811,4.1776,4.1738,4.216,4.1719,4.2142,4.2983,4.2922,4.304,4.3826,4.5031,4.5391,4.511,4.4674,4.4318,4.4349,4.4394,4.4491,4.4521,4.4042,4.3661,4.3464,4.3067,4.2497,4.1881,4.1406,4.1697,4.2237,4.2997,4.3686,4.3957,4.4252,4.5107,4.6089,4.5824,4.5379,4.5767,4.6121,4.6005,4.6038,4.6319,4.655,4.6698,4.6913,4.7308,4.7539,4.7688,4.7721,4.588,4.588,4.588,4.588,4.588,4.588,4.588,4.588,4.588,4.588,4.588,4.588,4.588,4.588,4.588,4.588,4.588,4.588,4.588,4.588,4.588,4.588,4.5822,4.5721,4.5648,4.5213,4.4109,4.3407,4.3453,4.2867,4.2695,4.289,4.2981,4.2981,4.3036,4.317,4.329,4.321,4.325,4.3305,4.3305,4.3305,4.3305,4.3305,4.3305,4.3305,4.3305,4.3305,4.3305,4.3275,4.308,4.2916,4.2551,4.1474,4.0905,4.0995,4.1354,4.1639,4.1639,4.1991,4.2186,4.2351,4.2566,4.2841,4.2886,4.2886,4.2737,4.2731,4.2402,4.2113,4.158,4.164,4.2168,4.2993,4.343,4.3695,4.4741,4.5203,4.5085,4.4381,4.4093,4.4097,4.4246,4.438,4.4491,4.4579,4.4365,4.3865,4.3523,4.2975,4.233,4.1628,4.0962,4.1526,4.2161,4.2971,4.3693,4.3826,4.4152,4.4674,4.5421,4.5654,4.5741,4.5775,4.61,4.6332,4.638,4.6364,4.6413,4.6528,4.6674,4.6804,4.6885,4.6967,4.6983,4.588,4.588,4.588,4.588,4.588,4.588,4.588,4.588,4.588,4.588,4.588,4.588,4.588,4.588,4.588,4.588,4.588,4.588,4.588,4.588,4.588,4.588,4.5925,4.5925,4.588,4.5591,4.4778,4.4294,4.4488,4.3225,4.3064,4.3477,4.3364,4.317,4.317,4.325,4.3305,4.3305,4.3305,4.3305,4.3305,4.3305,4.3305,4.3305,4.3305,4.3305,4.3305,4.3305,4.3305,4.323,4.2985,4.288,4.2566,4.2147,4.1549,4.1848,4.2162,4.2357,4.2372,4.2731,4.2851,4.288,4.314,4.3275,4.3305,4.3245,4.3305,4.3215,4.3165,4.2761,4.2476,4.2342,4.273,4.3143,4.3388,4.3754,4.4251,4.4457,4.4064,4.3658,4.4319,4.4531,4.4216,4.4382,4.4507,4.4567,4.4529,4.4099,4.3541,4.2958,4.2215,4.1778,4.1204,4.1519,4.2171,4.2842,4.3494,4.3689,4.399,4.4526,4.4821,4.511,4.5221,4.5233,4.5737,4.6182,4.6154,4.5946,4.6122,4.6218,4.617,4.6138,4.6186,4.6234,4.6234,4.588,4.588,4.588,4.588,4.588,4.588,4.588,4.588,4.588,4.588,4.588,4.588,4.588,4.588,4.588,4.588,4.5925,4.5925,4.597,4.6001,4.606,4.606,4.606,4.597,4.5956,4.5899,4.5405,4.5405,4.5151,4.4057,4.3786,4.3911,4.3678,4.3379,4.3334,4.329,4.3305,4.3305,4.3305,4.3305,4.3305,4.3305,4.3305,4.3305,4.3305,4.3305,4.3305,4.3305,4.3305,4.3185,4.2955,4.2626,4.2605,4.259,4.2791,4.3185,4.329,4.3305,4.326,4.3215,4.32,4.3185,4.3275,4.3305,4.3305,4.3305,4.3305,4.3305,4.326,4.323,4.311,4.323,4.3269,4.3269,4.3309,4.3329,4.3457,4.3566,4.363,4.3807,4.4737,4.4682,4.4082,4.393,4.4014,4.3991,4.3967,4.3602,4.3098,4.2796,4.2266,4.1964,4.1716,4.1768,4.2201,4.2689,4.322,4.3497,4.3836,4.4289,4.4458,4.461,4.4708,4.4896,4.5104,4.5494,4.5458,4.5478,4.5494,4.5494,4.5494,4.5478,4.5494,4.5494,4.5494,4.588,4.588,4.588,4.588,4.588,4.588,4.588,4.588,4.588,4.588,4.588,4.588,4.588,4.588,4.588,4.588,4.597,4.606,4.6135,4.618,4.6373,4.6462,4.6447,4.6269,4.618,4.6151,4.5654,4.5434,4.5459,4.4963,4.4534,4.44,4.4332,4.3932,4.3604,4.3604,4.3305,4.3334,4.3319,4.3305,4.3305,4.3305,4.3305,4.3305,4.3305,4.3305,4.3305,4.3305,4.3305,4.329,4.323,4.317,4.317,4.3185,4.3185,4.3275,4.3305,4.3305,4.3305,4.3305,4.3305,4.3305,4.3305,4.3305,4.3305,4.3305,4.3305,4.3305,4.3305,4.3305,4.3305,4.3305,4.3305,4.3305,4.3305,4.3305,4.3305,4.3305,4.3305,4.3344,4.4043,4.3888,4.35,4.3467,4.3433,4.3409,4.3334,4.3067,4.2842,4.2689,4.259,4.2342,4.2267,4.2357,4.2447,4.2875,4.3058,4.3365,4.368,4.405,4.4166,4.4281,4.4511,4.4685,4.4821,4.4858,4.4955,4.4918,4.4783,4.4858,4.4993,4.488,4.4708,4.4746,4.4896,4.588,4.588,4.588,4.588,4.588,4.588,4.588,4.588,4.588,4.588,4.588,4.588,4.588,4.588,4.588,4.597,4.6046,4.6165,4.6314,4.6403,4.655,4.6594,4.655,4.6506,4.6447,4.6373,4.6344,4.6299,4.6089,4.5537,4.5037,4.5352,4.5065,4.4796,4.4317,4.4421,4.4212,4.3888,4.3544,4.3319,4.3305,4.3305,4.3305,4.3305,4.3305,4.3305,4.3305,4.3305,4.3305,4.3305,4.3305,4.3305,4.329,4.329,4.329,4.329,4.3305,4.3305,4.3305,4.3305,4.3305,4.3305,4.3305,4.3305,4.3305,4.3305,4.3305,4.3305,4.3305,4.3305,4.3305,4.3305,4.3305,4.3305,4.3305,4.3305,4.3305,4.3305,4.3305,4.3305,4.3305,4.3305,4.3305,4.3344,4.3344,4.3344,4.3344,4.3219,4.3099,4.306,4.3015,4.2955,4.2925,4.297,4.2976,4.321,4.315,4.3358,4.357,4.3871,4.3949,4.4065,4.4297,4.4396,4.4496,4.4534,4.4534,4.461,4.467,4.4648,4.461,4.461,4.461,4.461,4.4708,4.588,4.588,4.588,4.588,4.588,4.588,4.588,4.588,4.588,4.588,4.588,4.588,4.588,4.588,4.5925,4.6015,4.621,4.6254,4.6447,4.6639,4.6727,4.6815,4.6815,4.6771,4.6683,4.6683,4.6697,4.6755,4.6575,4.6185,4.5985,4.6307,4.5768,4.5424,4.5289,4.5125,4.4855,4.4227,4.3798,4.3514,4.3334,4.3305,4.3305,4.3305,4.3305,4.3305,4.3305,4.3305,4.3305,4.3305,4.3305,4.3305,4.3305,4.3305,4.3305,4.3305,4.3305,4.3305,4.3305,4.3305,4.3305,4.3305,4.3305,4.3305,4.3305,4.3305,4.3305,4.3305,4.3305,4.3305,4.3305,4.3305,4.3305,4.3305,4.3305,4.3305,4.3305,4.3305,4.3305,4.3305,4.3305,4.3305,4.3305,4.3305,4.3305,4.3305,4.3305,4.3305,4.329,4.3275,4.323,4.3155,4.3155,4.317,4.323,4.3305,4.3305,4.3344,4.3557,4.369,4.3808,4.3925,4.4104,4.4166,4.4205,4.4358,4.4473,4.4534,4.461,4.461,4.461,4.461,4.461,4.461,4.461,4.588,4.588,4.588,4.5925,4.5925,4.588,4.588,4.597,4.5925,4.5925,4.597,4.5925,4.5925,4.5925,4.5925,4.6001,4.621,4.6447,4.6683,4.6902,4.7121,4.7179,4.7121,4.699,4.6887,4.6873,4.696,4.6931,4.6945,4.6955,4.6595,4.6324,4.6307,4.5873,4.5603,4.5514,4.52,4.4676,4.4347,4.3888,4.3559,4.3379,4.3364,4.3305,4.3305,4.3305,4.3305,4.3305,4.3305,4.3305,4.3305,4.3305,4.3305,4.3305,4.3305,4.3305,4.3305,4.3305,4.3305,4.3305,4.3305,4.3305,4.3305,4.3305,4.3305,4.3305,4.3305,4.3305,4.3305,4.3305,4.3305,4.3305,4.3305,4.3305,4.3305,4.3305,4.3305,4.3305,4.3305,4.3305,4.3305,4.3305,4.3305,4.3305,4.3305,4.3305,4.3305,4.3305,4.3305,4.329,4.329,4.326,4.3275,4.3275,4.3275,4.3305,4.3305,4.3344,4.3478,4.3611,4.369,4.3793,4.3871,4.4026,4.4065,4.4205,4.4358,4.4435,4.4496,4.4572,4.461,4.461,4.461,4.461,4.461,4.5666,4.5925,4.6194,4.6225,4.609,4.597,4.606,4.6284,4.6135,4.6194,4.6328,4.618,4.609,4.6046,4.597,4.6105,4.6403,4.655,4.6815,4.7077,4.7266,4.7309,4.7266,4.7207,4.7164,4.7121,4.7149,4.7149,4.7164,4.7266,4.7176,4.698,4.686,4.683,4.6516,4.6082,4.5753,4.5484,4.508,4.4586,4.4037,4.3858,4.3708,4.3305,4.3305,4.3305,4.3305,4.3305,4.3305,4.3305,4.3305,4.3305,4.3305,4.3305,4.3305,4.3305,4.3305,4.3305,4.3305,4.3305,4.3305,4.3305,4.3305,4.3305,4.3305,4.3305,4.3305,4.3305,4.3305,4.3305,4.3305,4.3305,4.3305,4.3305,4.3305,4.3305,4.3305,4.3305,4.3305,4.3305,4.3305,4.3305,4.3305,4.3305,4.3305,4.3305,4.3305,4.3305,4.3305,4.3305,4.3305,4.3305,4.3305,4.3305,4.3305,4.3305,4.3305,4.3344,4.3423,4.3478,4.3518,4.3478,4.3542,4.3699,4.391,4.4026,4.4166,4.432,4.4419,4.4534,4.4572,4.461,4.461,4.461,4.4671,4.5551,4.6031,4.6403,4.6447,4.6225,4.615,4.6284,4.6506,4.6403,4.6403,4.6594,4.6403,4.6269,4.618,4.6194,4.6239,4.655,4.6683,4.6946,4.7179,4.7309,4.7309,4.7309,4.7309,4.7266,4.7309,4.7309,4.7309,4.7266,4.7309,4.7264,4.7264,4.7309,4.7234,4.7145,4.689,4.6546,4.6232,4.5873,4.5259,4.4691,4.4586,4.4287,4.3738,4.3648,4.3469,4.3379,4.3305,4.3305,4.3305,4.3305,4.3305,4.3305,4.3305,4.3305,4.3305,4.3305,4.3305,4.3305,4.3305,4.3305,4.3305,4.3305,4.3305,4.3305,4.3305,4.3305,4.3305,4.3305,4.3305,4.3305,4.3305,4.3305,4.3305,4.3305,4.3305,4.3305,4.3305,4.3305,4.3305,4.3305,4.3305,4.3305,4.3305,4.3305,4.3305,4.3305,4.3305,4.3305,4.3305,4.3305,4.3305,4.3305,4.3305,4.3305,4.3305,4.3305,4.3305,4.3344,4.3344,4.3344,4.3305,4.3344,4.3503,4.366,4.3817,4.3972,4.4166,4.4358,4.4587,4.4603,4.4687,4.461,4.4625,4.4841,4.5669,4.6195,4.6506,4.6447,4.6299,4.6447,4.6594,4.6683,4.6639,4.6639,4.6683,4.6594,4.6447,4.6358,4.6462,4.655,4.6624,4.6785,4.7019,4.7266,4.7309,4.7309,4.7309,4.7309,4.7309,4.7309,4.7309,4.7309,4.7309,4.7309,4.7309,4.7309,4.7309,4.7309,4.7309,4.7294,4.695,4.6399,4.6294,4.5903,4.5424,4.5274,4.4915,4.4451,4.4287,4.4077,4.3604,4.3499,4.3454,4.3305,4.3305,4.3305,4.3305,4.3305,4.3305,4.3305,4.3305,4.3305,4.3305,4.3305,4.3305,4.3305,4.3305,4.3305,4.3305,4.3305,4.3305,4.3305,4.3305,4.3305,4.3305,4.3305,4.3305,4.3305,4.3305,4.3305,4.3305,4.3305,4.3305,4.3305,4.3305,4.3305,4.3305,4.3305,4.3305,4.3305,4.3305,4.3305,4.3305,4.3305,4.3305,4.3305,4.3305,4.3305,4.3305,4.3305,4.3305,4.3305,4.3305,4.3305,4.3305,4.3305,4.3344,4.3384,4.3448,4.366,4.3817,4.4026,4.4373,4.4711,4.4741,4.4779,4.4687,4.4841,4.5203,4.552,4.6491,4.6902,4.6902,4.6653,4.6624,4.6771,4.7033,4.7092,4.7092,4.7033,4.6887,4.6756,4.6697,4.6624,4.6668,4.68,4.6829,4.7062,4.7266,4.7309,4.7309,4.7309,4.7309,4.7309,4.7309,4.7309,4.7309,4.7309,4.7309,4.7309,4.7309,4.7309,4.7309,4.7309,4.7309,4.713,4.7025,4.692,4.6666,4.6052,4.5933,4.5663,4.5005,4.4975,4.4646,4.4032,4.3932,4.3708,4.3409,4.3364,4.3305,4.3305,4.3305,4.3305,4.3305,4.3305,4.3305,4.3305,4.3305,4.3305,4.3319,4.3305,4.3305,4.3305,4.3305,4.3305,4.3319,4.3364,4.3349,4.3305,4.3319,4.3319,4.3305,4.3305,4.3305,4.3305,4.3305,4.3305,4.3305,4.3305,4.3305,4.3305,4.3305,4.3305,4.3305,4.3305,4.3305,4.3305,4.3305,4.3305,4.3305,4.3305,4.3305,4.3319,4.3409,4.3454,4.3469,4.3394,4.3305,4.3305,4.3529,4.3484,4.3629,4.3558,4.3503,4.3805,4.4161,4.4571,4.4826,4.5087,4.528,4.528,4.5603,4.608,4.5458,4.6726,4.7121,4.7207,4.7019,4.6902,4.7033,4.7266,4.7309,4.7309,4.7266,4.7121,4.6975,4.6887,4.6902,4.68,4.6931,4.7019,4.7062,4.7309,4.7309,4.7309,4.7309,4.7309,4.7309,4.7309,4.7309,4.7309,4.7309,4.7309,4.7309,4.7309,4.7309,4.7309,4.7309,4.7294,4.7294,4.7234,4.7174,4.7085,4.6741,4.6576,4.6337,4.5858,4.5574,4.5349,4.4796,4.4407,4.4097,4.3708,4.3469,4.3349,4.3319,4.3319,4.3305,4.3305,4.3305,4.3305,4.3305,4.3305,4.3394,4.3718,4.3494,4.3305,4.3305,4.3305,4.3305,4.3334,4.3484,4.3604,4.3648,4.3648,4.3858,4.3888,4.3723,4.3738,4.3633,4.3663,4.3394,4.3379,4.3305,4.3305,4.3305,4.3305,4.3305,4.3305,4.3305,4.3319,4.3334,4.3305,4.3305,4.3305,4.3305,4.3319,4.3439,4.3673,4.3663,4.3633,4.3693,4.3768,4.4037,4.4407,4.4152,4.3988,4.4193,4.4273,4.4142,4.4325,4.4749,4.5312,4.5883,4.5962,4.5972,4.6311,4.6773,4.5572,4.6812,4.7207,4.7309,4.7309,4.7251,4.7266,4.7309,4.7309,4.7309,4.7309,4.7309,4.7164,4.7019,4.7164,4.7121,4.7019,4.7164,4.7251,4.7294,4.7309,4.7309,4.7309,4.7309,4.7309,4.7309,4.7309,4.7309,4.7309,4.7309,4.7309,4.7309,4.7309,4.7309,4.7309,4.7309,4.7309,4.7309,4.7294,4.7234,4.71,4.7145,4.6845,4.6486,4.6292,4.5963,4.5439,4.4945,4.4601,4.4227,4.3813,4.3529,4.3379,4.3364,4.3364,4.3349,4.3394,4.3319,4.3454,4.3484,4.3798,4.4167,4.3843,4.3529,4.3484,4.3633,4.3633,4.3753,4.3988,4.4182,4.4317,4.4661,4.5005,4.4811,4.4541,4.4436,4.4272,4.4047,4.3648,4.3484,4.3349,4.3319,4.3334,4.3334,4.3618,4.3589,4.3618,4.3604,4.3559,4.3319,4.3319,4.3305,4.3319,4.3349,4.3529,4.3883,4.4182,4.4257,4.4631,4.4781,4.505,4.5065,4.4811,4.4736,4.5065,4.5072,4.4729,4.4725,4.4961,4.5601,4.6421,4.6628,4.6625,4.688,4.725,4.5518,4.6493,4.7071,4.7309,4.7309,4.7309,4.7309,4.7309,4.7309,4.7309,4.7309,4.7309,4.7251,4.7207,4.7266,4.7251,4.7207,4.7266,4.7266,4.7309,4.7309,4.7309,4.7309,4.7309,4.7309,4.7309,4.7309,4.7309,4.7309,4.7309,4.7309,4.7309,4.7309,4.7309,4.7309,4.7309,4.7309,4.7309,4.7309,4.7309,4.7309,4.7309,4.71,4.701,4.6935,4.6561,4.6082,4.5783,4.5454,4.499,4.484,4.4571,4.4032,4.4407,4.4631,4.3977,4.3693,4.3469,4.3928,4.4032,4.4317,4.484,4.4781,4.4796,4.4631,4.4407,4.4272,4.4377,4.4511,4.4721,4.5005,4.5349,4.5603,4.5499,4.5259,4.508,4.4915,4.4706,4.4332,4.4018,4.3883,4.3663,4.3648,4.3898,4.4152,4.4077,4.4032,4.4032,4.3898,4.3633,4.3334,4.3319,4.3454,4.3529,4.3868,4.4182,4.4556,4.49,4.5289,4.5529,4.5484,4.5454,4.5349,4.5394,4.5559,4.5424,4.5151,4.5296,4.5515,4.6204,4.6966,4.713,4.7338,4.7548,4.7758,4.5498,4.6339,4.7025,4.7309,4.7309,4.7309,4.7309,4.7309,4.7309,4.7309,4.7309,4.7309,4.7309,4.7309,4.7309,4.7309,4.7309,4.7309,4.7309,4.7309,4.7309,4.7309,4.7309,4.7309,4.7309,4.7309,4.7309,4.7309,4.7309,4.7309,4.7309,4.7309,4.7309,4.7309,4.7309,4.7309,4.7309,4.7309,4.7309,4.7309,4.7309,4.7309,4.7309,4.7309,4.7309,4.704,4.6711,4.6546,4.6097,4.5663,4.5559,4.514,4.4721,4.5065,4.52,4.4646,4.4481,4.4407,4.4646,4.4691,4.5095,4.5499,4.5708,4.5873,4.5648,4.5364,4.514,4.505,4.5155,4.5304,4.5618,4.5918,4.6022,4.6127,4.5933,4.5738,4.5574,4.5409,4.5095,4.4736,4.4496,4.4302,4.4332,4.4556,4.4691,4.4706,4.4706,4.4706,4.4481,4.4112,4.3663,4.3349,4.3574,4.3823,4.4137,4.4481,4.4915,4.5424,4.6052,4.6187,4.6022,4.6097,4.6247,4.6112,4.5948,4.5855,4.5818,4.5943,4.6184,4.6872,4.7439,4.7711,4.7937,4.8117,4.8327,4.5451,4.6249,4.7025,4.7309,4.7309,4.7309,4.7309,4.7309,4.7309,4.7309,4.7309,4.7309,4.7309,4.7309,4.7309,4.7309,4.7309,4.7309,4.7309,4.7309,4.7309,4.7309,4.7309,4.7309,4.7309,4.7309,4.7309,4.7309,4.7309,4.7309,4.7309,4.7309,4.7309,4.7309,4.7309,4.7309,4.7309,4.7309,4.7309,4.7309,4.7309,4.7309,4.7309,4.7309,4.7309,4.7249,4.7115,4.6815,4.6381,4.6172,4.5948,4.5589,4.5589,4.5274,4.5274,4.5289,4.5125,4.52,4.5289,4.5379,4.5768,4.6142,4.6369,4.6621,4.6441,4.5963,4.5648,4.5783,4.5903,4.6022,4.6307,4.6561,4.6726,4.6696,4.6561,4.6426,4.6337,4.6052,4.5618,4.5289,4.5035,4.487,4.487,4.508,4.5379,4.5379,4.5379,4.5379,4.5229,4.4855,4.4246,4.3693,4.3783,4.4107,4.4332,4.4706,4.5259,4.5843,4.6546,4.686,4.6711,4.692,4.7249,4.6905,4.6516,4.6584,4.6578,4.6662,4.683,4.7357,4.7828,4.8258,4.848,4.8547,4.8589,4.4889,4.5648,4.6815,4.7309,4.7309,4.7309,4.7309,4.7309,4.7309,4.7309,4.7309,4.7309,4.7309,4.7309,4.7309,4.7309,4.7309,4.7309,4.7309,4.7309,4.7309,4.7309,4.7309,4.7309,4.7309,4.7309,4.7309,4.7309,4.7309,4.7309,4.7309,4.7309,4.7309,4.7309,4.7309,4.7309,4.7309,4.7309,4.7309,4.7309,4.7309,4.7309,4.7309,4.7309,4.7309,4.7309,4.7234,4.7174,4.704,4.698,4.6935,4.6845,4.683,4.5888,4.5678,4.5873,4.5693,4.5768,4.5948,4.6097,4.6381,4.677,4.704,4.7145,4.698,4.6411,4.6232,4.6471,4.6651,4.677,4.6862,4.7145,4.7294,4.7204,4.7145,4.7085,4.7025,4.6606,4.6127,4.5873,4.5603,4.5544,4.5544,4.5693,4.5963,4.6082,4.604,4.604,4.6082,4.5756,4.5128,4.459,4.4216,4.4407,4.4616,4.502,4.5589,4.6202,4.689,4.716,4.7309,4.7309,4.7309,4.7294,4.7158,4.7079,4.7104,4.7325,4.7552,4.7814,4.8037,4.8309,4.8495,4.8563,4.8563,4.4526,4.502,4.6307,4.704,4.7279,4.7309,4.7309,4.7309,4.7309,4.7309,4.7309,4.7309,4.7309,4.7309,4.7309,4.7309,4.7309,4.7309,4.7309,4.7309,4.7309,4.7309,4.7309,4.7309,4.7309,4.7309,4.7309,4.7309,4.7309,4.7309,4.7309,4.7309,4.7309,4.7309,4.7309,4.7309,4.7309,4.7309,4.7309,4.7309,4.7309,4.7309,4.7309,4.7309,4.7309,4.7309,4.7309,4.7309,4.7294,4.7294,4.7234,4.7219,4.7085,4.6636,4.6456,4.6561,4.6516,4.6367,4.6621,4.677,4.689,4.7189,4.7309,4.7279,4.7279,4.68,4.6785,4.6995,4.698,4.707,4.71,4.7279,4.7309,4.7264,4.7234,4.7204,4.7174,4.6995,4.677,4.6681,4.6516,4.6501,4.6501,4.6531,4.6756,4.6756,4.6756,4.6711,4.6711,4.6578,4.5965,4.5517,4.5214,4.4915,4.5005,4.5439,4.5992,4.6606,4.7174,4.7249,4.7309,4.7309,4.7309,4.7294,4.7337,4.7394,4.748,4.7596,4.7767,4.7943,4.8111,4.8313,4.8412,4.8495,4.8521,4.4287,4.4616,4.5813,4.6711,4.7249,4.7309,4.7309,4.7309,4.7309,4.7309,4.7309,4.7309,4.7309,4.7309,4.7309,4.7309,4.7309,4.7309,4.7309,4.7309,4.7309,4.7309,4.7309,4.7309,4.7309,4.7309,4.7309,4.7309,4.7309,4.7309,4.7309,4.7309,4.7309,4.7309,4.7309,4.7309,4.7309,4.7309,4.7309,4.7309,4.7309,4.7309,4.7309,4.7309,4.7309,4.7309,4.7309,4.7309,4.7309,4.7309,4.7309,4.7309,4.7309,4.71,4.7145,4.7115,4.71,4.707,4.7204,4.7189,4.7234,4.7309,4.7309,4.7309,4.7309,4.7294,4.7279,4.7279,4.7264,4.7264,4.7294,4.7309,4.7309,4.7309,4.7309,4.7309,4.7294,4.7279,4.7264,4.7249,4.7234,4.7204,4.7219,4.7264,4.7279,4.7294,4.7309,4.7309,4.7234,4.7055,4.6666,4.6426,4.6232,4.5948,4.5618,4.5813,4.6307,4.6711,4.716,4.7249,4.7309,4.7309,4.7309,4.7309,4.7352,4.7396,4.7525,4.7596,4.781,4.7937,4.8091,4.8202,4.8244,4.8328,4.8453,4.4152,4.517,4.6007,4.6696,4.7249,4.7309,4.7309,4.7309,4.7309,4.7309,4.7309,4.7309,4.7309,4.7309,4.7309,4.7309,4.7309,4.7309,4.7309,4.7309,4.7309,4.7309,4.7309,4.7309,4.7309,4.7309,4.7309,4.7309,4.7309,4.7309,4.7309,4.7309,4.7309,4.7309,4.7309,4.7309,4.7309,4.7309,4.7309,4.7309,4.7309,4.7309,4.7309,4.7309,4.7309,4.7309,4.7309,4.7309,4.7309,4.7309,4.7309,4.7309,4.7309,4.7309,4.7309,4.7309,4.7309,4.7309,4.7309,4.7309,4.7309,4.7309,4.7309,4.7309,4.7309,4.7309,4.7294,4.7294,4.7294,4.7294,4.7309,4.7309,4.7309,4.7309,4.7309,4.7309,4.7309,4.7294,4.7294,4.7294,4.7279,4.7264,4.7279,4.7294,4.7294,4.7309,4.7309,4.7309,4.7309,4.7264,4.7234,4.7115,4.6995,4.6726,4.6277,4.6202,4.6546,4.6905,4.716,4.7249,4.7309,4.7309,4.7309,4.7309,4.7309,4.7396,4.7467,4.7553,4.7681,4.7852,4.7964,4.8049,4.8091,4.8133,4.8244]}]]